Time,TemperatureF,DewpointF,PressureIn,WindDirection,WindDirectionDegrees,WindSpeedMPH,WindSpeedGustMPH,Humidity,HourlyPrecipIn,Conditions,Clouds,dailyrainin,SoftwareType,DateUTC
2013-04-04 00:00:00,30.9,15.4,30.32,West,280,0.0,0.0,52,0.00,,---,0.00,VWS V14.01,2013-04-04 04:00:00,
2013-04-04 00:01:00,30.7,14.3,30.32,West,280,0.0,0.0,50,0.00,,---,0.00,VWS V14.01,2013-04-04 04:01:00,
2013-04-04 00:02:00,30.6,14.2,30.32,West,280,0.0,0.0,50,0.00,,---,0.00,VWS V14.01,2013-04-04 04:02:00,
2013-04-04 00:03:00,30.6,15.1,30.32,West,280,0.0,0.0,52,0.00,,---,0.00,VWS V14.01,2013-04-04 04:03:00,
2013-04-04 00:04:00,30.6,15.1,30.32,West,280,0.0,0.0,52,0.00,,---,0.00,VWS V14.01,2013-04-04 04:04:00,
2013-04-04 00:05:00,30.6,15.1,30.32,West,280,0.0,0.0,52,0.00,,---,0.00,VWS V14.01,2013-04-04 04:05:00,
2013-04-04 00:06:00,30.4,14.9,30.32,West,280,0.0,1.0,52,0.00,,---,0.00,VWS V14.01,2013-04-04 04:06:00,
2013-04-04 00:07:00,30.4,14.9,30.32,West,280,0.0,0.0,52,0.00,,---,0.00,VWS V14.01,2013-04-04 04:07:00,
2013-04-04 00:08:00,30.4,14.9,30.32,West,280,0.0,0.0,52,0.00,,---,0.00,VWS V14.01,2013-04-04 04:08:00,
2013-04-04 00:09:00,30.4,14.9,30.32,West,280,0.0,0.0,52,0.00,,---,0.00,VWS V14.01,2013-04-04 04:09:00,
2013-04-04 00:10:00,30.4,14.9,30.32,West,280,0.0,0.0,52,0.00,,---,0.00,VWS V14.01,2013-04-04 04:10:00,
2013-04-04 00:11:00,30.3,14.8,30.32,West,280,0.0,0.0,52,0.00,,---,0.00,VWS V14.01,2013-04-04 04:11:00,
2013-04-04 00:12:00,30.3,14.8,30.32,West,280,0.0,0.0,52,0.00,,---,0.00,VWS V14.01,2013-04-04 04:12:00,
2013-04-04 00:13:00,30.3,14.8,30.32,West,280,0.0,0.0,52,0.00,,---,0.00,VWS V14.01,2013-04-04 04:13:00,
2013-04-04 00:14:00,30.1,14.6,30.32,West,280,0.0,0.0,52,0.00,,---,0.00,VWS V14.01,2013-04-04 04:14:00,
2013-04-04 00:15:00,30.3,14.8,30.32,West,280,0.0,0.0,52,0.00,,---,0.00,VWS V14.01,2013-04-04 04:15:00,
2013-04-04 00:16:00,30.1,14.6,30.33,West,280,0.0,0.0,52,0.00,,---,0.00,VWS V14.01,2013-04-04 04:16:00,
2013-04-04 00:17:00,30.1,14.6,30.33,West,280,0.0,0.0,52,0.00,,---,0.00,VWS V14.01,2013-04-04 04:17:00,
2013-04-04 00:18:00,30.0,15.0,30.33,West,280,0.0,0.0,53,0.00,,---,0.00,VWS V14.01,2013-04-04 04:18:00,
2013-04-04 00:19:00,30.0,14.5,30.33,West,280,0.0,0.0,52,0.00,,---,0.00,VWS V14.01,2013-04-04 04:19:00,
2013-04-04 00:20:00,30.0,15.0,30.33,West,280,0.0,0.0,53,0.00,,---,0.00,VWS V14.01,2013-04-04 04:20:00,
2013-04-04 00:21:00,30.0,15.0,30.33,West,280,0.0,0.0,53,0.00,,---,0.00,VWS V14.01,2013-04-04 04:21:00,
2013-04-04 00:22:00,30.0,15.0,30.33,West,280,0.0,0.0,53,0.00,,---,0.00,VWS V14.01,2013-04-04 04:22:00,
2013-04-04 00:23:00,30.0,15.0,30.33,West,280,0.0,1.0,53,0.00,,---,0.00,VWS V14.01,2013-04-04 04:23:00,
2013-04-04 00:24:00,30.0,15.0,30.33,West,280,0.0,0.0,53,0.00,,---,0.00,VWS V14.01,2013-04-04 04:24:00,
2013-04-04 00:25:00,30.0,15.0,30.33,West,280,0.0,1.0,53,0.00,,---,0.00,VWS V14.01,2013-04-04 04:25:00,
2013-04-04 00:26:00,29.8,15.6,30.33,West,280,0.0,0.0,55,0.00,,---,0.00,VWS V14.01,2013-04-04 04:26:00,
2013-04-04 00:27:00,29.8,15.6,30.33,West,280,0.0,0.0,55,0.00,,---,0.00,VWS V14.01,2013-04-04 04:27:00,
2013-04-04 00:28:00,29.8,15.6,30.33,West,280,0.0,0.0,55,0.00,,---,0.00,VWS V14.01,2013-04-04 04:28:00,
2013-04-04 00:29:00,29.7,15.5,30.33,West,280,0.0,0.0,55,0.00,,---,0.00,VWS V14.01,2013-04-04 04:29:00,
2013-04-04 00:30:00,29.8,15.6,30.33,West,280,0.0,0.0,55,0.00,,---,0.00,VWS V14.01,2013-04-04 04:30:00,
2013-04-04 00:31:00,29.7,15.5,30.33,West,280,0.0,0.0,55,0.00,,---,0.00,VWS V14.01,2013-04-04 04:31:00,
2013-04-04 00:32:00,29.7,14.7,30.33,West,280,0.0,0.0,53,0.00,,---,0.00,VWS V14.01,2013-04-04 04:32:00,
2013-04-04 00:33:00,29.7,15.1,30.33,West,280,0.0,1.0,54,0.00,,---,0.00,VWS V14.01,2013-04-04 04:33:00,
2013-04-04 00:34:00,29.7,15.1,30.33,West,280,0.0,0.0,54,0.00,,---,0.00,VWS V14.01,2013-04-04 04:34:00,
2013-04-04 00:35:00,29.7,15.1,30.33,West,280,0.0,0.0,54,0.00,,---,0.00,VWS V14.01,2013-04-04 04:35:00,
2013-04-04 00:36:00,29.7,15.5,30.33,West,280,0.0,0.0,55,0.00,,---,0.00,VWS V14.01,2013-04-04 04:36:00,
2013-04-04 00:37:00,29.5,15.3,30.33,West,280,0.0,0.0,55,0.00,,---,0.00,VWS V14.01,2013-04-04 04:37:00,
2013-04-04 00:38:00,29.5,15.8,30.33,West,280,0.0,0.0,56,0.00,,---,0.00,VWS V14.01,2013-04-04 04:38:00,
2013-04-04 00:39:00,29.4,16.1,30.33,West,280,0.0,0.0,57,0.00,,---,0.00,VWS V14.01,2013-04-04 04:39:00,
2013-04-04 00:40:00,29.5,15.8,30.33,West,280,0.0,0.0,56,0.00,,---,0.00,VWS V14.01,2013-04-04 04:40:00,
2013-04-04 00:41:00,29.3,15.6,30.33,West,280,0.0,0.0,56,0.00,,---,0.00,VWS V14.01,2013-04-04 04:41:00,
2013-04-04 00:42:00,29.1,15.4,30.33,West,280,0.0,0.0,56,0.00,,---,0.00,VWS V14.01,2013-04-04 04:42:00,
2013-04-04 00:43:00,29.1,15.4,30.33,West,280,0.0,0.0,56,0.00,,---,0.00,VWS V14.01,2013-04-04 04:43:00,
2013-04-04 00:44:00,29.1,15.4,30.33,West,280,0.0,0.0,56,0.00,,---,0.00,VWS V14.01,2013-04-04 04:44:00,
2013-04-04 00:45:00,29.1,15.4,30.33,West,280,0.0,0.0,56,0.00,,---,0.00,VWS V14.01,2013-04-04 04:45:00,
2013-04-04 00:46:00,29.1,15.4,30.34,West,280,0.0,0.0,56,0.00,,---,0.00,VWS V14.01,2013-04-04 04:46:00,
2013-04-04 00:47:00,29.0,15.3,30.34,West,280,0.0,0.0,56,0.00,,---,0.00,VWS V14.01,2013-04-04 04:47:00,
2013-04-04 00:48:00,29.0,16.1,30.34,West,280,0.0,0.0,58,0.00,,---,0.00,VWS V14.01,2013-04-04 04:48:00,
2013-04-04 00:49:00,29.0,16.1,30.34,West,280,0.0,0.0,58,0.00,,---,0.00,VWS V14.01,2013-04-04 04:49:00,
2013-04-04 00:50:00,29.0,16.1,30.34,West,280,0.0,0.0,58,0.00,,---,0.00,VWS V14.01,2013-04-04 04:50:00,
2013-04-04 00:51:00,28.8,15.9,30.34,West,280,0.0,0.0,58,0.00,,---,0.00,VWS V14.01,2013-04-04 04:51:00,
2013-04-04 00:52:00,28.7,15.8,30.34,West,280,0.0,0.0,58,0.00,,---,0.00,VWS V14.01,2013-04-04 04:52:00,
2013-04-04 00:53:00,28.7,15.4,30.34,West,280,0.0,0.0,57,0.00,,---,0.00,VWS V14.01,2013-04-04 04:53:00,
2013-04-04 00:54:00,28.7,14.6,30.34,West,280,0.0,0.0,55,0.00,,---,0.00,VWS V14.01,2013-04-04 04:54:00,
2013-04-04 00:55:00,28.7,15.4,30.34,West,280,0.0,0.0,57,0.00,,---,0.00,VWS V14.01,2013-04-04 04:55:00,
2013-04-04 00:56:00,28.7,15.8,30.34,West,280,0.0,0.0,58,0.00,,---,0.00,VWS V14.01,2013-04-04 04:56:00,
2013-04-04 00:57:00,28.5,15.6,30.34,West,280,0.0,0.0,58,0.00,,---,0.00,VWS V14.01,2013-04-04 04:57:00,
2013-04-04 00:58:00,28.5,15.6,30.34,West,280,0.0,0.0,58,0.00,,---,0.00,VWS V14.01,2013-04-04 04:58:00,
2013-04-04 00:59:00,28.5,15.6,30.34,West,280,0.0,0.0,58,0.00,,---,0.00,VWS V14.01,2013-04-04 04:59:00,
2013-04-04 01:00:00,28.5,15.6,30.34,West,280,0.0,0.0,58,0.00,,---,0.00,VWS V14.01,2013-04-04 05:00:00,
2013-04-04 01:01:00,28.5,16.0,30.34,West,280,0.0,0.0,59,0.00,,---,0.00,VWS V14.01,2013-04-04 05:01:00,
2013-04-04 01:02:00,28.4,15.9,30.34,West,280,0.0,0.0,59,0.00,,---,0.00,VWS V14.01,2013-04-04 05:02:00,
2013-04-04 01:03:00,28.4,15.9,30.34,West,280,0.0,0.0,59,0.00,,---,0.00,VWS V14.01,2013-04-04 05:03:00,
2013-04-04 01:04:00,28.4,15.9,30.34,West,280,0.0,0.0,59,0.00,,---,0.00,VWS V14.01,2013-04-04 05:04:00,
2013-04-04 01:05:00,28.4,15.9,30.34,West,280,0.0,0.0,59,0.00,,---,0.00,VWS V14.01,2013-04-04 05:05:00,
2013-04-04 01:06:00,28.2,15.3,30.34,West,280,0.0,0.0,58,0.00,,---,0.00,VWS V14.01,2013-04-04 05:06:00,
2013-04-04 01:07:00,28.2,14.9,30.34,West,280,0.0,0.0,57,0.00,,---,0.00,VWS V14.01,2013-04-04 05:07:00,
2013-04-04 01:08:00,28.2,14.9,30.34,West,280,0.0,0.0,57,0.00,,---,0.00,VWS V14.01,2013-04-04 05:08:00,
2013-04-04 01:09:00,28.2,15.3,30.34,West,280,0.0,0.0,58,0.00,,---,0.00,VWS V14.01,2013-04-04 05:09:00,
2013-04-04 01:10:00,28.2,14.9,30.34,West,280,0.0,0.0,57,0.00,,---,0.00,VWS V14.01,2013-04-04 05:10:00,
2013-04-04 01:11:00,28.2,14.9,30.34,West,280,0.0,0.0,57,0.00,,---,0.00,VWS V14.01,2013-04-04 05:11:00,
2013-04-04 01:12:00,28.2,14.9,30.34,West,280,0.0,0.0,57,0.00,,---,0.00,VWS V14.01,2013-04-04 05:12:00,
2013-04-04 01:13:00,28.2,14.9,30.34,West,280,0.0,0.0,57,0.00,,---,0.00,VWS V14.01,2013-04-04 05:13:00,
2013-04-04 01:14:00,28.1,14.8,30.34,West,280,0.0,0.0,57,0.00,,---,0.00,VWS V14.01,2013-04-04 05:14:00,
2013-04-04 01:15:00,28.2,14.9,30.34,West,280,0.0,0.0,57,0.00,,---,0.00,VWS V14.01,2013-04-04 05:15:00,
2013-04-04 01:16:00,28.1,14.8,30.33,West,280,0.0,0.0,57,0.00,,---,0.00,VWS V14.01,2013-04-04 05:16:00,
2013-04-04 01:17:00,27.9,15.1,30.33,West,280,0.0,0.0,58,0.00,,---,0.00,VWS V14.01,2013-04-04 05:17:00,
2013-04-04 01:18:00,27.9,15.1,30.33,West,280,0.0,0.0,58,0.00,,---,0.00,VWS V14.01,2013-04-04 05:18:00,
2013-04-04 01:19:00,27.9,15.1,30.33,West,280,0.0,0.0,58,0.00,,---,0.00,VWS V14.01,2013-04-04 05:19:00,
2013-04-04 01:20:00,27.9,15.1,30.33,West,280,0.0,0.0,58,0.00,,---,0.00,VWS V14.01,2013-04-04 05:20:00,
2013-04-04 01:21:00,27.8,15.0,30.33,West,280,0.0,0.0,58,0.00,,---,0.00,VWS V14.01,2013-04-04 05:21:00,
2013-04-04 01:22:00,27.8,14.6,30.33,West,280,0.0,0.0,57,0.00,,---,0.00,VWS V14.01,2013-04-04 05:22:00,
2013-04-04 01:23:00,27.8,15.0,30.33,West,280,0.0,0.0,58,0.00,,---,0.00,VWS V14.01,2013-04-04 05:23:00,
2013-04-04 01:24:00,27.8,14.6,30.33,West,280,0.0,0.0,57,0.00,,---,0.00,VWS V14.01,2013-04-04 05:24:00,
2013-04-04 01:25:00,27.8,15.0,30.33,West,280,0.0,0.0,58,0.00,,---,0.00,VWS V14.01,2013-04-04 05:25:00,
2013-04-04 01:26:00,27.8,14.6,30.33,West,280,0.0,0.0,57,0.00,,---,0.00,VWS V14.01,2013-04-04 05:26:00,
2013-04-04 01:27:00,27.8,14.6,30.33,West,280,0.0,0.0,57,0.00,,---,0.00,VWS V14.01,2013-04-04 05:27:00,
2013-04-04 01:28:00,27.8,14.6,30.33,West,280,0.0,0.0,57,0.00,,---,0.00,VWS V14.01,2013-04-04 05:28:00,
2013-04-04 01:29:00,27.8,14.6,30.33,West,280,0.0,0.0,57,0.00,,---,0.00,VWS V14.01,2013-04-04 05:29:00,
2013-04-04 01:30:00,27.8,14.6,30.33,West,280,0.0,0.0,57,0.00,,---,0.00,VWS V14.01,2013-04-04 05:30:00,
2013-04-04 01:31:00,27.8,14.6,30.33,West,280,0.0,0.0,57,0.00,,---,0.00,VWS V14.01,2013-04-04 05:31:00,
2013-04-04 01:32:00,27.8,14.6,30.33,West,280,0.0,0.0,57,0.00,,---,0.00,VWS V14.01,2013-04-04 05:32:00,
2013-04-04 01:33:00,27.6,14.8,30.33,West,280,0.0,0.0,58,0.00,,---,0.00,VWS V14.01,2013-04-04 05:33:00,
2013-04-04 01:34:00,27.6,14.8,30.33,West,280,0.0,0.0,58,0.00,,---,0.00,VWS V14.01,2013-04-04 05:34:00,
2013-04-04 01:35:00,27.6,14.8,30.33,West,280,0.0,0.0,58,0.00,,---,0.00,VWS V14.01,2013-04-04 05:35:00,
2013-04-04 01:36:00,27.5,15.1,30.33,West,280,0.0,0.0,59,0.00,,---,0.00,VWS V14.01,2013-04-04 05:36:00,
2013-04-04 01:37:00,27.5,14.7,30.33,West,280,0.0,1.0,58,0.00,,---,0.00,VWS V14.01,2013-04-04 05:37:00,
2013-04-04 01:38:00,27.5,14.3,30.33,West,280,0.0,0.0,57,0.00,,---,0.00,VWS V14.01,2013-04-04 05:38:00,
2013-04-04 01:39:00,27.5,14.3,30.33,West,280,1.0,2.0,57,0.00,,---,0.00,VWS V14.01,2013-04-04 05:39:00,
2013-04-04 01:40:00,27.5,14.3,30.33,West,280,0.0,0.0,57,0.00,,---,0.00,VWS V14.01,2013-04-04 05:40:00,
2013-04-04 01:41:00,27.8,14.2,30.33,West,280,0.0,0.0,56,0.00,,---,0.00,VWS V14.01,2013-04-04 05:41:00,
2013-04-04 01:42:00,27.9,14.2,30.33,West,280,0.0,0.0,56,0.00,,---,0.00,VWS V14.01,2013-04-04 05:42:00,
2013-04-04 01:43:00,27.9,14.2,30.33,West,280,0.0,1.0,56,0.00,,---,0.00,VWS V14.01,2013-04-04 05:43:00,
2013-04-04 01:44:00,27.9,14.2,30.33,West,280,0.0,0.0,56,0.00,,---,0.00,VWS V14.01,2013-04-04 05:44:00,
2013-04-04 01:45:00,27.9,14.2,30.33,West,280,0.0,1.0,56,0.00,,---,0.00,VWS V14.01,2013-04-04 05:45:00,
2013-04-04 01:46:00,27.9,14.6,30.32,West,280,2.0,2.0,57,0.00,,---,0.00,VWS V14.01,2013-04-04 05:46:00,
2013-04-04 01:47:00,27.9,14.2,30.32,West,280,0.0,2.0,56,0.00,,---,0.00,VWS V14.01,2013-04-04 05:47:00,
2013-04-04 01:48:00,28.1,14.4,30.32,West,280,0.0,0.0,56,0.00,,---,0.00,VWS V14.01,2013-04-04 05:48:00,
2013-04-04 01:49:00,28.1,14.0,30.32,West,280,0.0,0.0,55,0.00,,---,0.00,VWS V14.01,2013-04-04 05:49:00,
2013-04-04 01:50:00,28.1,14.4,30.32,West,280,0.0,0.0,56,0.00,,---,0.00,VWS V14.01,2013-04-04 05:50:00,
2013-04-04 01:51:00,28.2,14.1,30.32,West,280,0.0,0.0,55,0.00,,---,0.00,VWS V14.01,2013-04-04 05:51:00,
2013-04-04 01:52:00,28.2,14.1,30.32,West,280,0.0,0.0,55,0.00,,---,0.00,VWS V14.01,2013-04-04 05:52:00,
2013-04-04 01:53:00,28.4,14.3,30.32,West,280,0.0,0.0,55,0.00,,---,0.00,VWS V14.01,2013-04-04 05:53:00,
2013-04-04 01:54:00,28.5,14.4,30.32,West,280,0.0,0.0,55,0.00,,---,0.00,VWS V14.01,2013-04-04 05:54:00,
2013-04-04 01:55:00,28.4,14.3,30.32,West,280,0.0,0.0,55,0.00,,---,0.00,VWS V14.01,2013-04-04 05:55:00,
2013-04-04 01:56:00,28.7,14.6,30.32,West,280,0.0,0.0,55,0.00,,---,0.00,VWS V14.01,2013-04-04 05:56:00,
2013-04-04 01:57:00,28.7,14.6,30.32,West,280,0.0,0.0,55,0.00,,---,0.00,VWS V14.01,2013-04-04 05:57:00,
2013-04-04 01:58:00,28.7,14.6,30.32,West,280,0.0,0.0,55,0.00,,---,0.00,VWS V14.01,2013-04-04 05:58:00,
2013-04-04 01:59:00,28.7,14.6,30.32,West,280,0.0,1.0,55,0.00,,---,0.00,VWS V14.01,2013-04-04 05:59:00,
2013-04-04 02:00:00,28.7,14.6,30.32,West,280,0.0,0.0,55,0.00,,---,0.00,VWS V14.01,2013-04-04 06:00:00,
2013-04-04 02:01:00,28.7,15.0,30.32,West,280,0.0,1.0,56,0.00,,---,0.00,VWS V14.01,2013-04-04 06:01:00,
2013-04-04 02:02:00,28.7,15.0,30.32,West,280,1.0,3.0,56,0.00,,---,0.00,VWS V14.01,2013-04-04 06:02:00,
2013-04-04 02:03:00,28.5,14.8,30.32,West,280,0.0,1.0,56,0.00,,---,0.00,VWS V14.01,2013-04-04 06:03:00,
2013-04-04 02:04:00,28.5,14.8,30.32,West,280,0.0,1.0,56,0.00,,---,0.00,VWS V14.01,2013-04-04 06:04:00,
2013-04-04 02:05:00,28.5,15.2,30.32,West,280,0.0,1.0,57,0.00,,---,0.00,VWS V14.01,2013-04-04 06:05:00,
2013-04-04 02:06:00,28.5,14.8,30.32,West,280,0.0,1.0,56,0.00,,---,0.00,VWS V14.01,2013-04-04 06:06:00,
2013-04-04 02:07:00,28.7,15.0,30.32,West,280,0.0,3.0,56,0.00,,---,0.00,VWS V14.01,2013-04-04 06:07:00,
2013-04-04 02:08:00,28.7,15.0,30.32,West,280,0.0,2.0,56,0.00,,---,0.00,VWS V14.01,2013-04-04 06:08:00,
2013-04-04 02:09:00,28.7,15.4,30.32,West,280,0.0,3.0,57,0.00,,---,0.00,VWS V14.01,2013-04-04 06:09:00,
2013-04-04 02:10:00,28.7,15.0,30.32,West,280,1.0,1.0,56,0.00,,---,0.00,VWS V14.01,2013-04-04 06:10:00,
2013-04-04 02:11:00,28.5,15.6,30.32,West,280,1.0,4.0,58,0.00,,---,0.00,VWS V14.01,2013-04-04 06:11:00,
2013-04-04 02:12:00,28.5,15.6,30.32,West,280,1.0,4.0,58,0.00,,---,0.00,VWS V14.01,2013-04-04 06:12:00,
2013-04-04 02:13:00,28.5,16.0,30.32,West,280,0.0,1.0,59,0.00,,---,0.00,VWS V14.01,2013-04-04 06:13:00,
2013-04-04 02:14:00,28.5,15.6,30.32,West,280,0.0,1.0,58,0.00,,---,0.00,VWS V14.01,2013-04-04 06:14:00,
2013-04-04 02:15:00,28.5,16.0,30.32,West,280,1.0,1.0,59,0.00,,---,0.00,VWS V14.01,2013-04-04 06:15:00,
2013-04-04 02:16:00,28.5,15.6,30.32,West,280,0.0,1.0,58,0.00,,---,0.00,VWS V14.01,2013-04-04 06:16:00,
2013-04-04 02:17:00,28.5,15.6,30.32,West,280,0.0,1.0,58,0.00,,---,0.00,VWS V14.01,2013-04-04 06:17:00,
2013-04-04 02:18:00,28.5,15.6,30.32,West,280,0.0,1.0,58,0.00,,---,0.00,VWS V14.01,2013-04-04 06:18:00,
2013-04-04 02:19:00,28.5,15.6,30.32,West,280,0.0,0.0,58,0.00,,---,0.00,VWS V14.01,2013-04-04 06:19:00,
2013-04-04 02:20:00,28.5,15.6,30.32,West,280,0.0,0.0,58,0.00,,---,0.00,VWS V14.01,2013-04-04 06:20:00,
2013-04-04 02:21:00,28.5,15.6,30.32,West,280,0.0,0.0,58,0.00,,---,0.00,VWS V14.01,2013-04-04 06:21:00,
2013-04-04 02:22:00,28.5,15.6,30.32,West,280,0.0,0.0,58,0.00,,---,0.00,VWS V14.01,2013-04-04 06:22:00,
2013-04-04 02:23:00,28.4,15.5,30.32,West,280,0.0,1.0,58,0.00,,---,0.00,VWS V14.01,2013-04-04 06:23:00,
2013-04-04 02:24:00,28.4,15.9,30.32,West,280,0.0,1.0,59,0.00,,---,0.00,VWS V14.01,2013-04-04 06:24:00,
2013-04-04 02:25:00,28.4,15.5,30.32,West,280,0.0,0.0,58,0.00,,---,0.00,VWS V14.01,2013-04-04 06:25:00,
2013-04-04 02:26:00,28.2,16.1,30.32,West,280,1.0,3.0,60,0.00,,---,0.00,VWS V14.01,2013-04-04 06:26:00,
2013-04-04 02:27:00,28.2,16.1,30.32,West,280,0.0,2.0,60,0.00,,---,0.00,VWS V14.01,2013-04-04 06:27:00,
2013-04-04 02:28:00,28.1,16.0,30.32,West,280,1.0,2.0,60,0.00,,---,0.00,VWS V14.01,2013-04-04 06:28:00,
2013-04-04 02:29:00,28.1,16.4,30.32,West,280,0.0,1.0,61,0.00,,---,0.00,VWS V14.01,2013-04-04 06:29:00,
2013-04-04 02:30:00,28.1,16.0,30.32,West,280,0.0,1.0,60,0.00,,---,0.00,VWS V14.01,2013-04-04 06:30:00,
2013-04-04 02:31:00,27.9,16.2,30.32,West,280,4.0,4.0,61,0.00,,---,0.00,VWS V14.01,2013-04-04 06:31:00,
2013-04-04 02:32:00,27.9,16.2,30.32,West,280,2.0,4.0,61,0.00,,---,0.00,VWS V14.01,2013-04-04 06:32:00,
2013-04-04 02:33:00,27.9,15.8,30.32,West,280,0.0,2.0,60,0.00,,---,0.00,VWS V14.01,2013-04-04 06:33:00,
2013-04-04 02:34:00,27.8,15.7,30.32,West,280,0.0,1.0,60,0.00,,---,0.00,VWS V14.01,2013-04-04 06:34:00,
2013-04-04 02:35:00,27.9,15.8,30.32,West,280,0.0,0.0,60,0.00,,---,0.00,VWS V14.01,2013-04-04 06:35:00,
2013-04-04 02:36:00,27.9,15.8,30.32,West,280,1.0,1.0,60,0.00,,---,0.00,VWS V14.01,2013-04-04 06:36:00,
2013-04-04 02:37:00,27.9,15.8,30.32,West,280,2.0,2.0,60,0.00,,---,0.00,VWS V14.01,2013-04-04 06:37:00,
2013-04-04 02:38:00,27.8,16.1,30.32,West,280,1.0,3.0,61,0.00,,---,0.00,VWS V14.01,2013-04-04 06:38:00,
2013-04-04 02:39:00,27.8,16.1,30.32,West,280,0.0,1.0,61,0.00,,---,0.00,VWS V14.01,2013-04-04 06:39:00,
2013-04-04 02:40:00,27.8,16.1,30.32,West,280,0.0,1.0,61,0.00,,---,0.00,VWS V14.01,2013-04-04 06:40:00,
2013-04-04 02:41:00,27.8,16.1,30.32,West,280,1.0,3.0,61,0.00,,---,0.00,VWS V14.01,2013-04-04 06:41:00,
2013-04-04 02:42:00,27.6,15.9,30.32,West,280,1.0,2.0,61,0.00,,---,0.00,VWS V14.01,2013-04-04 06:42:00,
2013-04-04 02:43:00,27.6,15.9,30.32,West,280,4.0,5.0,61,0.00,,---,0.00,VWS V14.01,2013-04-04 06:43:00,
2013-04-04 02:44:00,27.6,15.9,30.32,West,280,2.0,4.0,61,0.00,,---,0.00,VWS V14.01,2013-04-04 06:44:00,
2013-04-04 02:45:00,27.6,15.9,30.32,West,280,2.0,4.0,61,0.00,,---,0.00,VWS V14.01,2013-04-04 06:45:00,
2013-04-04 02:46:00,27.5,15.8,30.31,West,261,0.0,4.0,61,0.00,,---,0.00,VWS V14.01,2013-04-04 06:46:00,
2013-04-04 02:47:00,27.5,15.8,30.31,West,261,0.0,1.0,61,0.00,,---,0.00,VWS V14.01,2013-04-04 06:47:00,
2013-04-04 02:48:00,27.5,15.8,30.31,West,261,0.0,1.0,61,0.00,,---,0.00,VWS V14.01,2013-04-04 06:48:00,
2013-04-04 02:49:00,27.5,15.8,30.31,West,261,0.0,1.0,61,0.00,,---,0.00,VWS V14.01,2013-04-04 06:49:00,
2013-04-04 02:50:00,27.5,15.8,30.31,West,261,1.0,1.0,61,0.00,,---,0.00,VWS V14.01,2013-04-04 06:50:00,
2013-04-04 02:51:00,27.3,15.6,30.31,West,261,0.0,0.0,61,0.00,,---,0.00,VWS V14.01,2013-04-04 06:51:00,
2013-04-04 02:52:00,27.3,15.6,30.31,West,262,1.0,3.0,61,0.00,,---,0.00,VWS V14.01,2013-04-04 06:52:00,
2013-04-04 02:53:00,27.3,15.6,30.31,West,262,0.0,1.0,61,0.00,,---,0.00,VWS V14.01,2013-04-04 06:53:00,
2013-04-04 02:54:00,27.3,15.6,30.31,West,262,1.0,1.0,61,0.00,,---,0.00,VWS V14.01,2013-04-04 06:54:00,
2013-04-04 02:55:00,27.3,15.6,30.31,West,262,0.0,1.0,61,0.00,,---,0.00,VWS V14.01,2013-04-04 06:55:00,
2013-04-04 02:56:00,27.3,15.6,30.31,West,262,0.0,1.0,61,0.00,,---,0.00,VWS V14.01,2013-04-04 06:56:00,
2013-04-04 02:57:00,27.3,15.6,30.31,West,262,0.0,0.0,61,0.00,,---,0.00,VWS V14.01,2013-04-04 06:57:00,
2013-04-04 02:58:00,27.3,15.6,30.31,West,262,0.0,0.0,61,0.00,,---,0.00,VWS V14.01,2013-04-04 06:58:00,
2013-04-04 02:59:00,27.2,15.6,30.31,West,262,0.0,0.0,61,0.00,,---,0.00,VWS V14.01,2013-04-04 06:59:00,
2013-04-04 03:00:00,27.3,15.6,30.31,West,262,0.0,0.0,61,0.00,,---,0.00,VWS V14.01,2013-04-04 07:00:00,
2013-04-04 03:01:00,27.2,15.6,30.32,West,262,0.0,0.0,61,0.00,,---,0.00,VWS V14.01,2013-04-04 07:01:00,
2013-04-04 03:02:00,27.2,15.6,30.32,West,262,0.0,0.0,61,0.00,,---,0.00,VWS V14.01,2013-04-04 07:02:00,
2013-04-04 03:03:00,27.2,15.2,30.32,West,262,0.0,0.0,60,0.00,,---,0.00,VWS V14.01,2013-04-04 07:03:00,
2013-04-04 03:04:00,27.2,15.2,30.32,West,262,0.0,0.0,60,0.00,,---,0.00,VWS V14.01,2013-04-04 07:04:00,
2013-04-04 03:05:00,27.2,15.2,30.32,West,262,0.0,0.0,60,0.00,,---,0.00,VWS V14.01,2013-04-04 07:05:00,
2013-04-04 03:07:00,27.0,15.0,30.32,West,262,0.0,0.0,60,0.00,,---,0.00,VWS V14.01,2013-04-04 07:07:00,
2013-04-04 03:08:00,27.0,15.0,30.32,West,262,0.0,0.0,60,0.00,,---,0.00,VWS V14.01,2013-04-04 07:08:00,
2013-04-04 03:09:00,27.0,15.4,30.32,West,262,0.0,0.0,61,0.00,,---,0.00,VWS V14.01,2013-04-04 07:09:00,
2013-04-04 03:10:00,27.0,15.0,30.32,West,262,0.0,0.0,60,0.00,,---,0.00,VWS V14.01,2013-04-04 07:10:00,
2013-04-04 03:12:00,27.0,15.4,30.32,West,262,0.0,0.0,61,0.00,,---,0.00,VWS V14.01,2013-04-04 07:12:00,
2013-04-04 03:13:00,27.0,15.4,30.32,West,262,0.0,0.0,61,0.00,,---,0.00,VWS V14.01,2013-04-04 07:13:00,
2013-04-04 03:14:00,27.0,15.4,30.32,West,262,0.0,0.0,61,0.00,,---,0.00,VWS V14.01,2013-04-04 07:14:00,
2013-04-04 03:15:00,27.0,15.4,30.32,West,262,0.0,0.0,61,0.00,,---,0.00,VWS V14.01,2013-04-04 07:15:00,
2013-04-04 03:16:00,26.9,15.3,30.32,West,262,0.0,0.0,61,0.00,,---,0.00,VWS V14.01,2013-04-04 07:16:00,
2013-04-04 03:17:00,26.9,15.3,30.32,West,262,0.0,0.0,61,0.00,,---,0.00,VWS V14.01,2013-04-04 07:17:00,
2013-04-04 03:18:00,26.9,15.3,30.32,West,262,0.0,0.0,61,0.00,,---,0.00,VWS V14.01,2013-04-04 07:18:00,
2013-04-04 03:19:00,26.9,15.3,30.32,West,262,0.0,1.0,61,0.00,,---,0.00,VWS V14.01,2013-04-04 07:19:00,
2013-04-04 03:20:00,26.9,15.3,30.32,West,262,0.0,0.0,61,0.00,,---,0.00,VWS V14.01,2013-04-04 07:20:00,
2013-04-04 03:21:00,26.9,15.6,30.32,West,262,0.0,0.0,62,0.00,,---,0.00,VWS V14.01,2013-04-04 07:21:00,
2013-04-04 03:22:00,26.7,15.4,30.32,West,262,0.0,0.0,62,0.00,,---,0.00,VWS V14.01,2013-04-04 07:22:00,
2013-04-04 03:23:00,26.7,15.4,30.32,West,262,0.0,0.0,62,0.00,,---,0.00,VWS V14.01,2013-04-04 07:23:00,
2013-04-04 03:24:00,26.7,15.4,30.32,West,262,0.0,0.0,62,0.00,,---,0.00,VWS V14.01,2013-04-04 07:24:00,
2013-04-04 03:25:00,26.7,15.4,30.32,West,262,0.0,0.0,62,0.00,,---,0.00,VWS V14.01,2013-04-04 07:25:00,
2013-04-04 03:26:00,26.7,15.4,30.32,West,262,0.0,0.0,62,0.00,,---,0.00,VWS V14.01,2013-04-04 07:26:00,
2013-04-04 03:27:00,26.7,15.4,30.32,West,262,0.0,0.0,62,0.00,,---,0.00,VWS V14.01,2013-04-04 07:27:00,
2013-04-04 03:28:00,26.6,15.7,30.32,West,262,0.0,0.0,63,0.00,,---,0.00,VWS V14.01,2013-04-04 07:28:00,
2013-04-04 03:29:00,26.6,15.4,30.32,West,262,0.0,0.0,62,0.00,,---,0.00,VWS V14.01,2013-04-04 07:29:00,
2013-04-04 03:30:00,26.6,15.7,30.32,West,262,0.0,0.0,63,0.00,,---,0.00,VWS V14.01,2013-04-04 07:30:00,
2013-04-04 03:31:00,26.6,15.4,30.32,West,262,0.0,0.0,62,0.00,,---,0.00,VWS V14.01,2013-04-04 07:31:00,
2013-04-04 03:32:00,26.6,15.4,30.32,West,262,0.0,0.0,62,0.00,,---,0.00,VWS V14.01,2013-04-04 07:32:00,
2013-04-04 03:33:00,26.6,15.4,30.32,West,262,0.0,0.0,62,0.00,,---,0.00,VWS V14.01,2013-04-04 07:33:00,
2013-04-04 03:34:00,26.6,15.7,30.32,West,262,0.0,0.0,63,0.00,,---,0.00,VWS V14.01,2013-04-04 07:34:00,
2013-04-04 03:35:00,26.6,15.4,30.32,West,262,0.0,0.0,62,0.00,,---,0.00,VWS V14.01,2013-04-04 07:35:00,
2013-04-04 03:36:00,26.4,15.9,30.32,West,262,0.0,1.0,64,0.00,,---,0.00,VWS V14.01,2013-04-04 07:36:00,
2013-04-04 03:37:00,26.4,15.9,30.32,West,262,3.0,3.0,64,0.00,,---,0.00,VWS V14.01,2013-04-04 07:37:00,
2013-04-04 03:38:00,26.4,16.2,30.32,West,262,1.0,3.0,65,0.00,,---,0.00,VWS V14.01,2013-04-04 07:38:00,
2013-04-04 03:39:00,26.4,16.2,30.32,West,262,0.0,1.0,65,0.00,,---,0.00,VWS V14.01,2013-04-04 07:39:00,
2013-04-04 03:40:00,26.4,16.2,30.32,West,262,1.0,1.0,65,0.00,,---,0.00,VWS V14.01,2013-04-04 07:40:00,
2013-04-04 03:41:00,26.3,16.1,30.32,West,262,0.0,1.0,65,0.00,,---,0.00,VWS V14.01,2013-04-04 07:41:00,
2013-04-04 03:42:00,26.3,16.1,30.32,West,262,0.0,0.0,65,0.00,,---,0.00,VWS V14.01,2013-04-04 07:42:00,
2013-04-04 03:43:00,26.3,16.1,30.32,West,262,0.0,1.0,65,0.00,,---,0.00,VWS V14.01,2013-04-04 07:43:00,
2013-04-04 03:44:00,26.3,16.1,30.32,West,262,0.0,0.0,65,0.00,,---,0.00,VWS V14.01,2013-04-04 07:44:00,
2013-04-04 03:45:00,26.3,16.1,30.32,West,262,0.0,0.0,65,0.00,,---,0.00,VWS V14.01,2013-04-04 07:45:00,
2013-04-04 03:46:00,26.3,16.1,30.32,West,262,0.0,0.0,65,0.00,,---,0.00,VWS V14.01,2013-04-04 07:46:00,
2013-04-04 03:47:00,26.1,16.0,30.32,West,262,0.0,1.0,65,0.00,,---,0.00,VWS V14.01,2013-04-04 07:47:00,
2013-04-04 03:48:00,26.1,16.0,30.32,West,262,0.0,1.0,65,0.00,,---,0.00,VWS V14.01,2013-04-04 07:48:00,
2013-04-04 03:49:00,26.1,16.0,30.32,West,262,0.0,0.0,65,0.00,,---,0.00,VWS V14.01,2013-04-04 07:49:00,
2013-04-04 03:50:00,26.1,16.0,30.32,West,262,0.0,0.0,65,0.00,,---,0.00,VWS V14.01,2013-04-04 07:50:00,
2013-04-04 03:51:00,26.1,16.0,30.32,West,262,0.0,0.0,65,0.00,,---,0.00,VWS V14.01,2013-04-04 07:51:00,
2013-04-04 03:52:00,26.1,16.0,30.32,West,262,0.0,1.0,65,0.00,,---,0.00,VWS V14.01,2013-04-04 07:52:00,
2013-04-04 03:53:00,26.1,16.0,30.32,West,262,0.0,0.0,65,0.00,,---,0.00,VWS V14.01,2013-04-04 07:53:00,
2013-04-04 03:54:00,26.1,16.0,30.32,West,262,0.0,0.0,65,0.00,,---,0.00,VWS V14.01,2013-04-04 07:54:00,
2013-04-04 03:55:00,26.1,16.0,30.32,West,262,0.0,0.0,65,0.00,,---,0.00,VWS V14.01,2013-04-04 07:55:00,
2013-04-04 03:56:00,26.1,16.0,30.32,West,262,0.0,1.0,65,0.00,,---,0.00,VWS V14.01,2013-04-04 07:56:00,
2013-04-04 03:57:00,26.1,16.0,30.32,West,262,0.0,0.0,65,0.00,,---,0.00,VWS V14.01,2013-04-04 07:57:00,
2013-04-04 03:58:00,26.0,15.9,30.32,West,262,1.0,1.0,65,0.00,,---,0.00,VWS V14.01,2013-04-04 07:58:00,
2013-04-04 03:59:00,26.0,15.9,30.32,West,262,1.0,1.0,65,0.00,,---,0.00,VWS V14.01,2013-04-04 07:59:00,
2013-04-04 04:00:00,26.0,15.9,30.32,West,262,1.0,1.0,65,0.00,,---,0.00,VWS V14.01,2013-04-04 08:00:00,
2013-04-04 04:01:00,26.0,15.9,30.31,West,262,0.0,1.0,65,0.00,,---,0.00,VWS V14.01,2013-04-04 08:01:00,
2013-04-04 04:02:00,26.0,15.9,30.31,West,262,1.0,3.0,65,0.00,,---,0.00,VWS V14.01,2013-04-04 08:02:00,
2013-04-04 04:03:00,26.0,15.9,30.31,West,262,0.0,2.0,65,0.00,,---,0.00,VWS V14.01,2013-04-04 08:03:00,
2013-04-04 04:04:00,26.0,15.9,30.31,West,262,0.0,0.0,65,0.00,,---,0.00,VWS V14.01,2013-04-04 08:04:00,
2013-04-04 04:05:00,26.0,15.9,30.31,West,262,0.0,0.0,65,0.00,,---,0.00,VWS V14.01,2013-04-04 08:05:00,
2013-04-04 04:06:00,26.0,15.9,30.31,West,262,0.0,0.0,65,0.00,,---,0.00,VWS V14.01,2013-04-04 08:06:00,
2013-04-04 04:07:00,26.0,15.9,30.31,West,262,0.0,0.0,65,0.00,,---,0.00,VWS V14.01,2013-04-04 08:07:00,
2013-04-04 04:08:00,26.0,15.9,30.31,West,262,0.0,1.0,65,0.00,,---,0.00,VWS V14.01,2013-04-04 08:08:00,
2013-04-04 04:09:00,26.0,15.9,30.31,West,262,0.0,1.0,65,0.00,,---,0.00,VWS V14.01,2013-04-04 08:09:00,
2013-04-04 04:10:00,26.0,15.9,30.31,West,262,0.0,1.0,65,0.00,,---,0.00,VWS V14.01,2013-04-04 08:10:00,
2013-04-04 04:11:00,26.0,15.9,30.31,West,262,0.0,0.0,65,0.00,,---,0.00,VWS V14.01,2013-04-04 08:11:00,
2013-04-04 04:12:00,26.0,15.5,30.31,West,262,0.0,0.0,64,0.00,,---,0.00,VWS V14.01,2013-04-04 08:12:00,
2013-04-04 04:13:00,26.0,15.5,30.31,West,262,0.0,0.0,64,0.00,,---,0.00,VWS V14.01,2013-04-04 08:13:00,
2013-04-04 04:14:00,26.0,15.9,30.31,West,262,0.0,1.0,65,0.00,,---,0.00,VWS V14.01,2013-04-04 08:14:00,
2013-04-04 04:15:00,26.0,15.5,30.31,West,262,0.0,1.0,64,0.00,,---,0.00,VWS V14.01,2013-04-04 08:15:00,
2013-04-04 04:16:00,26.0,15.5,30.31,West,262,0.0,0.0,64,0.00,,---,0.00,VWS V14.01,2013-04-04 08:16:00,
2013-04-04 04:17:00,26.0,15.9,30.31,West,262,0.0,0.0,65,0.00,,---,0.00,VWS V14.01,2013-04-04 08:17:00,
2013-04-04 04:18:00,26.0,15.9,30.31,West,262,0.0,0.0,65,0.00,,---,0.00,VWS V14.01,2013-04-04 08:18:00,
2013-04-04 04:19:00,26.0,15.9,30.31,West,262,0.0,0.0,65,0.00,,---,0.00,VWS V14.01,2013-04-04 08:19:00,
2013-04-04 04:20:00,26.0,15.9,30.31,West,262,0.0,0.0,65,0.00,,---,0.00,VWS V14.01,2013-04-04 08:20:00,
2013-04-04 04:21:00,26.0,15.9,30.31,West,262,0.0,0.0,65,0.00,,---,0.00,VWS V14.01,2013-04-04 08:21:00,
2013-04-04 04:22:00,26.0,15.9,30.31,West,262,0.0,0.0,65,0.00,,---,0.00,VWS V14.01,2013-04-04 08:22:00,
2013-04-04 04:23:00,26.0,15.9,30.31,West,262,0.0,0.0,65,0.00,,---,0.00,VWS V14.01,2013-04-04 08:23:00,
2013-04-04 04:24:00,26.0,15.9,30.31,West,262,0.0,0.0,65,0.00,,---,0.00,VWS V14.01,2013-04-04 08:24:00,
2013-04-04 04:25:00,26.0,15.9,30.31,West,262,0.0,0.0,65,0.00,,---,0.00,VWS V14.01,2013-04-04 08:25:00,
2013-04-04 04:26:00,26.0,15.9,30.31,West,262,0.0,0.0,65,0.00,,---,0.00,VWS V14.01,2013-04-04 08:26:00,
2013-04-04 04:27:00,26.0,15.9,30.31,West,262,0.0,0.0,65,0.00,,---,0.00,VWS V14.01,2013-04-04 08:27:00,
2013-04-04 04:28:00,26.0,15.9,30.31,West,262,0.0,0.0,65,0.00,,---,0.00,VWS V14.01,2013-04-04 08:28:00,
2013-04-04 04:29:00,26.0,15.9,30.31,West,262,0.0,0.0,65,0.00,,---,0.00,VWS V14.01,2013-04-04 08:29:00,
2013-04-04 04:30:00,26.0,15.9,30.31,West,262,0.0,0.0,65,0.00,,---,0.00,VWS V14.01,2013-04-04 08:30:00,
2013-04-04 04:31:00,25.8,16.0,30.32,West,262,0.0,2.0,66,0.00,,---,0.00,VWS V14.01,2013-04-04 08:31:00,
2013-04-04 04:32:00,25.8,16.0,30.32,West,262,0.0,1.0,66,0.00,,---,0.00,VWS V14.01,2013-04-04 08:32:00,
2013-04-04 04:33:00,25.8,16.0,30.32,West,262,0.0,1.0,66,0.00,,---,0.00,VWS V14.01,2013-04-04 08:33:00,
2013-04-04 04:34:00,25.8,16.0,30.32,West,262,0.0,0.0,66,0.00,,---,0.00,VWS V14.01,2013-04-04 08:34:00,
2013-04-04 04:35:00,25.8,16.0,30.32,West,262,0.0,0.0,66,0.00,,---,0.00,VWS V14.01,2013-04-04 08:35:00,
2013-04-04 04:36:00,25.8,16.0,30.32,West,262,0.0,0.0,66,0.00,,---,0.00,VWS V14.01,2013-04-04 08:36:00,
2013-04-04 04:37:00,25.8,16.4,30.32,West,262,0.0,1.0,67,0.00,,---,0.00,VWS V14.01,2013-04-04 08:37:00,
2013-04-04 04:38:00,25.8,16.4,30.32,West,262,2.0,2.0,67,0.00,,---,0.00,VWS V14.01,2013-04-04 08:38:00,
2013-04-04 04:39:00,25.8,16.4,30.32,West,262,0.0,2.0,67,0.00,,---,0.00,VWS V14.01,2013-04-04 08:39:00,
2013-04-04 04:40:00,25.8,16.4,30.32,West,262,1.0,2.0,67,0.00,,---,0.00,VWS V14.01,2013-04-04 08:40:00,
2013-04-04 04:41:00,25.8,16.4,30.32,West,262,0.0,0.0,67,0.00,,---,0.00,VWS V14.01,2013-04-04 08:41:00,
2013-04-04 04:42:00,25.8,16.4,30.32,West,262,0.0,0.0,67,0.00,,---,0.00,VWS V14.01,2013-04-04 08:42:00,
2013-04-04 04:43:00,25.8,16.7,30.32,West,262,0.0,0.0,68,0.00,,---,0.00,VWS V14.01,2013-04-04 08:43:00,
2013-04-04 04:44:00,25.7,16.6,30.32,West,262,0.0,0.0,68,0.00,,---,0.00,VWS V14.01,2013-04-04 08:44:00,
2013-04-04 04:45:00,25.8,16.7,30.32,West,262,0.0,0.0,68,0.00,,---,0.00,VWS V14.01,2013-04-04 08:45:00,
2013-04-04 04:46:00,25.7,16.6,30.32,West,262,0.0,0.0,68,0.00,,---,0.00,VWS V14.01,2013-04-04 08:46:00,
2013-04-04 04:47:00,25.7,16.6,30.32,West,262,0.0,0.0,68,0.00,,---,0.00,VWS V14.01,2013-04-04 08:47:00,
2013-04-04 04:48:00,25.7,16.6,30.32,West,262,0.0,1.0,68,0.00,,---,0.00,VWS V14.01,2013-04-04 08:48:00,
2013-04-04 04:49:00,25.6,16.2,30.32,West,262,0.0,0.0,67,0.00,,---,0.00,VWS V14.01,2013-04-04 08:49:00,
2013-04-04 04:50:00,25.7,16.6,30.32,West,262,0.0,0.0,68,0.00,,---,0.00,VWS V14.01,2013-04-04 08:50:00,
2013-04-04 04:51:00,25.6,16.5,30.32,West,262,0.0,0.0,68,0.00,,---,0.00,VWS V14.01,2013-04-04 08:51:00,
2013-04-04 04:52:00,25.6,16.5,30.32,West,262,0.0,1.0,68,0.00,,---,0.00,VWS V14.01,2013-04-04 08:52:00,
2013-04-04 04:53:00,25.6,16.5,30.32,West,262,0.0,0.0,68,0.00,,---,0.00,VWS V14.01,2013-04-04 08:53:00,
2013-04-04 04:54:00,25.6,16.5,30.32,West,262,0.0,0.0,68,0.00,,---,0.00,VWS V14.01,2013-04-04 08:54:00,
2013-04-04 04:55:00,25.6,16.5,30.32,West,262,0.0,0.0,68,0.00,,---,0.00,VWS V14.01,2013-04-04 08:55:00,
2013-04-04 04:56:00,25.6,16.5,30.32,West,262,0.0,0.0,68,0.00,,---,0.00,VWS V14.01,2013-04-04 08:56:00,
2013-04-04 04:57:00,25.4,16.3,30.32,West,262,0.0,0.0,68,0.00,,---,0.00,VWS V14.01,2013-04-04 08:57:00,
2013-04-04 04:58:00,25.4,16.3,30.32,West,262,0.0,0.0,68,0.00,,---,0.00,VWS V14.01,2013-04-04 08:58:00,
2013-04-04 04:59:00,25.4,16.3,30.32,West,262,0.0,0.0,68,0.00,,---,0.00,VWS V14.01,2013-04-04 08:59:00,
2013-04-04 05:00:00,25.4,16.3,30.32,West,262,0.0,0.0,68,0.00,,---,0.00,VWS V14.01,2013-04-04 09:00:00,
2013-04-04 05:01:00,25.4,16.7,30.32,West,262,0.0,1.0,69,0.00,,---,0.00,VWS V14.01,2013-04-04 09:01:00,
2013-04-04 05:02:00,25.4,16.7,30.32,West,262,0.0,0.0,69,0.00,,---,0.00,VWS V14.01,2013-04-04 09:02:00,
2013-04-04 05:03:00,25.4,16.7,30.32,West,262,0.0,0.0,69,0.00,,---,0.00,VWS V14.01,2013-04-04 09:03:00,
2013-04-04 05:04:00,25.4,16.7,30.32,West,262,0.0,0.0,69,0.00,,---,0.00,VWS V14.01,2013-04-04 09:04:00,
2013-04-04 05:05:00,25.4,16.7,30.32,West,262,0.0,0.0,69,0.00,,---,0.00,VWS V14.01,2013-04-04 09:05:00,
2013-04-04 05:06:00,25.3,16.6,30.32,West,262,0.0,0.0,69,0.00,,---,0.00,VWS V14.01,2013-04-04 09:06:00,
2013-04-04 05:07:00,25.3,16.6,30.32,West,262,0.0,1.0,69,0.00,,---,0.00,VWS V14.01,2013-04-04 09:07:00,
2013-04-04 05:08:00,25.3,16.6,30.32,West,262,0.0,1.0,69,0.00,,---,0.00,VWS V14.01,2013-04-04 09:08:00,
2013-04-04 05:09:00,25.3,16.6,30.32,West,262,0.0,1.0,69,0.00,,---,0.00,VWS V14.01,2013-04-04 09:09:00,
2013-04-04 05:10:00,25.3,16.6,30.32,West,262,0.0,1.0,69,0.00,,---,0.00,VWS V14.01,2013-04-04 09:10:00,
2013-04-04 05:11:00,25.3,16.6,30.32,West,262,0.0,1.0,69,0.00,,---,0.00,VWS V14.01,2013-04-04 09:11:00,
2013-04-04 05:12:00,25.1,16.7,30.32,West,262,0.0,1.0,70,0.00,,---,0.00,VWS V14.01,2013-04-04 09:12:00,
2013-04-04 05:13:00,25.1,16.7,30.32,West,262,0.0,1.0,70,0.00,,---,0.00,VWS V14.01,2013-04-04 09:13:00,
2013-04-04 05:14:00,25.1,16.7,30.32,West,262,0.0,0.0,70,0.00,,---,0.00,VWS V14.01,2013-04-04 09:14:00,
2013-04-04 05:15:00,25.1,16.7,30.32,West,262,0.0,0.0,70,0.00,,---,0.00,VWS V14.01,2013-04-04 09:15:00,
2013-04-04 05:16:00,25.1,16.7,30.33,West,262,0.0,0.0,70,0.00,,---,0.00,VWS V14.01,2013-04-04 09:16:00,
2013-04-04 05:17:00,25.1,16.7,30.33,West,262,0.0,0.0,70,0.00,,---,0.00,VWS V14.01,2013-04-04 09:17:00,
2013-04-04 05:18:00,25.1,16.7,30.33,West,262,0.0,2.0,70,0.00,,---,0.00,VWS V14.01,2013-04-04 09:18:00,
2013-04-04 05:19:00,25.1,16.7,30.33,West,262,1.0,1.0,70,0.00,,---,0.00,VWS V14.01,2013-04-04 09:19:00,
2013-04-04 05:20:00,25.1,16.7,30.33,West,262,0.0,0.0,70,0.00,,---,0.00,VWS V14.01,2013-04-04 09:20:00,
2013-04-04 05:21:00,25.1,16.7,30.33,West,262,0.0,1.0,70,0.00,,---,0.00,VWS V14.01,2013-04-04 09:21:00,
2013-04-04 05:22:00,25.1,16.7,30.33,West,262,0.0,1.0,70,0.00,,---,0.00,VWS V14.01,2013-04-04 09:22:00,
2013-04-04 05:23:00,25.1,17.0,30.33,West,262,0.0,0.0,71,0.00,,---,0.00,VWS V14.01,2013-04-04 09:23:00,
2013-04-04 05:24:00,25.1,17.0,30.33,West,262,0.0,0.0,71,0.00,,---,0.00,VWS V14.01,2013-04-04 09:24:00,
2013-04-04 05:25:00,25.1,17.0,30.33,West,262,0.0,0.0,71,0.00,,---,0.00,VWS V14.01,2013-04-04 09:25:00,
2013-04-04 05:26:00,25.1,17.0,30.33,West,263,1.0,2.0,71,0.00,,---,0.00,VWS V14.01,2013-04-04 09:26:00,
2013-04-04 05:27:00,25.1,16.7,30.33,West,263,0.0,1.0,70,0.00,,---,0.00,VWS V14.01,2013-04-04 09:27:00,
2013-04-04 05:28:00,25.1,16.7,30.33,West,263,1.0,1.0,70,0.00,,---,0.00,VWS V14.01,2013-04-04 09:28:00,
2013-04-04 05:29:00,25.1,16.7,30.33,West,263,1.0,1.0,70,0.00,,---,0.00,VWS V14.01,2013-04-04 09:29:00,
2013-04-04 05:30:00,25.1,16.7,30.33,West,263,0.0,1.0,70,0.00,,---,0.00,VWS V14.01,2013-04-04 09:30:00,
2013-04-04 05:31:00,25.1,16.7,30.32,West,263,0.0,1.0,70,0.00,,---,0.00,VWS V14.01,2013-04-04 09:31:00,
2013-04-04 05:32:00,25.1,16.7,30.32,West,263,0.0,2.0,70,0.00,,---,0.00,VWS V14.01,2013-04-04 09:32:00,
2013-04-04 05:33:00,25.1,16.7,30.32,West,263,1.0,1.0,70,0.00,,---,0.00,VWS V14.01,2013-04-04 09:33:00,
2013-04-04 05:34:00,25.1,16.7,30.32,West,263,2.0,2.0,70,0.00,,---,0.00,VWS V14.01,2013-04-04 09:34:00,
2013-04-04 05:35:00,25.1,16.7,30.32,West,263,0.0,1.0,70,0.00,,---,0.00,VWS V14.01,2013-04-04 09:35:00,
2013-04-04 05:36:00,25.1,16.7,30.32,West,263,0.0,1.0,70,0.00,,---,0.00,VWS V14.01,2013-04-04 09:36:00,
2013-04-04 05:37:00,25.1,17.0,30.32,West,263,0.0,0.0,71,0.00,,---,0.00,VWS V14.01,2013-04-04 09:37:00,
2013-04-04 05:38:00,25.1,17.0,30.32,West,263,0.0,1.0,71,0.00,,---,0.00,VWS V14.01,2013-04-04 09:38:00,
2013-04-04 05:39:00,25.0,16.9,30.32,West,263,1.0,4.0,71,0.00,,---,0.00,VWS V14.01,2013-04-04 09:39:00,
2013-04-04 05:40:00,25.0,16.9,30.32,West,263,4.0,4.0,71,0.00,,---,0.00,VWS V14.01,2013-04-04 09:40:00,
2013-04-04 05:41:00,25.0,16.9,30.32,West,263,0.0,2.0,71,0.00,,---,0.00,VWS V14.01,2013-04-04 09:41:00,
2013-04-04 05:42:00,25.0,16.9,30.32,West,263,1.0,2.0,71,0.00,,---,0.00,VWS V14.01,2013-04-04 09:42:00,
2013-04-04 05:43:00,25.0,16.9,30.32,West,263,0.0,2.0,71,0.00,,---,0.00,VWS V14.01,2013-04-04 09:43:00,
2013-04-04 05:44:00,25.0,16.9,30.32,West,263,4.0,4.0,71,0.00,,---,0.00,VWS V14.01,2013-04-04 09:44:00,
2013-04-04 05:45:00,25.0,16.9,30.32,West,263,0.0,0.0,71,0.00,,---,0.00,VWS V14.01,2013-04-04 09:45:00,
2013-04-04 05:46:00,25.0,17.3,30.32,West,263,0.0,0.0,72,0.00,,---,0.00,VWS V14.01,2013-04-04 09:46:00,
2013-04-04 05:47:00,25.0,16.9,30.32,West,263,0.0,0.0,71,0.00,,---,0.00,VWS V14.01,2013-04-04 09:47:00,
2013-04-04 05:48:00,25.0,16.9,30.32,West,263,0.0,3.0,71,0.00,,---,0.00,VWS V14.01,2013-04-04 09:48:00,
2013-04-04 05:49:00,25.0,16.9,30.32,West,263,0.0,2.0,71,0.00,,---,0.00,VWS V14.01,2013-04-04 09:49:00,
2013-04-04 05:50:00,25.0,16.9,30.32,West,263,0.0,2.0,71,0.00,,---,0.00,VWS V14.01,2013-04-04 09:50:00,
2013-04-04 05:51:00,25.0,16.9,30.32,West,263,0.0,0.0,71,0.00,,---,0.00,VWS V14.01,2013-04-04 09:51:00,
2013-04-04 05:52:00,25.0,16.9,30.32,West,263,0.0,0.0,71,0.00,,---,0.00,VWS V14.01,2013-04-04 09:52:00,
2013-04-04 05:53:00,25.0,16.9,30.32,West,263,0.0,0.0,71,0.00,,---,0.00,VWS V14.01,2013-04-04 09:53:00,
2013-04-04 05:54:00,25.0,16.9,30.32,West,263,0.0,0.0,71,0.00,,---,0.00,VWS V14.01,2013-04-04 09:54:00,
2013-04-04 05:55:00,25.0,16.9,30.32,West,263,0.0,0.0,71,0.00,,---,0.00,VWS V14.01,2013-04-04 09:55:00,
2013-04-04 05:56:00,25.0,16.9,30.32,West,263,0.0,0.0,71,0.00,,---,0.00,VWS V14.01,2013-04-04 09:56:00,
2013-04-04 05:59:00,25.0,16.9,30.32,West,263,0.0,0.0,71,0.00,,---,0.00,VWS V14.01,2013-04-04 09:59:00,
2013-04-04 06:00:00,25.0,16.9,30.32,West,263,0.0,0.0,71,0.00,,---,0.00,VWS V14.01,2013-04-04 10:00:00,
2013-04-04 06:01:00,25.0,16.9,30.31,West,263,0.0,0.0,71,0.00,,---,0.00,VWS V14.01,2013-04-04 10:01:00,
2013-04-04 06:02:00,25.0,16.9,30.31,West,263,0.0,0.0,71,0.00,,---,0.00,VWS V14.01,2013-04-04 10:02:00,
2013-04-04 06:03:00,25.0,16.9,30.31,West,263,0.0,1.0,71,0.00,,---,0.00,VWS V14.01,2013-04-04 10:03:00,
2013-04-04 06:04:00,25.0,16.9,30.31,West,263,0.0,1.0,71,0.00,,---,0.00,VWS V14.01,2013-04-04 10:04:00,
2013-04-04 06:05:00,25.0,16.9,30.31,West,263,0.0,0.0,71,0.00,,---,0.00,VWS V14.01,2013-04-04 10:05:00,
2013-04-04 06:06:00,25.0,16.9,30.31,West,263,0.0,0.0,71,0.00,,---,0.00,VWS V14.01,2013-04-04 10:06:00,
2013-04-04 06:07:00,25.0,16.9,30.31,West,263,0.0,0.0,71,0.00,,---,0.00,VWS V14.01,2013-04-04 10:07:00,
2013-04-04 06:08:00,25.0,16.9,30.31,West,263,0.0,0.0,71,0.00,,---,0.00,VWS V14.01,2013-04-04 10:08:00,
2013-04-04 06:09:00,25.0,16.9,30.31,West,263,0.0,0.0,71,0.00,,---,0.00,VWS V14.01,2013-04-04 10:09:00,
2013-04-04 06:10:00,25.0,16.9,30.31,West,263,0.0,0.0,71,0.00,,---,0.00,VWS V14.01,2013-04-04 10:10:00,
2013-04-04 06:11:00,25.0,16.9,30.31,West,263,0.0,1.0,71,0.00,,---,0.00,VWS V14.01,2013-04-04 10:11:00,
2013-04-04 06:12:00,25.0,16.9,30.31,West,263,0.0,0.0,71,0.00,,---,0.00,VWS V14.01,2013-04-04 10:12:00,
2013-04-04 06:13:00,25.0,16.9,30.31,West,263,0.0,1.0,71,0.00,,---,0.00,VWS V14.01,2013-04-04 10:13:00,
2013-04-04 06:14:00,25.0,16.9,30.31,West,263,0.0,0.0,71,0.00,,---,0.00,VWS V14.01,2013-04-04 10:14:00,
2013-04-04 06:15:00,25.0,16.9,30.31,West,263,0.0,0.0,71,0.00,,---,0.00,VWS V14.01,2013-04-04 10:15:00,
2013-04-04 06:16:00,25.0,16.9,30.32,West,263,0.0,0.0,71,0.00,,---,0.00,VWS V14.01,2013-04-04 10:16:00,
2013-04-04 06:17:00,25.0,16.9,30.32,West,263,0.0,0.0,71,0.00,,---,0.00,VWS V14.01,2013-04-04 10:17:00,
2013-04-04 06:18:00,25.0,16.9,30.32,West,263,0.0,0.0,71,0.00,,---,0.00,VWS V14.01,2013-04-04 10:18:00,
2013-04-04 06:19:00,25.0,16.9,30.32,West,263,0.0,0.0,71,0.00,,---,0.00,VWS V14.01,2013-04-04 10:19:00,
2013-04-04 06:20:00,25.0,16.9,30.32,West,263,0.0,0.0,71,0.00,,---,0.00,VWS V14.01,2013-04-04 10:20:00,
2013-04-04 06:21:00,25.0,16.9,30.32,West,263,0.0,0.0,71,0.00,,---,0.00,VWS V14.01,2013-04-04 10:21:00,
2013-04-04 06:22:00,25.0,17.3,30.32,West,263,0.0,0.0,72,0.00,,---,0.00,VWS V14.01,2013-04-04 10:22:00,
2013-04-04 06:23:00,25.0,17.3,30.32,West,263,0.0,0.0,72,0.00,,---,0.00,VWS V14.01,2013-04-04 10:23:00,
2013-04-04 06:24:00,24.8,17.1,30.32,West,263,0.0,0.0,72,0.00,,---,0.00,VWS V14.01,2013-04-04 10:24:00,
2013-04-04 06:25:00,24.8,17.1,30.32,West,263,0.0,0.0,72,0.00,,---,0.00,VWS V14.01,2013-04-04 10:25:00,
2013-04-04 06:26:00,24.8,17.1,30.32,West,263,0.0,1.0,72,0.00,,---,0.00,VWS V14.01,2013-04-04 10:26:00,
2013-04-04 06:27:00,24.8,17.1,30.32,West,263,0.0,0.0,72,0.00,,---,0.00,VWS V14.01,2013-04-04 10:27:00,
2013-04-04 06:28:00,24.8,17.1,30.32,West,263,0.0,0.0,72,0.00,,---,0.00,VWS V14.01,2013-04-04 10:28:00,
2013-04-04 06:29:00,24.8,17.1,30.32,West,263,0.0,0.0,72,0.00,,---,0.00,VWS V14.01,2013-04-04 10:29:00,
2013-04-04 06:30:00,24.8,17.1,30.32,West,263,0.0,0.0,72,0.00,,---,0.00,VWS V14.01,2013-04-04 10:30:00,
2013-04-04 06:31:00,24.8,17.1,30.33,West,263,0.0,0.0,72,0.00,,---,0.00,VWS V14.01,2013-04-04 10:31:00,
2013-04-04 06:32:00,24.8,17.1,30.33,West,263,0.0,0.0,72,0.00,,---,0.00,VWS V14.01,2013-04-04 10:32:00,
2013-04-04 06:33:00,24.8,17.1,30.33,West,263,0.0,0.0,72,0.00,,---,0.00,VWS V14.01,2013-04-04 10:33:00,
2013-04-04 06:34:00,24.8,17.1,30.33,West,263,0.0,0.0,72,0.00,,---,0.00,VWS V14.01,2013-04-04 10:34:00,
2013-04-04 06:35:00,24.8,17.1,30.33,West,263,0.0,0.0,72,0.00,,---,0.00,VWS V14.01,2013-04-04 10:35:00,
2013-04-04 06:36:00,24.8,17.1,30.33,West,263,0.0,0.0,72,0.00,,---,0.00,VWS V14.01,2013-04-04 10:36:00,
2013-04-04 06:37:00,24.8,17.1,30.33,West,263,0.0,0.0,72,0.00,,---,0.00,VWS V14.01,2013-04-04 10:37:00,
2013-04-04 06:38:00,24.8,17.1,30.33,West,263,0.0,0.0,72,0.00,,---,0.00,VWS V14.01,2013-04-04 10:38:00,
2013-04-04 06:39:00,24.8,17.1,30.33,West,263,0.0,0.0,72,0.00,,---,0.00,VWS V14.01,2013-04-04 10:39:00,
2013-04-04 06:40:00,24.8,17.1,30.33,West,263,0.0,0.0,72,0.00,,---,0.00,VWS V14.01,2013-04-04 10:40:00,
2013-04-04 06:41:00,24.8,17.1,30.33,West,263,0.0,0.0,72,0.00,,---,0.00,VWS V14.01,2013-04-04 10:41:00,
2013-04-04 06:42:00,24.8,17.1,30.33,West,263,0.0,0.0,72,0.00,,---,0.00,VWS V14.01,2013-04-04 10:42:00,
2013-04-04 06:43:00,24.8,17.1,30.33,West,263,0.0,0.0,72,0.00,,---,0.00,VWS V14.01,2013-04-04 10:43:00,
2013-04-04 06:44:00,25.0,17.3,30.33,West,263,0.0,0.0,72,0.00,,---,0.00,VWS V14.01,2013-04-04 10:44:00,
2013-04-04 06:45:00,25.0,17.3,30.33,West,263,0.0,0.0,72,0.00,,---,0.00,VWS V14.01,2013-04-04 10:45:00,
2013-04-04 06:46:00,25.0,17.3,30.33,West,263,0.0,0.0,72,0.00,,---,0.00,VWS V14.01,2013-04-04 10:46:00,
2013-04-04 06:47:00,25.0,17.3,30.33,West,263,0.0,0.0,72,0.00,,---,0.00,VWS V14.01,2013-04-04 10:47:00,
2013-04-04 06:48:00,25.0,17.3,30.33,West,263,0.0,0.0,72,0.00,,---,0.00,VWS V14.01,2013-04-04 10:48:00,
2013-04-04 06:49:00,25.0,17.3,30.33,West,263,0.0,0.0,72,0.00,,---,0.00,VWS V14.01,2013-04-04 10:49:00,
2013-04-04 06:50:00,25.0,17.3,30.33,West,263,0.0,0.0,72,0.00,,---,0.00,VWS V14.01,2013-04-04 10:50:00,
2013-04-04 06:51:00,25.0,17.6,30.33,West,263,0.0,0.0,73,0.00,,---,0.00,VWS V14.01,2013-04-04 10:51:00,
2013-04-04 06:52:00,25.0,17.6,30.33,West,263,0.0,0.0,73,0.00,,---,0.00,VWS V14.01,2013-04-04 10:52:00,
2013-04-04 06:53:00,24.8,17.4,30.33,West,263,0.0,0.0,73,0.00,,---,0.00,VWS V14.01,2013-04-04 10:53:00,
2013-04-04 06:54:00,24.8,17.4,30.33,West,263,0.0,0.0,73,0.00,,---,0.00,VWS V14.01,2013-04-04 10:54:00,
2013-04-04 06:55:00,24.8,17.4,30.33,West,263,0.0,0.0,73,0.00,,---,0.00,VWS V14.01,2013-04-04 10:55:00,
2013-04-04 06:56:00,24.8,17.4,30.33,West,263,0.0,0.0,73,0.00,,---,0.00,VWS V14.01,2013-04-04 10:56:00,
2013-04-04 06:57:00,24.8,17.4,30.33,West,263,0.0,0.0,73,0.00,,---,0.00,VWS V14.01,2013-04-04 10:57:00,
2013-04-04 06:58:00,24.8,17.4,30.33,West,263,0.0,0.0,73,0.00,,---,0.00,VWS V14.01,2013-04-04 10:58:00,
2013-04-04 06:59:00,24.8,17.4,30.33,West,263,0.0,0.0,73,0.00,,---,0.00,VWS V14.01,2013-04-04 10:59:00,
2013-04-04 07:00:00,24.8,17.4,30.33,West,263,0.0,0.0,73,0.00,,---,0.00,VWS V14.01,2013-04-04 11:00:00,
2013-04-04 07:01:00,24.8,17.4,30.33,West,263,0.0,0.0,73,0.00,,---,0.00,VWS V14.01,2013-04-04 11:01:00,
2013-04-04 07:02:00,24.8,17.4,30.33,West,263,0.0,0.0,73,0.00,,---,0.00,VWS V14.01,2013-04-04 11:02:00,
2013-04-04 07:03:00,24.8,17.4,30.33,West,263,0.0,0.0,73,0.00,,---,0.00,VWS V14.01,2013-04-04 11:03:00,
2013-04-04 07:04:00,24.8,17.4,30.33,West,263,0.0,0.0,73,0.00,,---,0.00,VWS V14.01,2013-04-04 11:04:00,
2013-04-04 07:05:00,24.8,17.4,30.33,West,263,0.0,0.0,73,0.00,,---,0.00,VWS V14.01,2013-04-04 11:05:00,
2013-04-04 07:06:00,24.8,17.4,30.33,West,263,0.0,0.0,73,0.00,,---,0.00,VWS V14.01,2013-04-04 11:06:00,
2013-04-04 07:07:00,24.8,17.4,30.33,West,263,0.0,0.0,73,0.00,,---,0.00,VWS V14.01,2013-04-04 11:07:00,
2013-04-04 07:08:00,24.8,17.7,30.33,West,263,0.0,0.0,74,0.00,,---,0.00,VWS V14.01,2013-04-04 11:08:00,
2013-04-04 07:09:00,24.8,17.7,30.33,West,263,0.0,0.0,74,0.00,,---,0.00,VWS V14.01,2013-04-04 11:09:00,
2013-04-04 07:10:00,24.8,17.7,30.33,West,263,0.0,0.0,74,0.00,,---,0.00,VWS V14.01,2013-04-04 11:10:00,
2013-04-04 07:11:00,24.8,17.7,30.33,West,263,0.0,0.0,74,0.00,,---,0.00,VWS V14.01,2013-04-04 11:11:00,
2013-04-04 07:12:00,24.8,17.7,30.33,West,263,0.0,0.0,74,0.00,,---,0.00,VWS V14.01,2013-04-04 11:12:00,
2013-04-04 07:13:00,24.8,17.7,30.33,West,263,0.0,0.0,74,0.00,,---,0.00,VWS V14.01,2013-04-04 11:13:00,
2013-04-04 07:14:00,25.0,17.9,30.33,West,263,0.0,0.0,74,0.00,,---,0.00,VWS V14.01,2013-04-04 11:14:00,
2013-04-04 07:15:00,24.8,17.7,30.33,West,263,0.0,0.0,74,0.00,,---,0.00,VWS V14.01,2013-04-04 11:15:00,
2013-04-04 07:16:00,25.0,17.9,30.34,West,263,0.0,0.0,74,0.00,,---,0.00,VWS V14.01,2013-04-04 11:16:00,
2013-04-04 07:17:00,25.0,17.9,30.34,West,263,0.0,0.0,74,0.00,,---,0.00,VWS V14.01,2013-04-04 11:17:00,
2013-04-04 07:18:00,25.0,17.9,30.34,West,263,0.0,0.0,74,0.00,,---,0.00,VWS V14.01,2013-04-04 11:18:00,
2013-04-04 07:19:00,25.0,17.9,30.34,West,263,0.0,0.0,74,0.00,,---,0.00,VWS V14.01,2013-04-04 11:19:00,
2013-04-04 07:20:00,25.0,17.9,30.34,West,263,0.0,0.0,74,0.00,,---,0.00,VWS V14.01,2013-04-04 11:20:00,
2013-04-04 07:21:00,25.0,17.9,30.34,West,263,0.0,0.0,74,0.00,,---,0.00,VWS V14.01,2013-04-04 11:21:00,
2013-04-04 07:22:00,25.0,17.9,30.34,West,263,0.0,0.0,74,0.00,,---,0.00,VWS V14.01,2013-04-04 11:22:00,
2013-04-04 07:23:00,25.0,17.9,30.34,West,263,0.0,0.0,74,0.00,,---,0.00,VWS V14.01,2013-04-04 11:23:00,
2013-04-04 07:24:00,25.0,17.9,30.34,West,263,0.0,0.0,74,0.00,,---,0.00,VWS V14.01,2013-04-04 11:24:00,
2013-04-04 07:25:00,25.0,17.9,30.34,West,263,0.0,0.0,74,0.00,,---,0.00,VWS V14.01,2013-04-04 11:25:00,
2013-04-04 07:26:00,25.1,18.0,30.34,West,263,0.0,0.0,74,0.00,,---,0.00,VWS V14.01,2013-04-04 11:26:00,
2013-04-04 07:27:00,25.1,18.0,30.34,West,263,0.0,0.0,74,0.00,,---,0.00,VWS V14.01,2013-04-04 11:27:00,
2013-04-04 07:28:00,25.1,18.0,30.34,West,263,0.0,0.0,74,0.00,,---,0.00,VWS V14.01,2013-04-04 11:28:00,
2013-04-04 07:29:00,25.1,18.0,30.34,West,263,0.0,0.0,74,0.00,,---,0.00,VWS V14.01,2013-04-04 11:29:00,
2013-04-04 07:30:00,25.1,18.0,30.34,West,263,0.0,0.0,74,0.00,,---,0.00,VWS V14.01,2013-04-04 11:30:00,
2013-04-04 07:31:00,25.1,18.0,30.35,West,263,0.0,0.0,74,0.00,,---,0.00,VWS V14.01,2013-04-04 11:31:00,
2013-04-04 07:32:00,25.1,18.0,30.35,West,263,0.0,0.0,74,0.00,,---,0.00,VWS V14.01,2013-04-04 11:32:00,
2013-04-04 07:33:00,25.1,18.0,30.35,West,263,0.0,0.0,74,0.00,,---,0.00,VWS V14.01,2013-04-04 11:33:00,
2013-04-04 07:34:00,25.3,18.2,30.35,West,263,0.0,0.0,74,0.00,,---,0.00,VWS V14.01,2013-04-04 11:34:00,
2013-04-04 07:35:00,25.3,18.2,30.35,West,263,0.0,0.0,74,0.00,,---,0.00,VWS V14.01,2013-04-04 11:35:00,
2013-04-04 07:36:00,25.3,18.2,30.35,West,263,0.0,0.0,74,0.00,,---,0.00,VWS V14.01,2013-04-04 11:36:00,
2013-04-04 07:37:00,25.3,18.2,30.35,West,263,0.0,0.0,74,0.00,,---,0.00,VWS V14.01,2013-04-04 11:37:00,
2013-04-04 07:38:00,25.3,18.2,30.35,West,263,0.0,0.0,74,0.00,,---,0.00,VWS V14.01,2013-04-04 11:38:00,
2013-04-04 07:39:00,25.4,18.3,30.35,West,263,0.0,0.0,74,0.00,,---,0.00,VWS V14.01,2013-04-04 11:39:00,
2013-04-04 07:40:00,25.3,18.2,30.35,West,263,0.0,0.0,74,0.00,,---,0.00,VWS V14.01,2013-04-04 11:40:00,
2013-04-04 07:41:00,25.4,18.6,30.35,West,263,1.0,1.0,75,0.00,,---,0.00,VWS V14.01,2013-04-04 11:41:00,
2013-04-04 07:42:00,25.4,18.6,30.35,West,263,0.0,1.0,75,0.00,,---,0.00,VWS V14.01,2013-04-04 11:42:00,
2013-04-04 07:43:00,25.6,18.8,30.35,West,263,0.0,0.0,75,0.00,,---,0.00,VWS V14.01,2013-04-04 11:43:00,
2013-04-04 07:44:00,25.6,18.5,30.35,West,263,0.0,0.0,74,0.00,,---,0.00,VWS V14.01,2013-04-04 11:44:00,
2013-04-04 07:45:00,25.6,18.8,30.35,West,263,0.0,0.0,75,0.00,,---,0.00,VWS V14.01,2013-04-04 11:45:00,
2013-04-04 07:46:00,25.6,18.5,30.35,West,263,0.0,0.0,74,0.00,,---,0.00,VWS V14.01,2013-04-04 11:46:00,
2013-04-04 07:47:00,25.6,18.5,30.35,West,263,0.0,0.0,74,0.00,,---,0.00,VWS V14.01,2013-04-04 11:47:00,
2013-04-04 07:48:00,25.7,18.6,30.35,West,263,0.0,0.0,74,0.00,,---,0.00,VWS V14.01,2013-04-04 11:48:00,
2013-04-04 07:49:00,25.7,18.6,30.35,West,263,0.0,0.0,74,0.00,,---,0.00,VWS V14.01,2013-04-04 11:49:00,
2013-04-04 07:50:00,25.7,18.6,30.35,West,263,0.0,0.0,74,0.00,,---,0.00,VWS V14.01,2013-04-04 11:50:00,
2013-04-04 07:51:00,25.8,18.7,30.35,West,263,0.0,0.0,74,0.00,,---,0.00,VWS V14.01,2013-04-04 11:51:00,
2013-04-04 07:52:00,25.8,18.7,30.35,West,263,0.0,0.0,74,0.00,,---,0.00,VWS V14.01,2013-04-04 11:52:00,
2013-04-04 07:53:00,25.8,18.7,30.35,West,263,0.0,0.0,74,0.00,,---,0.00,VWS V14.01,2013-04-04 11:53:00,
2013-04-04 07:54:00,25.8,18.7,30.35,West,263,0.0,0.0,74,0.00,,---,0.00,VWS V14.01,2013-04-04 11:54:00,
2013-04-04 07:55:00,25.8,18.7,30.35,West,263,0.0,0.0,74,0.00,,---,0.00,VWS V14.01,2013-04-04 11:55:00,
2013-04-04 07:56:00,26.0,18.9,30.35,West,263,0.0,1.0,74,0.00,,---,0.00,VWS V14.01,2013-04-04 11:56:00,
2013-04-04 07:57:00,26.0,18.9,30.35,West,263,0.0,0.0,74,0.00,,---,0.00,VWS V14.01,2013-04-04 11:57:00,
2013-04-04 07:58:00,26.0,18.9,30.35,West,263,0.0,0.0,74,0.00,,---,0.00,VWS V14.01,2013-04-04 11:58:00,
2013-04-04 07:59:00,26.1,18.6,30.35,West,263,0.0,0.0,73,0.00,,---,0.00,VWS V14.01,2013-04-04 11:59:00,
2013-04-04 08:00:00,26.1,18.6,30.35,West,263,0.0,0.0,73,0.00,,---,0.00,VWS V14.01,2013-04-04 12:00:00,
2013-04-04 08:01:00,26.1,18.6,30.36,West,263,0.0,0.0,73,0.00,,---,0.00,VWS V14.01,2013-04-04 12:01:00,
2013-04-04 08:02:00,26.3,18.8,30.36,West,263,0.0,0.0,73,0.00,,---,0.00,VWS V14.01,2013-04-04 12:02:00,
2013-04-04 08:03:00,26.3,19.2,30.36,West,267,0.0,0.0,74,0.00,,---,0.00,VWS V14.01,2013-04-04 12:03:00,
2013-04-04 08:04:00,26.3,19.2,30.36,WSW,254,0.0,0.0,74,0.00,,---,0.00,VWS V14.01,2013-04-04 12:04:00,
2013-04-04 08:05:00,26.3,19.1,30.36,WSW,254,0.0,0.0,74,0.00,,---,0.00,VWS V14.01,2013-04-04 12:05:00,
2013-04-04 08:06:00,26.4,19.2,30.36,WSW,254,0.0,0.0,74,0.00,,---,0.00,VWS V14.01,2013-04-04 12:06:00,
2013-04-04 08:07:00,26.4,19.2,30.36,WSW,254,0.0,0.0,74,0.00,,---,0.00,VWS V14.01,2013-04-04 12:07:00,
2013-04-04 08:08:00,26.4,19.2,30.36,WSW,254,0.0,0.0,74,0.00,,---,0.00,VWS V14.01,2013-04-04 12:08:00,
2013-04-04 08:09:00,26.6,19.4,30.36,WSW,254,0.0,0.0,74,0.00,,---,0.00,VWS V14.01,2013-04-04 12:09:00,
2013-04-04 08:10:00,26.6,19.4,30.36,WSW,254,0.0,0.0,74,0.00,,---,0.00,VWS V14.01,2013-04-04 12:10:00,
2013-04-04 08:11:00,26.7,19.5,30.36,WSW,254,0.0,0.0,74,0.00,,---,0.00,VWS V14.01,2013-04-04 12:11:00,
2013-04-04 08:12:00,26.7,19.5,30.36,WSW,254,0.0,0.0,74,0.00,,---,0.00,VWS V14.01,2013-04-04 12:12:00,
2013-04-04 08:13:00,26.7,19.5,30.36,WSW,254,0.0,0.0,74,0.00,,---,0.00,VWS V14.01,2013-04-04 12:13:00,
2013-04-04 08:14:00,26.9,19.7,30.36,WSW,254,0.0,0.0,74,0.00,,---,0.00,VWS V14.01,2013-04-04 12:14:00,
2013-04-04 08:15:00,26.9,19.7,30.36,WSW,254,0.0,0.0,74,0.00,,---,0.00,VWS V14.01,2013-04-04 12:15:00,
2013-04-04 08:16:00,27.0,19.5,30.37,WSW,254,0.0,0.0,73,0.00,,---,0.00,VWS V14.01,2013-04-04 12:16:00,
2013-04-04 08:17:00,27.0,19.5,30.37,WSW,254,0.0,0.0,73,0.00,,---,0.00,VWS V14.01,2013-04-04 12:17:00,
2013-04-04 08:18:00,27.2,19.7,30.37,WSW,254,0.0,0.0,73,0.00,,---,0.00,VWS V14.01,2013-04-04 12:18:00,
2013-04-04 08:19:00,27.2,19.7,30.37,WSW,254,0.0,0.0,73,0.00,,---,0.00,VWS V14.01,2013-04-04 12:19:00,
2013-04-04 08:20:00,27.2,19.7,30.37,WSW,254,0.0,0.0,73,0.00,,---,0.00,VWS V14.01,2013-04-04 12:20:00,
2013-04-04 08:21:00,27.3,19.8,30.37,WSW,254,0.0,0.0,73,0.00,,---,0.00,VWS V14.01,2013-04-04 12:21:00,
2013-04-04 08:22:00,27.5,20.0,30.37,WSW,254,0.0,0.0,73,0.00,,---,0.00,VWS V14.01,2013-04-04 12:22:00,
2013-04-04 08:23:00,27.5,20.0,30.37,WSW,254,0.0,0.0,73,0.00,,---,0.00,VWS V14.01,2013-04-04 12:23:00,
2013-04-04 08:24:00,27.6,20.1,30.37,WSW,254,0.0,0.0,73,0.00,,---,0.00,VWS V14.01,2013-04-04 12:24:00,
2013-04-04 08:25:00,27.5,20.0,30.37,WSW,254,0.0,0.0,73,0.00,,---,0.00,VWS V14.01,2013-04-04 12:25:00,
2013-04-04 08:26:00,27.8,20.0,30.37,WSW,254,0.0,0.0,72,0.00,,---,0.00,VWS V14.01,2013-04-04 12:26:00,
2013-04-04 08:27:00,27.8,20.0,30.37,WSW,254,0.0,0.0,72,0.00,,---,0.00,VWS V14.01,2013-04-04 12:27:00,
2013-04-04 08:28:00,27.9,20.1,30.37,WSW,254,0.0,0.0,72,0.00,,---,0.00,VWS V14.01,2013-04-04 12:28:00,
2013-04-04 08:29:00,27.9,20.1,30.37,WSW,254,0.0,0.0,72,0.00,,---,0.00,VWS V14.01,2013-04-04 12:29:00,
2013-04-04 08:30:00,27.9,20.1,30.37,WSW,254,0.0,0.0,72,0.00,,---,0.00,VWS V14.01,2013-04-04 12:30:00,
2013-04-04 08:31:00,28.1,19.9,30.36,WSW,254,0.0,0.0,71,0.00,,---,0.00,VWS V14.01,2013-04-04 12:31:00,
2013-04-04 08:32:00,28.2,20.0,30.36,WSW,254,0.0,0.0,71,0.00,,---,0.00,VWS V14.01,2013-04-04 12:32:00,
2013-04-04 08:33:00,28.2,20.0,30.36,WSW,254,0.0,0.0,71,0.00,,---,0.00,VWS V14.01,2013-04-04 12:33:00,
2013-04-04 08:34:00,28.2,19.7,30.36,WSW,254,0.0,0.0,70,0.00,,---,0.00,VWS V14.01,2013-04-04 12:34:00,
2013-04-04 08:35:00,28.2,19.7,30.36,WSW,254,0.0,0.0,70,0.00,,---,0.00,VWS V14.01,2013-04-04 12:35:00,
2013-04-04 08:36:00,28.4,19.9,30.36,WSW,254,0.0,0.0,70,0.00,,---,0.00,VWS V14.01,2013-04-04 12:36:00,
2013-04-04 08:37:00,28.5,20.0,30.36,WSW,254,0.0,0.0,70,0.00,,---,0.00,VWS V14.01,2013-04-04 12:37:00,
2013-04-04 08:38:00,28.5,20.0,30.36,WSW,254,0.0,0.0,70,0.00,,---,0.00,VWS V14.01,2013-04-04 12:38:00,
2013-04-04 08:39:00,28.7,20.2,30.36,WSW,254,0.0,0.0,70,0.00,,---,0.00,VWS V14.01,2013-04-04 12:39:00,
2013-04-04 08:40:00,28.7,20.2,30.36,WSW,254,0.0,0.0,70,0.00,,---,0.00,VWS V14.01,2013-04-04 12:40:00,
2013-04-04 08:41:00,28.8,19.9,30.36,WSW,254,0.0,0.0,69,0.00,,---,0.00,VWS V14.01,2013-04-04 12:41:00,
2013-04-04 08:42:00,29.0,20.1,30.36,WSW,254,0.0,0.0,69,0.00,,---,0.00,VWS V14.01,2013-04-04 12:42:00,
2013-04-04 08:43:00,29.0,20.1,30.36,WSW,254,0.0,0.0,69,0.00,,---,0.00,VWS V14.01,2013-04-04 12:43:00,
2013-04-04 08:44:00,29.1,20.2,30.36,WSW,254,0.0,0.0,69,0.00,,---,0.00,VWS V14.01,2013-04-04 12:44:00,
2013-04-04 08:45:00,29.1,20.2,30.36,WSW,254,0.0,0.0,69,0.00,,---,0.00,VWS V14.01,2013-04-04 12:45:00,
2013-04-04 08:46:00,29.3,19.7,30.36,WSW,254,0.0,0.0,67,0.00,,---,0.00,VWS V14.01,2013-04-04 12:46:00,
2013-04-04 08:47:00,29.4,19.8,30.36,WSW,254,0.0,0.0,67,0.00,,---,0.00,VWS V14.01,2013-04-04 12:47:00,
2013-04-04 08:48:00,29.4,19.5,30.36,WSW,254,0.0,0.0,66,0.00,,---,0.00,VWS V14.01,2013-04-04 12:48:00,
2013-04-04 08:49:00,29.5,19.9,30.36,WSW,254,0.0,0.0,67,0.00,,---,0.00,VWS V14.01,2013-04-04 12:49:00,
2013-04-04 08:50:00,29.5,19.9,30.36,WSW,254,0.0,0.0,67,0.00,,---,0.00,VWS V14.01,2013-04-04 12:50:00,
2013-04-04 08:51:00,29.7,19.4,30.36,WSW,254,0.0,0.0,65,0.00,,---,0.00,VWS V14.01,2013-04-04 12:51:00,
2013-04-04 08:52:00,29.8,19.5,30.36,WSW,254,0.0,0.0,65,0.00,,---,0.00,VWS V14.01,2013-04-04 12:52:00,
2013-04-04 08:53:00,29.8,19.1,30.36,WSW,254,0.0,0.0,64,0.00,,---,0.00,VWS V14.01,2013-04-04 12:53:00,
2013-04-04 08:54:00,30.0,19.3,30.36,WSW,254,0.0,0.0,64,0.00,,---,0.00,VWS V14.01,2013-04-04 12:54:00,
2013-04-04 08:55:00,30.0,19.3,30.36,WSW,254,0.0,0.0,64,0.00,,---,0.00,VWS V14.01,2013-04-04 12:55:00,
2013-04-04 08:56:00,30.1,18.3,30.36,WSW,254,0.0,1.0,61,0.00,,---,0.00,VWS V14.01,2013-04-04 12:56:00,
2013-04-04 08:57:00,30.3,18.1,30.36,WSW,254,0.0,0.0,60,0.00,,---,0.00,VWS V14.01,2013-04-04 12:57:00,
2013-04-04 08:58:00,30.4,18.2,30.36,WSW,254,0.0,0.0,60,0.00,,---,0.00,VWS V14.01,2013-04-04 12:58:00,
2013-04-04 08:59:00,30.4,18.2,30.36,WSW,254,0.0,0.0,60,0.00,,---,0.00,VWS V14.01,2013-04-04 12:59:00,
2013-04-04 09:00:00,30.4,18.2,30.36,WSW,254,0.0,0.0,60,0.00,,---,0.00,VWS V14.01,2013-04-04 13:00:00,
2013-04-04 09:01:00,30.7,18.1,30.36,SW,236,0.0,1.0,59,0.00,,---,0.00,VWS V14.01,2013-04-04 13:01:00,
2013-04-04 09:02:00,30.9,17.5,30.36,SW,236,0.0,0.0,57,0.00,,---,0.00,VWS V14.01,2013-04-04 13:02:00,
2013-04-04 09:03:00,30.9,17.1,30.36,SW,236,0.0,0.0,56,0.00,,---,0.00,VWS V14.01,2013-04-04 13:03:00,
2013-04-04 09:04:00,31.0,17.2,30.36,SW,236,0.0,0.0,56,0.00,,---,0.00,VWS V14.01,2013-04-04 13:04:00,
2013-04-04 09:05:00,31.0,17.2,30.36,SW,236,0.0,0.0,56,0.00,,---,0.00,VWS V14.01,2013-04-04 13:05:00,
2013-04-04 09:06:00,31.5,16.8,30.36,SW,216,0.0,2.0,54,0.00,,---,0.00,VWS V14.01,2013-04-04 13:06:00,
2013-04-04 09:07:00,31.6,16.9,30.36,SW,216,0.0,1.0,54,0.00,,---,0.00,VWS V14.01,2013-04-04 13:07:00,
2013-04-04 09:08:00,31.9,16.7,30.36,SW,216,2.0,4.0,53,0.00,,---,0.00,VWS V14.01,2013-04-04 13:08:00,
2013-04-04 09:09:00,32.2,17.4,30.36,SE,140,4.0,5.0,54,0.00,,---,0.00,VWS V14.01,2013-04-04 13:09:00,
2013-04-04 09:10:00,32.1,17.3,30.36,SW,216,0.0,2.0,54,0.00,,---,0.00,VWS V14.01,2013-04-04 13:10:00,
2013-04-04 09:11:00,32.5,17.7,30.36,SE,139,0.0,2.0,54,0.00,,---,0.00,VWS V14.01,2013-04-04 13:11:00,
2013-04-04 09:12:00,32.8,17.1,30.36,SSE,150,1.0,5.0,52,0.00,,---,0.00,VWS V14.01,2013-04-04 13:12:00,
2013-04-04 09:13:00,32.9,17.2,30.36,SSE,150,1.0,1.0,52,0.00,,---,0.00,VWS V14.01,2013-04-04 13:13:00,
2013-04-04 09:14:00,33.1,17.8,30.36,SSE,150,0.0,1.0,53,0.00,,---,0.00,VWS V14.01,2013-04-04 13:14:00,
2013-04-04 09:15:00,32.9,17.2,30.36,SSE,150,0.0,1.0,52,0.00,,---,0.00,VWS V14.01,2013-04-04 13:15:00,
2013-04-04 09:16:00,33.4,18.1,30.36,ESE,122,4.0,6.0,53,0.00,,---,0.00,VWS V14.01,2013-04-04 13:16:00,
2013-04-04 09:17:00,33.5,17.8,30.36,ESE,120,2.0,5.0,52,0.00,,---,0.00,VWS V14.01,2013-04-04 13:17:00,
2013-04-04 09:18:00,33.7,18.0,30.36,ESE,120,1.0,5.0,52,0.00,,---,0.00,VWS V14.01,2013-04-04 13:18:00,
2013-04-04 09:19:00,33.8,18.5,30.36,SE,133,2.0,4.0,53,0.00,,---,0.00,VWS V14.01,2013-04-04 13:19:00,
2013-04-04 09:20:00,33.8,18.0,30.36,ESE,120,1.0,1.0,52,0.00,,---,0.00,VWS V14.01,2013-04-04 13:20:00,
2013-04-04 09:21:00,34.0,17.3,30.36,SE,134,0.0,0.0,50,0.00,,---,0.00,VWS V14.01,2013-04-04 13:21:00,
2013-04-04 09:22:00,34.1,17.4,30.36,SE,134,3.0,4.0,50,0.00,,---,0.00,VWS V14.01,2013-04-04 13:22:00,
2013-04-04 09:23:00,34.1,17.0,30.36,SE,134,1.0,3.0,49,0.00,,---,0.00,VWS V14.01,2013-04-04 13:23:00,
2013-04-04 09:24:00,34.1,18.3,30.36,SE,134,0.0,1.0,52,0.00,,---,0.00,VWS V14.01,2013-04-04 13:24:00,
2013-04-04 09:25:00,34.1,17.4,30.36,SE,134,0.0,1.0,50,0.00,,---,0.00,VWS V14.01,2013-04-04 13:25:00,
2013-04-04 09:26:00,34.3,18.1,30.36,SE,138,0.0,4.0,51,0.00,,---,0.00,VWS V14.01,2013-04-04 13:26:00,
2013-04-04 09:28:00,34.4,17.7,30.36,SE,137,1.0,2.0,50,0.00,,---,0.00,VWS V14.01,2013-04-04 13:28:00,
2013-04-04 09:29:00,34.4,17.7,30.36,SE,138,1.0,2.0,50,0.00,,---,0.00,VWS V14.01,2013-04-04 13:29:00,
2013-04-04 09:30:00,34.4,17.7,30.36,SE,138,0.0,2.0,50,0.00,,---,0.00,VWS V14.01,2013-04-04 13:30:00,
2013-04-04 09:31:00,34.6,18.3,30.35,SE,138,1.0,1.0,51,0.00,,---,0.00,VWS V14.01,2013-04-04 13:31:00,
2013-04-04 09:32:00,34.6,17.9,30.35,SE,138,0.0,4.0,50,0.00,,---,0.00,VWS V14.01,2013-04-04 13:32:00,
2013-04-04 09:33:00,34.6,17.9,30.35,SE,138,0.0,3.0,50,0.00,,---,0.00,VWS V14.01,2013-04-04 13:33:00,
2013-04-04 09:34:00,34.7,18.0,30.35,SE,130,4.0,6.0,50,0.00,,---,0.00,VWS V14.01,2013-04-04 13:34:00,
2013-04-04 09:35:00,34.7,18.0,30.35,SE,138,0.0,1.0,50,0.00,,---,0.00,VWS V14.01,2013-04-04 13:35:00,
2013-04-04 09:36:00,34.7,17.5,30.35,SE,126,0.0,4.0,49,0.00,,---,0.00,VWS V14.01,2013-04-04 13:36:00,
2013-04-04 09:37:00,34.7,17.5,30.35,SE,126,0.0,3.0,49,0.00,,---,0.00,VWS V14.01,2013-04-04 13:37:00,
2013-04-04 09:38:00,34.7,17.5,30.35,SE,126,0.0,1.0,49,0.00,,---,0.00,VWS V14.01,2013-04-04 13:38:00,
2013-04-04 09:39:00,34.7,18.0,30.35,SSE,147,5.0,7.0,50,0.00,,---,0.00,VWS V14.01,2013-04-04 13:39:00,
2013-04-04 09:40:00,34.7,18.0,30.35,South,186,4.0,7.0,50,0.00,,---,0.00,VWS V14.01,2013-04-04 13:40:00,
2013-04-04 09:41:00,34.7,17.0,30.35,SSE,148,3.0,6.0,48,0.00,,---,0.00,VWS V14.01,2013-04-04 13:41:00,
2013-04-04 09:42:00,34.7,17.5,30.35,SE,135,5.0,6.0,49,0.00,,---,0.00,VWS V14.01,2013-04-04 13:42:00,
2013-04-04 09:43:00,34.7,17.0,30.35,SE,135,0.0,5.0,48,0.00,,---,0.00,VWS V14.01,2013-04-04 13:43:00,
2013-04-04 09:44:00,34.7,17.0,30.35,SE,134,1.0,3.0,48,0.00,,---,0.00,VWS V14.01,2013-04-04 13:44:00,
2013-04-04 09:45:00,34.7,17.0,30.35,SE,134,2.0,3.0,48,0.00,,---,0.00,VWS V14.01,2013-04-04 13:45:00,
2013-04-04 09:46:00,34.7,17.5,30.34,SE,135,2.0,6.0,49,0.00,,---,0.00,VWS V14.01,2013-04-04 13:46:00,
2013-04-04 09:47:00,34.7,17.0,30.34,SSE,161,4.0,6.0,48,0.00,,---,0.00,VWS V14.01,2013-04-04 13:47:00,
2013-04-04 09:48:00,34.9,17.2,30.34,SE,140,0.0,5.0,48,0.00,,---,0.00,VWS V14.01,2013-04-04 13:48:00,
2013-04-04 09:49:00,34.9,17.7,30.34,SE,138,2.0,2.0,49,0.00,,---,0.00,VWS V14.01,2013-04-04 13:49:00,
2013-04-04 09:50:00,34.9,17.2,30.34,SE,134,1.0,2.0,48,0.00,,---,0.00,VWS V14.01,2013-04-04 13:50:00,
2013-04-04 09:51:00,35.0,17.8,30.34,SE,131,4.0,5.0,49,0.00,,---,0.00,VWS V14.01,2013-04-04 13:51:00,
2013-04-04 09:52:00,35.2,17.5,30.34,SE,134,4.0,4.0,48,0.00,,---,0.00,VWS V14.01,2013-04-04 13:52:00,
2013-04-04 09:53:00,35.2,18.0,30.34,SE,144,5.0,5.0,49,0.00,,---,0.00,VWS V14.01,2013-04-04 13:53:00,
2013-04-04 09:54:00,35.3,18.1,30.34,SSE,155,4.0,5.0,49,0.00,,---,0.00,VWS V14.01,2013-04-04 13:54:00,
2013-04-04 09:55:00,35.3,18.1,30.34,SE,137,5.0,5.0,49,0.00,,---,0.00,VWS V14.01,2013-04-04 13:55:00,
2013-04-04 09:56:00,35.3,18.1,30.34,SE,131,1.0,5.0,49,0.00,,---,0.00,VWS V14.01,2013-04-04 13:56:00,
2013-04-04 09:57:00,35.5,18.2,30.34,SE,130,0.0,1.0,49,0.00,,---,0.00,VWS V14.01,2013-04-04 13:57:00,
2013-04-04 09:58:00,35.5,18.7,30.34,SE,130,0.0,2.0,50,0.00,,---,0.00,VWS V14.01,2013-04-04 13:58:00,
2013-04-04 09:59:00,35.6,18.3,30.34,SE,130,2.0,6.0,49,0.00,,---,0.00,VWS V14.01,2013-04-04 13:59:00,
2013-04-04 10:00:00,35.5,18.2,30.34,SE,131,2.0,6.0,49,0.00,,---,0.00,VWS V14.01,2013-04-04 14:00:00,
2013-04-04 10:01:00,35.6,18.3,30.34,SE,144,0.0,8.0,49,0.00,,---,0.00,VWS V14.01,2013-04-04 14:01:00,
2013-04-04 10:02:00,35.6,17.9,30.34,SE,144,1.0,2.0,48,0.00,,---,0.00,VWS V14.01,2013-04-04 14:02:00,
2013-04-04 10:03:00,35.6,17.9,30.34,South,182,2.0,5.0,48,0.00,,---,0.00,VWS V14.01,2013-04-04 14:03:00,
2013-04-04 10:04:00,35.6,17.9,30.34,SSE,166,4.0,5.0,48,0.00,,---,0.00,VWS V14.01,2013-04-04 14:04:00,
2013-04-04 10:05:00,35.6,17.9,30.34,SE,137,5.0,5.0,48,0.00,,---,0.00,VWS V14.01,2013-04-04 14:05:00,
2013-04-04 10:06:00,35.6,17.9,30.34,SSE,167,1.0,3.0,48,0.00,,---,0.00,VWS V14.01,2013-04-04 14:06:00,
2013-04-04 10:07:00,35.6,18.3,30.34,SE,126,2.0,4.0,49,0.00,,---,0.00,VWS V14.01,2013-04-04 14:07:00,
2013-04-04 10:08:00,35.6,18.3,30.34,SE,126,0.0,2.0,49,0.00,,---,0.00,VWS V14.01,2013-04-04 14:08:00,
2013-04-04 10:09:00,35.8,18.5,30.34,SE,126,0.0,2.0,49,0.00,,---,0.00,VWS V14.01,2013-04-04 14:09:00,
2013-04-04 10:10:00,35.8,18.5,30.34,SE,126,0.0,2.0,49,0.00,,---,0.00,VWS V14.01,2013-04-04 14:10:00,
2013-04-04 10:11:00,36.0,19.2,30.34,SE,126,1.0,4.0,50,0.00,,---,0.00,VWS V14.01,2013-04-04 14:11:00,
2013-04-04 10:12:00,36.2,19.4,30.34,SE,126,0.0,4.0,50,0.00,,---,0.00,VWS V14.01,2013-04-04 14:12:00,
2013-04-04 10:13:00,36.2,18.9,30.34,SE,126,0.0,1.0,49,0.00,,---,0.00,VWS V14.01,2013-04-04 14:13:00,
2013-04-04 10:14:00,36.3,19.5,30.34,SE,126,0.0,2.0,50,0.00,,---,0.00,VWS V14.01,2013-04-04 14:14:00,
2013-04-04 10:15:00,36.5,19.2,30.32,SE,126,1.0,1.0,49,0.00,,---,0.00,VWS V14.01,2013-04-04 14:15:00,
2013-04-04 10:16:00,36.3,19.5,30.34,SE,126,0.0,2.0,50,0.00,,---,0.00,VWS V14.01,2013-04-04 14:16:00,
2013-04-04 10:17:00,36.6,19.7,30.32,SE,126,0.0,1.0,50,0.00,,---,0.00,VWS V14.01,2013-04-04 14:17:00,
2013-04-04 10:18:00,36.8,19.0,30.32,SE,126,3.0,3.0,48,0.00,,---,0.00,VWS V14.01,2013-04-04 14:18:00,
2013-04-04 10:19:00,36.9,19.5,30.32,SE,140,1.0,6.0,49,0.00,,---,0.00,VWS V14.01,2013-04-04 14:19:00,
2013-04-04 10:20:00,37.0,18.7,30.32,SSW,193,1.0,5.0,47,0.00,,---,0.00,VWS V14.01,2013-04-04 14:20:00,
2013-04-04 10:21:00,36.9,19.5,30.32,SE,140,2.0,6.0,49,0.00,,---,0.00,VWS V14.01,2013-04-04 14:21:00,
2013-04-04 10:22:00,36.9,18.1,30.32,SSW,193,7.0,7.0,46,0.00,,---,0.00,VWS V14.01,2013-04-04 14:22:00,
2013-04-04 10:23:00,36.8,18.0,30.32,SSW,192,1.0,7.0,46,0.00,,---,0.00,VWS V14.01,2013-04-04 14:23:00,
2013-04-04 10:24:00,36.8,18.5,30.32,SE,143,6.0,7.0,47,0.00,,---,0.00,VWS V14.01,2013-04-04 14:24:00,
2013-04-04 10:25:00,36.9,18.6,30.32,SSE,157,1.0,6.0,47,0.00,,---,0.00,VWS V14.01,2013-04-04 14:25:00,
2013-04-04 10:26:00,36.8,18.5,30.32,SE,128,6.0,7.0,47,0.00,,---,0.00,VWS V14.01,2013-04-04 14:26:00,
2013-04-04 10:27:00,37.0,19.6,30.32,SSE,157,1.0,2.0,49,0.00,,---,0.00,VWS V14.01,2013-04-04 14:27:00,
2013-04-04 10:28:00,37.2,19.3,30.32,SSE,157,1.0,2.0,48,0.00,,---,0.00,VWS V14.01,2013-04-04 14:28:00,
2013-04-04 10:29:00,37.2,18.3,30.32,SSE,163,5.0,5.0,46,0.00,,---,0.00,VWS V14.01,2013-04-04 14:29:00,
2013-04-04 10:30:00,37.2,18.3,30.32,SSE,164,4.0,5.0,46,0.00,,---,0.00,VWS V14.01,2013-04-04 14:30:00,
2013-04-04 10:31:00,37.2,18.3,30.32,SSE,163,4.0,5.0,46,0.00,,---,0.00,VWS V14.01,2013-04-04 14:31:00,
2013-04-04 10:32:00,37.0,18.2,30.32,SSE,164,0.0,4.0,46,0.00,,---,0.00,VWS V14.01,2013-04-04 14:32:00,
2013-04-04 10:33:00,37.0,18.2,30.32,SSE,164,0.0,1.0,46,0.00,,---,0.00,VWS V14.01,2013-04-04 14:33:00,
2013-04-04 10:34:00,37.0,18.7,30.32,SSE,164,0.0,1.0,47,0.00,,---,0.00,VWS V14.01,2013-04-04 14:34:00,
2013-04-04 10:35:00,37.2,19.3,30.32,SSE,164,0.0,0.0,48,0.00,,---,0.00,VWS V14.01,2013-04-04 14:35:00,
2013-04-04 10:36:00,37.0,18.2,30.32,SSE,164,0.0,1.0,46,0.00,,---,0.00,VWS V14.01,2013-04-04 14:36:00,
2013-04-04 10:37:00,37.3,18.4,30.32,SSE,164,0.0,1.0,46,0.00,,---,0.00,VWS V14.01,2013-04-04 14:37:00,
2013-04-04 10:38:00,37.3,18.9,30.32,SSE,163,4.0,4.0,47,0.00,,---,0.00,VWS V14.01,2013-04-04 14:38:00,
2013-04-04 10:39:00,37.6,19.2,30.32,SSE,163,0.0,4.0,47,0.00,,---,0.00,VWS V14.01,2013-04-04 14:39:00,
2013-04-04 10:40:00,37.8,18.9,30.32,SE,136,4.0,6.0,46,0.00,,---,0.00,VWS V14.01,2013-04-04 14:40:00,
2013-04-04 10:41:00,37.5,19.1,30.32,SSE,163,0.0,4.0,47,0.00,,---,0.00,VWS V14.01,2013-04-04 14:41:00,
2013-04-04 10:42:00,37.9,19.0,30.32,SE,138,2.0,3.0,46,0.00,,---,0.00,VWS V14.01,2013-04-04 14:42:00,
2013-04-04 10:43:00,38.0,19.1,30.32,SE,138,0.0,2.0,46,0.00,,---,0.00,VWS V14.01,2013-04-04 14:43:00,
2013-04-04 10:44:00,38.2,19.3,30.32,SE,138,0.0,0.0,46,0.00,,---,0.00,VWS V14.01,2013-04-04 14:44:00,
2013-04-04 10:45:00,38.3,19.4,30.31,SE,136,2.0,5.0,46,0.00,,---,0.00,VWS V14.01,2013-04-04 14:45:00,
2013-04-04 10:46:00,38.2,19.3,30.32,SE,138,0.0,0.0,46,0.00,,---,0.00,VWS V14.01,2013-04-04 14:46:00,
2013-04-04 10:47:00,38.6,18.6,30.31,SE,136,5.0,9.0,44,0.00,,---,0.00,VWS V14.01,2013-04-04 14:47:00,
2013-04-04 10:48:00,38.6,18.0,30.31,SE,126,2.0,8.0,43,0.00,,---,0.00,VWS V14.01,2013-04-04 14:48:00,
2013-04-04 10:49:00,38.6,18.0,30.31,SE,125,5.0,8.0,43,0.00,,---,0.00,VWS V14.01,2013-04-04 14:49:00,
2013-04-04 10:50:00,38.8,17.7,30.31,SE,126,0.0,6.0,42,0.00,,---,0.00,VWS V14.01,2013-04-04 14:50:00,
2013-04-04 10:51:00,38.6,18.0,30.31,SE,126,4.0,8.0,43,0.00,,---,0.00,VWS V14.01,2013-04-04 14:51:00,
2013-04-04 10:52:00,38.8,17.1,30.31,SSE,162,5.0,6.0,41,0.00,,---,0.00,VWS V14.01,2013-04-04 14:52:00,
2013-04-04 10:53:00,38.6,17.0,30.31,SE,140,7.0,7.0,41,0.00,,---,0.00,VWS V14.01,2013-04-04 14:53:00,
2013-04-04 10:54:00,38.6,17.5,30.31,SE,140,1.0,7.0,42,0.00,,---,0.00,VWS V14.01,2013-04-04 14:54:00,
2013-04-04 10:55:00,38.6,17.5,30.31,SE,140,4.0,5.0,42,0.00,,---,0.00,VWS V14.01,2013-04-04 14:55:00,
2013-04-04 10:56:00,38.6,17.5,30.31,SE,140,4.0,7.0,42,0.00,,---,0.00,VWS V14.01,2013-04-04 14:56:00,
2013-04-04 10:57:00,38.6,18.0,30.31,SE,127,4.0,4.0,43,0.00,,---,0.00,VWS V14.01,2013-04-04 14:57:00,
2013-04-04 10:58:00,38.6,18.6,30.31,SE,140,5.0,7.0,44,0.00,,---,0.00,VWS V14.01,2013-04-04 14:58:00,
2013-04-04 10:59:00,38.6,17.5,30.31,SE,138,2.0,5.0,42,0.00,,---,0.00,VWS V14.01,2013-04-04 14:59:00,
2013-04-04 11:00:00,38.6,18.0,30.30,SE,138,1.0,5.0,43,0.00,,---,0.00,VWS V14.01,2013-04-04 15:00:00,
2013-04-04 11:01:00,38.6,17.5,30.31,SE,138,2.0,5.0,42,0.00,,---,0.00,VWS V14.01,2013-04-04 15:01:00,
2013-04-04 11:02:00,38.6,17.5,30.30,SE,136,2.0,4.0,42,0.00,,---,0.00,VWS V14.01,2013-04-04 15:02:00,
2013-04-04 11:03:00,38.6,17.5,30.30,SE,126,4.0,6.0,42,0.00,,---,0.00,VWS V14.01,2013-04-04 15:03:00,
2013-04-04 11:04:00,38.6,17.5,30.30,SE,129,1.0,4.0,42,0.00,,---,0.00,VWS V14.01,2013-04-04 15:04:00,
2013-04-04 11:05:00,38.6,17.5,30.30,SE,129,1.0,3.0,42,0.00,,---,0.00,VWS V14.01,2013-04-04 15:05:00,
2013-04-04 11:06:00,38.6,17.5,30.30,SE,129,1.0,4.0,42,0.00,,---,0.00,VWS V14.01,2013-04-04 15:06:00,
2013-04-04 11:07:00,38.8,18.2,30.30,SE,133,3.0,3.0,43,0.00,,---,0.00,VWS V14.01,2013-04-04 15:07:00,
2013-04-04 11:08:00,38.8,17.7,30.30,SE,133,4.0,4.0,42,0.00,,---,0.00,VWS V14.01,2013-04-04 15:08:00,
2013-04-04 11:09:00,38.9,17.8,30.30,SE,133,1.0,5.0,42,0.00,,---,0.00,VWS V14.01,2013-04-04 15:09:00,
2013-04-04 11:10:00,38.9,16.6,30.30,SE,133,0.0,1.0,40,0.00,,---,0.00,VWS V14.01,2013-04-04 15:10:00,
2013-04-04 11:11:00,38.9,18.3,30.30,SE,133,2.0,5.0,43,0.00,,---,0.00,VWS V14.01,2013-04-04 15:11:00,
2013-04-04 11:12:00,38.9,18.3,30.30,SE,133,0.0,1.0,43,0.00,,---,0.00,VWS V14.01,2013-04-04 15:12:00,
2013-04-04 11:13:00,39.1,17.4,30.30,SE,133,2.0,4.0,41,0.00,,---,0.00,VWS V14.01,2013-04-04 15:13:00,
2013-04-04 11:14:00,39.1,16.8,30.30,WNW,284,3.0,4.0,40,0.00,,---,0.00,VWS V14.01,2013-04-04 15:14:00,
2013-04-04 11:15:00,38.9,16.6,30.30,SSW,200,3.0,6.0,40,0.00,,---,0.00,VWS V14.01,2013-04-04 15:15:00,
2013-04-04 11:16:00,39.1,16.8,30.30,WNW,284,4.0,4.0,40,0.00,,---,0.00,VWS V14.01,2013-04-04 15:16:00,
2013-04-04 11:17:00,38.9,17.8,30.30,SSW,192,5.0,7.0,42,0.00,,---,0.00,VWS V14.01,2013-04-04 15:17:00,
2013-04-04 11:18:00,38.9,16.6,30.30,South,178,4.0,5.0,40,0.00,,---,0.00,VWS V14.01,2013-04-04 15:18:00,
2013-04-04 11:19:00,39.1,18.5,30.30,SSE,150,3.0,5.0,43,0.00,,---,0.00,VWS V14.01,2013-04-04 15:19:00,
2013-04-04 11:20:00,39.1,18.0,30.30,SE,126,4.0,5.0,42,0.00,,---,0.00,VWS V14.01,2013-04-04 15:20:00,
2013-04-04 11:21:00,39.1,18.5,30.30,SSE,150,4.0,5.0,43,0.00,,---,0.00,VWS V14.01,2013-04-04 15:21:00,
2013-04-04 11:22:00,39.2,16.9,30.30,SE,126,1.0,2.0,40,0.00,,---,0.00,VWS V14.01,2013-04-04 15:22:00,
2013-04-04 11:23:00,39.2,18.0,30.30,SE,126,1.0,6.0,42,0.00,,---,0.00,VWS V14.01,2013-04-04 15:23:00,
2013-04-04 11:24:00,39.3,18.7,30.30,SE,126,1.0,2.0,43,0.00,,---,0.00,VWS V14.01,2013-04-04 15:24:00,
2013-04-04 11:25:00,39.5,18.3,30.30,SE,126,1.0,1.0,42,0.00,,---,0.00,VWS V14.01,2013-04-04 15:25:00,
2013-04-04 11:26:00,39.3,18.7,30.30,SE,126,1.0,2.0,43,0.00,,---,0.00,VWS V14.01,2013-04-04 15:26:00,
2013-04-04 11:27:00,39.6,19.0,30.30,SSE,159,1.0,4.0,43,0.00,,---,0.00,VWS V14.01,2013-04-04 15:27:00,
2013-04-04 11:28:00,39.6,18.4,30.30,SSE,160,2.0,4.0,42,0.00,,---,0.00,VWS V14.01,2013-04-04 15:28:00,
2013-04-04 11:29:00,39.6,17.3,30.30,SSE,160,0.0,2.0,40,0.00,,---,0.00,VWS V14.01,2013-04-04 15:29:00,
2013-04-04 11:30:00,39.6,17.9,30.30,SSE,159,2.0,2.0,41,0.00,,---,0.00,VWS V14.01,2013-04-04 15:30:00,
2013-04-04 11:31:00,39.6,17.3,30.30,SSE,160,0.0,2.0,40,0.00,,---,0.00,VWS V14.01,2013-04-04 15:31:00,
2013-04-04 11:32:00,39.6,16.7,30.30,SE,142,0.0,5.0,39,0.00,,---,0.00,VWS V14.01,2013-04-04 15:32:00,
2013-04-04 11:33:00,39.8,16.3,30.30,SE,142,0.0,2.0,38,0.00,,---,0.00,VWS V14.01,2013-04-04 15:33:00,
2013-04-04 11:34:00,39.8,16.9,30.30,SE,142,0.0,2.0,39,0.00,,---,0.00,VWS V14.01,2013-04-04 15:34:00,
2013-04-04 11:35:00,40.1,17.7,30.30,SE,144,0.0,2.0,40,0.00,,---,0.00,VWS V14.01,2013-04-04 15:35:00,
2013-04-04 11:36:00,39.8,16.9,30.30,SE,142,0.0,2.0,39,0.00,,---,0.00,VWS V14.01,2013-04-04 15:36:00,
2013-04-04 11:37:00,40.3,17.9,30.30,SE,129,0.0,4.0,40,0.00,,---,0.00,VWS V14.01,2013-04-04 15:37:00,
2013-04-04 11:38:00,40.5,18.7,30.30,SE,129,0.0,0.0,41,0.00,,---,0.00,VWS V14.01,2013-04-04 15:38:00,
2013-04-04 11:39:00,40.6,17.6,30.30,SE,129,1.0,1.0,39,0.00,,---,0.00,VWS V14.01,2013-04-04 15:39:00,
2013-04-04 11:40:00,40.8,17.8,30.30,SE,129,0.0,2.0,39,0.00,,---,0.00,VWS V14.01,2013-04-04 15:40:00,
2013-04-04 11:41:00,40.6,17.6,30.30,SE,129,1.0,1.0,39,0.00,,---,0.00,VWS V14.01,2013-04-04 15:41:00,
2013-04-04 11:42:00,41.1,17.4,30.30,SE,127,4.0,4.0,38,0.00,,---,0.00,VWS V14.01,2013-04-04 15:42:00,
2013-04-04 11:43:00,41.1,18.0,30.30,SE,127,3.0,6.0,39,0.00,,---,0.00,VWS V14.01,2013-04-04 15:43:00,
2013-04-04 11:44:00,41.1,17.4,30.30,SW,232,5.0,5.0,38,0.00,,---,0.00,VWS V14.01,2013-04-04 15:44:00,
2013-04-04 11:45:00,41.2,18.1,30.29,SW,227,0.0,5.0,39,0.00,,---,0.00,VWS V14.01,2013-04-04 15:45:00,
2013-04-04 11:46:00,41.1,17.4,30.30,SW,232,5.0,5.0,38,0.00,,---,0.00,VWS V14.01,2013-04-04 15:46:00,
2013-04-04 11:47:00,41.2,17.5,30.29,SSE,160,4.0,7.0,38,0.00,,---,0.00,VWS V14.01,2013-04-04 15:47:00,
2013-04-04 11:48:00,41.3,17.6,30.29,South,179,0.0,4.0,38,0.00,,---,0.00,VWS V14.01,2013-04-04 15:48:00,
2013-04-04 11:49:00,41.3,17.0,30.29,SE,128,4.0,6.0,37,0.00,,---,0.00,VWS V14.01,2013-04-04 15:49:00,
2013-04-04 11:50:00,41.2,16.3,30.29,East,87,1.0,8.0,36,0.00,,---,0.00,VWS V14.01,2013-04-04 15:50:00,
2013-04-04 11:51:00,41.3,17.0,30.29,SE,128,4.0,4.0,37,0.00,,---,0.00,VWS V14.01,2013-04-04 15:51:00,
2013-04-04 11:52:00,41.3,17.6,30.29,SE,132,0.0,1.0,38,0.00,,---,0.00,VWS V14.01,2013-04-04 15:52:00,
2013-04-04 11:53:00,41.3,15.7,30.29,SE,132,1.0,5.0,35,0.00,,---,0.00,VWS V14.01,2013-04-04 15:53:00,
2013-04-04 11:54:00,41.3,16.4,30.29,SE,132,0.0,1.0,36,0.00,,---,0.00,VWS V14.01,2013-04-04 15:54:00,
2013-04-04 11:55:00,41.3,17.6,30.29,WSW,243,1.0,4.0,38,0.00,,---,0.00,VWS V14.01,2013-04-04 15:55:00,
2013-04-04 11:56:00,41.3,16.4,30.29,SE,132,0.0,1.0,36,0.00,,---,0.00,VWS V14.01,2013-04-04 15:56:00,
2013-04-04 11:57:00,41.5,17.8,30.29,West,268,0.0,4.0,38,0.00,,---,0.00,VWS V14.01,2013-04-04 15:57:00,
2013-04-04 11:58:00,41.6,17.3,30.29,NW,324,1.0,5.0,37,0.00,,---,0.00,VWS V14.01,2013-04-04 15:58:00,
2013-04-04 11:59:00,41.6,17.3,30.29,NW,324,0.0,1.0,37,0.00,,---,0.00,VWS V14.01,2013-04-04 15:59:00,
2013-04-04 12:00:00,41.6,17.9,30.27,NW,324,0.0,2.0,38,0.00,,---,0.00,VWS V14.01,2013-04-04 16:00:00,
2013-04-04 12:01:00,41.6,17.3,30.29,NW,324,0.0,1.0,37,0.00,,---,0.00,VWS V14.01,2013-04-04 16:01:00,
2013-04-04 12:02:00,41.8,18.1,30.27,SE,127,0.0,8.0,38,0.00,,---,0.00,VWS V14.01,2013-04-04 16:02:00,
2013-04-04 12:03:00,41.8,18.1,30.27,SE,135,2.0,8.0,38,0.00,,---,0.00,VWS V14.01,2013-04-04 16:03:00,
2013-04-04 12:04:00,41.8,19.3,30.27,SE,135,0.0,2.0,40,0.00,,---,0.00,VWS V14.01,2013-04-04 16:04:00,
2013-04-04 12:05:00,41.8,18.1,30.27,North,5,0.0,4.0,38,0.00,,---,0.00,VWS V14.01,2013-04-04 16:05:00,
2013-04-04 12:06:00,41.8,19.3,30.27,SE,135,0.0,1.0,40,0.00,,---,0.00,VWS V14.01,2013-04-04 16:06:00,
2013-04-04 12:07:00,41.8,18.7,30.27,East,94,2.0,4.0,39,0.00,,---,0.00,VWS V14.01,2013-04-04 16:07:00,
2013-04-04 12:10:00,41.8,18.1,30.27,SE,140,0.0,4.0,38,0.00,,---,0.00,VWS V14.01,2013-04-04 16:10:00,
2013-04-04 12:11:00,41.8,19.3,30.27,SE,130,2.0,2.0,40,0.00,,---,0.00,VWS V14.01,2013-04-04 16:11:00,
2013-04-04 12:12:00,41.9,19.9,30.27,SSE,155,0.0,3.0,41,0.00,,---,0.00,VWS V14.01,2013-04-04 16:12:00,
2013-04-04 12:13:00,42.1,18.3,30.27,SSE,154,4.0,4.0,38,0.00,,---,0.00,VWS V14.01,2013-04-04 16:13:00,
2013-04-04 12:14:00,42.1,17.7,30.27,SE,144,3.0,5.0,37,0.00,,---,0.00,VWS V14.01,2013-04-04 16:14:00,
2013-04-04 12:15:00,41.9,18.2,30.28,SSE,155,4.0,5.0,38,0.00,,---,0.00,VWS V14.01,2013-04-04 16:15:00,
2013-04-04 12:16:00,42.1,17.7,30.28,SE,144,2.0,3.0,37,0.00,,---,0.00,VWS V14.01,2013-04-04 16:16:00,
2013-04-04 12:17:00,41.9,17.5,30.28,SE,146,2.0,5.0,37,0.00,,---,0.00,VWS V14.01,2013-04-04 16:17:00,
2013-04-04 12:18:00,41.9,18.8,30.28,SE,144,3.0,5.0,39,0.00,,---,0.00,VWS V14.01,2013-04-04 16:18:00,
2013-04-04 12:19:00,41.9,17.5,30.28,SE,130,1.0,6.0,37,0.00,,---,0.00,VWS V14.01,2013-04-04 16:19:00,
2013-04-04 12:20:00,42.1,19.5,30.28,SSE,165,2.0,5.0,40,0.00,,---,0.00,VWS V14.01,2013-04-04 16:20:00,
2013-04-04 12:21:00,42.1,19.0,30.28,SSW,192,1.0,5.0,39,0.00,,---,0.00,VWS V14.01,2013-04-04 16:21:00,
2013-04-04 12:22:00,42.2,17.8,30.28,SE,134,1.0,7.0,37,0.00,,---,0.00,VWS V14.01,2013-04-04 16:22:00,
2013-04-04 12:23:00,42.3,17.3,30.28,SE,134,1.0,1.0,36,0.00,,---,0.00,VWS V14.01,2013-04-04 16:23:00,
2013-04-04 12:24:00,42.5,18.1,30.28,SE,135,1.0,5.0,37,0.00,,---,0.00,VWS V14.01,2013-04-04 16:24:00,
2013-04-04 12:25:00,42.6,17.5,30.28,South,175,1.0,5.0,36,0.00,,---,0.00,VWS V14.01,2013-04-04 16:25:00,
2013-04-04 12:26:00,42.6,20.0,30.28,South,175,5.0,5.0,40,0.00,,---,0.00,VWS V14.01,2013-04-04 16:26:00,
2013-04-04 12:27:00,42.6,16.9,30.28,South,178,1.0,2.0,35,0.00,,---,0.00,VWS V14.01,2013-04-04 16:27:00,
2013-04-04 12:28:00,42.6,19.4,30.28,South,185,0.0,3.0,39,0.00,,---,0.00,VWS V14.01,2013-04-04 16:28:00,
2013-04-04 12:29:00,42.8,18.4,30.28,South,184,5.0,7.0,37,0.00,,---,0.00,VWS V14.01,2013-04-04 16:29:00,
2013-04-04 12:30:00,42.9,18.4,30.27,SSE,165,2.0,5.0,37,0.00,,---,0.00,VWS V14.01,2013-04-04 16:30:00,
2013-04-04 12:31:00,42.8,18.4,30.27,SSE,157,4.0,5.0,37,0.00,,---,0.00,VWS V14.01,2013-04-04 16:31:00,
2013-04-04 12:32:00,43.1,19.8,30.27,SSE,165,0.0,0.0,39,0.00,,---,0.00,VWS V14.01,2013-04-04 16:32:00,
2013-04-04 12:33:00,43.2,18.1,30.27,SE,142,2.0,6.0,36,0.00,,---,0.00,VWS V14.01,2013-04-04 16:33:00,
2013-04-04 12:34:00,43.1,18.0,30.27,SE,140,6.0,8.0,36,0.00,,---,0.00,VWS V14.01,2013-04-04 16:34:00,
2013-04-04 12:35:00,42.9,16.5,30.27,SE,139,4.0,7.0,34,0.00,,---,0.00,VWS V14.01,2013-04-04 16:35:00,
2013-04-04 12:36:00,42.9,16.5,30.27,SE,142,3.0,7.0,34,0.00,,---,0.00,VWS V14.01,2013-04-04 16:36:00,
2013-04-04 12:37:00,42.9,16.5,30.27,SE,140,5.0,6.0,34,0.00,,---,0.00,VWS V14.01,2013-04-04 16:37:00,
2013-04-04 12:38:00,42.9,16.5,30.27,SE,142,3.0,5.0,34,0.00,,---,0.00,VWS V14.01,2013-04-04 16:38:00,
2013-04-04 12:39:00,42.8,15.7,30.27,SE,142,2.0,3.0,33,0.00,,---,0.00,VWS V14.01,2013-04-04 16:39:00,
2013-04-04 12:40:00,42.8,18.4,30.27,SSE,167,1.0,2.0,37,0.00,,---,0.00,VWS V14.01,2013-04-04 16:40:00,
2013-04-04 12:41:00,42.8,20.2,30.27,SSE,151,1.0,6.0,40,0.00,,---,0.00,VWS V14.01,2013-04-04 16:41:00,
2013-04-04 12:42:00,42.8,18.4,30.27,SSE,167,2.0,2.0,37,0.00,,---,0.00,VWS V14.01,2013-04-04 16:42:00,
2013-04-04 12:43:00,43.2,18.7,30.27,SSE,161,3.0,4.0,37,0.00,,---,0.00,VWS V14.01,2013-04-04 16:43:00,
2013-04-04 12:44:00,43.3,18.2,30.27,ESE,119,7.0,7.0,36,0.00,,---,0.00,VWS V14.01,2013-04-04 16:44:00,
2013-04-04 12:45:00,43.5,18.3,30.25,SE,130,1.0,7.0,36,0.00,,---,0.00,VWS V14.01,2013-04-04 16:45:00,
2013-04-04 12:46:00,43.6,18.4,30.25,SE,126,0.0,2.0,36,0.00,,---,0.00,VWS V14.01,2013-04-04 16:46:00,
2013-04-04 12:47:00,43.5,18.3,30.25,SE,130,5.0,7.0,36,0.00,,---,0.00,VWS V14.01,2013-04-04 16:47:00,
2013-04-04 12:48:00,43.9,19.3,30.25,SE,138,5.0,6.0,37,0.00,,---,0.00,VWS V14.01,2013-04-04 16:48:00,
2013-04-04 12:49:00,43.9,17.4,30.25,SSE,150,6.0,7.0,34,0.00,,---,0.00,VWS V14.01,2013-04-04 16:49:00,
2013-04-04 12:50:00,43.9,17.4,30.25,SE,144,2.0,6.0,34,0.00,,---,0.00,VWS V14.01,2013-04-04 16:50:00,
2013-04-04 12:51:00,43.9,17.4,30.25,SE,142,1.0,5.0,34,0.00,,---,0.00,VWS V14.01,2013-04-04 16:51:00,
2013-04-04 12:52:00,43.9,17.4,30.25,SE,144,4.0,6.0,34,0.00,,---,0.00,VWS V14.01,2013-04-04 16:52:00,
2013-04-04 12:53:00,43.6,17.1,30.25,South,184,3.0,6.0,34,0.00,,---,0.00,VWS V14.01,2013-04-04 16:53:00,
2013-04-04 12:54:00,43.3,16.1,30.25,South,184,2.0,4.0,33,0.00,,---,0.00,VWS V14.01,2013-04-04 16:54:00,
2013-04-04 12:55:00,43.2,17.4,30.25,South,182,1.0,6.0,35,0.00,,---,0.00,VWS V14.01,2013-04-04 16:55:00,
2013-04-04 12:56:00,43.1,16.0,30.25,SSE,149,4.0,4.0,33,0.00,,---,0.00,VWS V14.01,2013-04-04 16:56:00,
2013-04-04 12:57:00,43.2,17.4,30.25,South,182,5.0,6.0,35,0.00,,---,0.00,VWS V14.01,2013-04-04 16:57:00,
2013-04-04 12:58:00,43.1,18.0,30.25,ESE,111,1.0,4.0,36,0.00,,---,0.00,VWS V14.01,2013-04-04 16:58:00,
2013-04-04 12:59:00,43.1,16.7,30.25,ESE,111,1.0,1.0,34,0.00,,---,0.00,VWS V14.01,2013-04-04 16:59:00,
2013-04-04 13:00:00,43.2,16.1,30.24,ESE,120,1.0,1.0,33,0.00,,---,0.00,VWS V14.01,2013-04-04 17:00:00,
2013-04-04 13:01:00,43.2,16.1,30.24,South,169,0.0,4.0,33,0.00,,---,0.00,VWS V14.01,2013-04-04 17:01:00,
2013-04-04 13:02:00,43.2,16.7,30.24,ESE,111,0.0,1.0,34,0.00,,---,0.00,VWS V14.01,2013-04-04 17:02:00,
2013-04-04 13:03:00,43.3,18.8,30.24,South,169,0.0,0.0,37,0.00,,---,0.00,VWS V14.01,2013-04-04 17:03:00,
2013-04-04 13:04:00,43.5,17.0,30.24,NNE,19,0.0,4.0,34,0.00,,---,0.00,VWS V14.01,2013-04-04 17:04:00,
2013-04-04 13:05:00,43.6,17.1,30.24,North,355,1.0,2.0,34,0.00,,---,0.00,VWS V14.01,2013-04-04 17:05:00,
2013-04-04 13:06:00,43.8,17.3,30.24,ESE,123,2.0,2.0,34,0.00,,---,0.00,VWS V14.01,2013-04-04 17:06:00,
2013-04-04 13:07:00,43.6,17.1,30.24,NNE,20,0.0,2.0,34,0.00,,---,0.00,VWS V14.01,2013-04-04 17:07:00,
2013-04-04 13:08:00,43.9,16.7,30.24,SSE,151,2.0,4.0,33,0.00,,---,0.00,VWS V14.01,2013-04-04 17:08:00,
2013-04-04 13:09:00,43.9,16.7,30.24,SSE,161,4.0,4.0,33,0.00,,---,0.00,VWS V14.01,2013-04-04 17:09:00,
2013-04-04 13:10:00,43.6,15.0,30.24,SSE,162,0.0,5.0,31,0.00,,---,0.00,VWS V14.01,2013-04-04 17:10:00,
2013-04-04 13:11:00,43.5,14.1,30.24,SSE,162,0.0,2.0,30,0.00,,---,0.00,VWS V14.01,2013-04-04 17:11:00,
2013-04-04 13:12:00,43.6,15.0,30.24,SSE,161,1.0,2.0,31,0.00,,---,0.00,VWS V14.01,2013-04-04 17:12:00,
2013-04-04 13:13:00,43.5,18.3,30.24,SSE,161,1.0,1.0,36,0.00,,---,0.00,VWS V14.01,2013-04-04 17:13:00,
2013-04-04 13:14:00,43.6,19.7,30.24,WSW,245,5.0,5.0,38,0.00,,---,0.00,VWS V14.01,2013-04-04 17:14:00,
2013-04-04 13:15:00,43.6,19.7,30.23,South,172,1.0,6.0,38,0.00,,---,0.00,VWS V14.01,2013-04-04 17:15:00,
2013-04-04 13:16:00,43.6,16.4,30.23,South,174,1.0,4.0,33,0.00,,---,0.00,VWS V14.01,2013-04-04 17:16:00,
2013-04-04 13:17:00,43.6,19.7,30.23,South,172,0.0,0.0,38,0.00,,---,0.00,VWS V14.01,2013-04-04 17:17:00,
2013-04-04 13:18:00,43.8,16.6,30.23,ESE,115,3.0,9.0,33,0.00,,---,0.00,VWS V14.01,2013-04-04 17:18:00,
2013-04-04 13:19:00,43.8,17.3,30.23,SE,130,7.0,7.0,34,0.00,,---,0.00,VWS V14.01,2013-04-04 17:19:00,
2013-04-04 13:20:00,43.9,16.0,30.23,East,90,0.0,7.0,32,0.00,,---,0.00,VWS V14.01,2013-04-04 17:20:00,
2013-04-04 13:21:00,43.9,16.7,30.23,SSE,148,3.0,3.0,33,0.00,,---,0.00,VWS V14.01,2013-04-04 17:21:00,
2013-04-04 13:22:00,43.9,16.0,30.23,ENE,73,1.0,2.0,32,0.00,,---,0.00,VWS V14.01,2013-04-04 17:22:00,
2013-04-04 13:23:00,44.1,14.7,30.23,SSE,147,0.0,0.0,30,0.00,,---,0.00,VWS V14.01,2013-04-04 17:23:00,
2013-04-04 13:24:00,44.1,16.1,30.23,SSE,147,0.0,1.0,32,0.00,,---,0.00,VWS V14.01,2013-04-04 17:24:00,
2013-04-04 13:25:00,44.2,17.6,30.23,SSE,147,1.0,1.0,34,0.00,,---,0.00,VWS V14.01,2013-04-04 17:25:00,
2013-04-04 13:26:00,44.2,16.2,30.23,SE,146,1.0,2.0,32,0.00,,---,0.00,VWS V14.01,2013-04-04 17:26:00,
2013-04-04 13:27:00,44.2,17.6,30.23,SSE,147,0.0,1.0,34,0.00,,---,0.00,VWS V14.01,2013-04-04 17:27:00,
2013-04-04 13:28:00,44.3,15.6,30.23,SE,146,4.0,8.0,31,0.00,,---,0.00,VWS V14.01,2013-04-04 17:28:00,
2013-04-04 13:29:00,44.2,14.8,30.23,SE,134,4.0,5.0,30,0.00,,---,0.00,VWS V14.01,2013-04-04 17:29:00,
2013-04-04 13:30:00,44.1,16.1,30.23,SE,134,1.0,4.0,32,0.00,,---,0.00,VWS V14.01,2013-04-04 17:30:00,
2013-04-04 13:31:00,44.1,15.4,30.23,SE,134,0.0,4.0,31,0.00,,---,0.00,VWS V14.01,2013-04-04 17:31:00,
2013-04-04 13:32:00,44.1,16.1,30.23,SE,134,2.0,4.0,32,0.00,,---,0.00,VWS V14.01,2013-04-04 17:32:00,
2013-04-04 13:33:00,44.1,17.5,30.23,SE,129,4.0,7.0,34,0.00,,---,0.00,VWS V14.01,2013-04-04 17:33:00,
2013-04-04 13:34:00,43.9,16.0,30.23,SSE,155,5.0,6.0,32,0.00,,---,0.00,VWS V14.01,2013-04-04 17:34:00,
2013-04-04 13:35:00,43.8,15.1,30.23,SSE,168,4.0,8.0,31,0.00,,---,0.00,VWS V14.01,2013-04-04 17:35:00,
2013-04-04 13:36:00,43.8,15.9,30.23,SE,146,4.0,6.0,32,0.00,,---,0.00,VWS V14.01,2013-04-04 17:36:00,
2013-04-04 13:37:00,43.8,15.1,30.23,SSE,155,2.0,5.0,31,0.00,,---,0.00,VWS V14.01,2013-04-04 17:37:00,
2013-04-04 13:38:00,43.6,15.0,30.23,ESE,114,1.0,5.0,31,0.00,,---,0.00,VWS V14.01,2013-04-04 17:38:00,
2013-04-04 13:39:00,43.6,15.7,30.23,ESE,114,0.0,2.0,32,0.00,,---,0.00,VWS V14.01,2013-04-04 17:39:00,
2013-04-04 13:40:00,43.8,15.9,30.23,SSE,147,3.0,4.0,32,0.00,,---,0.00,VWS V14.01,2013-04-04 17:40:00,
2013-04-04 13:41:00,43.8,16.6,30.23,SE,146,2.0,3.0,33,0.00,,---,0.00,VWS V14.01,2013-04-04 17:41:00,
2013-04-04 13:42:00,43.8,17.3,30.23,SSE,147,0.0,3.0,34,0.00,,---,0.00,VWS V14.01,2013-04-04 17:42:00,
2013-04-04 13:43:00,43.8,16.6,30.23,SE,142,1.0,2.0,33,0.00,,---,0.00,VWS V14.01,2013-04-04 17:43:00,
2013-04-04 13:44:00,43.9,17.4,30.23,SE,142,2.0,3.0,34,0.00,,---,0.00,VWS V14.01,2013-04-04 17:44:00,
2013-04-04 13:45:00,43.9,16.0,30.21,SE,142,3.0,4.0,32,0.00,,---,0.00,VWS V14.01,2013-04-04 17:45:00,
2013-04-04 13:46:00,43.9,16.0,30.21,SE,138,4.0,4.0,32,0.00,,---,0.00,VWS V14.01,2013-04-04 17:46:00,
2013-04-04 13:47:00,43.9,16.0,30.21,SE,142,1.0,3.0,32,0.00,,---,0.00,VWS V14.01,2013-04-04 17:47:00,
2013-04-04 13:48:00,44.1,17.5,30.21,NW,317,1.0,4.0,34,0.00,,---,0.00,VWS V14.01,2013-04-04 17:48:00,
2013-04-04 13:49:00,44.1,16.1,30.21,SSE,166,0.0,4.0,32,0.00,,---,0.00,VWS V14.01,2013-04-04 17:49:00,
2013-04-04 13:50:00,44.1,16.1,30.21,SE,126,4.0,5.0,32,0.00,,---,0.00,VWS V14.01,2013-04-04 17:50:00,
2013-04-04 13:51:00,44.2,16.2,30.21,SE,140,6.0,8.0,32,0.00,,---,0.00,VWS V14.01,2013-04-04 17:51:00,
2013-04-04 13:52:00,44.1,16.1,30.21,SSW,206,2.0,7.0,32,0.00,,---,0.00,VWS V14.01,2013-04-04 17:52:00,
2013-04-04 13:53:00,44.2,16.2,30.21,South,180,2.0,5.0,32,0.00,,---,0.00,VWS V14.01,2013-04-04 17:53:00,
2013-04-04 13:54:00,44.2,15.5,30.21,SSE,153,1.0,4.0,31,0.00,,---,0.00,VWS V14.01,2013-04-04 17:54:00,
2013-04-04 13:55:00,44.2,15.5,30.21,NE,51,4.0,6.0,31,0.00,,---,0.00,VWS V14.01,2013-04-04 17:55:00,
2013-04-04 13:56:00,44.2,16.2,30.21,ESE,119,4.0,5.0,32,0.00,,---,0.00,VWS V14.01,2013-04-04 17:56:00,
2013-04-04 13:57:00,44.2,16.2,30.21,ESE,113,5.0,5.0,32,0.00,,---,0.00,VWS V14.01,2013-04-04 17:57:00,
2013-04-04 13:58:00,44.1,15.4,30.21,South,169,1.0,5.0,31,0.00,,---,0.00,VWS V14.01,2013-04-04 17:58:00,
2013-04-04 13:59:00,44.1,14.7,30.21,South,169,4.0,4.0,30,0.00,,---,0.00,VWS V14.01,2013-04-04 17:59:00,
2013-04-04 14:00:00,44.1,15.4,30.21,SE,130,2.0,5.0,31,0.00,,---,0.00,VWS V14.01,2013-04-04 18:00:00,
2013-04-04 14:01:00,43.9,14.5,30.21,ESE,107,2.0,6.0,30,0.00,,---,0.00,VWS V14.01,2013-04-04 18:01:00,
2013-04-04 14:02:00,44.1,14.7,30.21,ESE,116,2.0,6.0,30,0.00,,---,0.00,VWS V14.01,2013-04-04 18:02:00,
2013-04-04 14:03:00,43.9,14.5,30.21,SSE,157,1.0,6.0,30,0.00,,---,0.00,VWS V14.01,2013-04-04 18:03:00,
2013-04-04 14:04:00,43.9,16.0,30.21,SE,141,4.0,5.0,32,0.00,,---,0.00,VWS V14.01,2013-04-04 18:04:00,
2013-04-04 14:05:00,44.1,16.1,30.21,East,92,0.0,6.0,32,0.00,,---,0.00,VWS V14.01,2013-04-04 18:05:00,
2013-04-04 14:06:00,44.1,16.1,30.21,SE,126,2.0,5.0,32,0.00,,---,0.00,VWS V14.01,2013-04-04 18:06:00,
2013-04-04 14:07:00,44.1,16.1,30.21,East,96,1.0,4.0,32,0.00,,---,0.00,VWS V14.01,2013-04-04 18:07:00,
2013-04-04 14:08:00,44.1,14.7,30.21,SE,140,1.0,4.0,30,0.00,,---,0.00,VWS V14.01,2013-04-04 18:08:00,
2013-04-04 14:09:00,44.1,14.7,30.21,SE,146,2.0,4.0,30,0.00,,---,0.00,VWS V14.01,2013-04-04 18:09:00,
2013-04-04 14:10:00,44.1,16.1,30.21,SE,146,2.0,2.0,32,0.00,,---,0.00,VWS V14.01,2013-04-04 18:10:00,
2013-04-04 14:11:00,44.1,14.7,30.21,SE,139,2.0,4.0,30,0.00,,---,0.00,VWS V14.01,2013-04-04 18:11:00,
2013-04-04 14:12:00,44.1,16.1,30.21,SE,139,4.0,4.0,32,0.00,,---,0.00,VWS V14.01,2013-04-04 18:12:00,
2013-04-04 14:13:00,44.1,14.7,30.21,SE,129,5.0,5.0,30,0.00,,---,0.00,VWS V14.01,2013-04-04 18:13:00,
2013-04-04 14:14:00,44.1,15.4,30.21,South,171,2.0,6.0,31,0.00,,---,0.00,VWS V14.01,2013-04-04 18:14:00,
2013-04-04 14:15:00,44.2,15.5,30.20,SSW,192,2.0,4.0,31,0.00,,---,0.00,VWS V14.01,2013-04-04 18:15:00,
2013-04-04 14:16:00,44.2,17.6,30.20,South,173,0.0,4.0,34,0.00,,---,0.00,VWS V14.01,2013-04-04 18:16:00,
2013-04-04 14:17:00,44.2,17.6,30.20,South,173,1.0,4.0,34,0.00,,---,0.00,VWS V14.01,2013-04-04 18:17:00,
2013-04-04 14:18:00,44.3,17.0,30.20,SE,144,5.0,5.0,33,0.00,,---,0.00,VWS V14.01,2013-04-04 18:18:00,
2013-04-04 14:19:00,44.3,15.6,30.20,SE,145,2.0,5.0,31,0.00,,---,0.00,VWS V14.01,2013-04-04 18:19:00,
2013-04-04 14:20:00,44.3,14.8,30.20,SSE,152,2.0,2.0,30,0.00,,---,0.00,VWS V14.01,2013-04-04 18:20:00,
2013-04-04 14:21:00,44.3,15.6,30.20,South,178,0.0,3.0,31,0.00,,---,0.00,VWS V14.01,2013-04-04 18:21:00,
2013-04-04 14:22:00,44.3,15.6,30.20,South,178,1.0,3.0,31,0.00,,---,0.00,VWS V14.01,2013-04-04 18:22:00,
2013-04-04 14:23:00,44.3,14.8,30.20,SE,134,5.0,5.0,30,0.00,,---,0.00,VWS V14.01,2013-04-04 18:23:00,
2013-04-04 14:24:00,44.3,14.1,30.20,SE,146,4.0,6.0,29,0.00,,---,0.00,VWS V14.01,2013-04-04 18:24:00,
2013-04-04 14:25:00,44.2,14.0,30.20,SE,146,1.0,4.0,29,0.00,,---,0.00,VWS V14.01,2013-04-04 18:25:00,
2013-04-04 14:26:00,44.2,14.8,30.20,SE,133,2.0,6.0,30,0.00,,---,0.00,VWS V14.01,2013-04-04 18:26:00,
2013-04-04 14:27:00,44.2,14.8,30.20,SE,134,1.0,3.0,30,0.00,,---,0.00,VWS V14.01,2013-04-04 18:27:00,
2013-04-04 14:28:00,44.2,14.8,30.20,SE,136,5.0,5.0,30,0.00,,---,0.00,VWS V14.01,2013-04-04 18:28:00,
2013-04-04 14:29:00,44.2,15.5,30.20,SSW,198,0.0,4.0,31,0.00,,---,0.00,VWS V14.01,2013-04-04 18:29:00,
2013-04-04 14:30:00,44.2,15.5,30.20,SSW,199,0.0,2.0,31,0.00,,---,0.00,VWS V14.01,2013-04-04 18:30:00,
2013-04-04 14:31:00,44.2,14.8,30.20,SSW,199,0.0,2.0,30,0.00,,---,0.00,VWS V14.01,2013-04-04 18:31:00,
2013-04-04 14:32:00,44.2,14.8,30.20,ESE,107,2.0,7.0,30,0.00,,---,0.00,VWS V14.01,2013-04-04 18:32:00,
2013-04-04 14:33:00,44.2,14.8,30.20,SSW,199,0.0,2.0,30,0.00,,---,0.00,VWS V14.01,2013-04-04 18:33:00,
2013-04-04 14:34:00,44.3,14.8,30.20,SSE,160,3.0,4.0,30,0.00,,---,0.00,VWS V14.01,2013-04-04 18:34:00,
2013-04-04 14:35:00,44.3,16.3,30.20,SSE,156,3.0,4.0,32,0.00,,---,0.00,VWS V14.01,2013-04-04 18:35:00,
2013-04-04 14:36:00,44.3,14.8,30.20,SSE,161,1.0,4.0,30,0.00,,---,0.00,VWS V14.01,2013-04-04 18:36:00,
2013-04-04 14:37:00,44.5,16.5,30.20,SSE,163,1.0,4.0,32,0.00,,---,0.00,VWS V14.01,2013-04-04 18:37:00,
2013-04-04 14:38:00,44.3,14.8,30.20,SSE,161,0.0,4.0,30,0.00,,---,0.00,VWS V14.01,2013-04-04 18:38:00,
2013-04-04 14:39:00,44.5,15.0,30.20,SSE,159,1.0,4.0,30,0.00,,---,0.00,VWS V14.01,2013-04-04 18:39:00,
2013-04-04 14:40:00,44.5,15.0,30.20,SE,128,2.0,9.0,30,0.00,,---,0.00,VWS V14.01,2013-04-04 18:40:00,
2013-04-04 14:41:00,44.5,15.0,30.20,SSE,148,5.0,6.0,30,0.00,,---,0.00,VWS V14.01,2013-04-04 18:41:00,
2013-04-04 14:42:00,44.5,15.0,30.20,SE,142,2.0,5.0,30,0.00,,---,0.00,VWS V14.01,2013-04-04 18:42:00,
2013-04-04 14:43:00,44.5,15.0,30.20,NW,305,3.0,6.0,30,0.00,,---,0.00,VWS V14.01,2013-04-04 18:43:00,
2013-04-04 14:44:00,44.5,14.2,30.20,South,172,0.0,5.0,29,0.00,,---,0.00,VWS V14.01,2013-04-04 18:44:00,
2013-04-04 14:45:00,44.5,13.4,30.20,South,171,3.0,4.0,28,0.00,,---,0.00,VWS V14.01,2013-04-04 18:45:00,
2013-04-04 14:46:00,44.3,14.1,30.20,South,171,1.0,3.0,29,0.00,,---,0.00,VWS V14.01,2013-04-04 18:46:00,
2013-04-04 14:47:00,44.3,14.1,30.20,South,171,0.0,2.0,29,0.00,,---,0.00,VWS V14.01,2013-04-04 18:47:00,
2013-04-04 14:48:00,44.3,14.1,30.20,South,171,1.0,3.0,29,0.00,,---,0.00,VWS V14.01,2013-04-04 18:48:00,
2013-04-04 14:49:00,44.5,15.0,30.20,SE,125,4.0,7.0,30,0.00,,---,0.00,VWS V14.01,2013-04-04 18:49:00,
2013-04-04 14:50:00,44.3,13.3,30.20,SE,130,5.0,5.0,28,0.00,,---,0.00,VWS V14.01,2013-04-04 18:50:00,
2013-04-04 14:51:00,44.5,15.0,30.20,SE,125,0.0,5.0,30,0.00,,---,0.00,VWS V14.01,2013-04-04 18:51:00,
2013-04-04 14:53:00,44.5,15.0,30.20,SE,125,0.0,5.0,30,0.00,,---,0.00,VWS V14.01,2013-04-04 18:53:00,
2013-04-04 14:54:00,44.5,14.2,30.20,SE,139,6.0,6.0,29,0.00,,---,0.00,VWS V14.01,2013-04-04 18:54:00,
2013-04-04 14:55:00,44.5,14.2,30.20,SE,131,0.0,6.0,29,0.00,,---,0.00,VWS V14.01,2013-04-04 18:55:00,
2013-04-04 14:56:00,44.5,15.8,30.20,SE,130,1.0,5.0,31,0.00,,---,0.00,VWS V14.01,2013-04-04 18:56:00,
2013-04-04 14:57:00,44.5,16.5,30.20,SW,235,3.0,3.0,32,0.00,,---,0.00,VWS V14.01,2013-04-04 18:57:00,
2013-04-04 14:58:00,44.5,15.8,30.20,SE,129,0.0,5.0,31,0.00,,---,0.00,VWS V14.01,2013-04-04 18:58:00,
2013-04-04 14:59:00,44.5,15.0,30.20,SE,142,5.0,5.0,30,0.00,,---,0.00,VWS V14.01,2013-04-04 18:59:00,
2013-04-04 15:00:00,44.5,15.0,30.20,WNW,295,0.0,5.0,30,0.00,,---,0.00,VWS V14.01,2013-04-04 19:00:00,
2013-04-04 15:01:00,44.5,15.8,30.20,WNW,285,1.0,2.0,31,0.00,,---,0.00,VWS V14.01,2013-04-04 19:01:00,
2013-04-04 15:02:00,44.5,15.8,30.20,SE,130,3.0,5.0,31,0.00,,---,0.00,VWS V14.01,2013-04-04 19:02:00,
2013-04-04 15:03:00,44.5,15.8,30.20,WNW,295,1.0,2.0,31,0.00,,---,0.00,VWS V14.01,2013-04-04 19:03:00,
2013-04-04 15:04:00,44.5,15.8,30.20,SE,128,0.0,6.0,31,0.00,,---,0.00,VWS V14.01,2013-04-04 19:04:00,
2013-04-04 15:05:00,44.5,16.5,30.20,South,187,2.0,3.0,32,0.00,,---,0.00,VWS V14.01,2013-04-04 19:05:00,
2013-04-04 15:06:00,44.6,16.6,30.20,SW,230,1.0,4.0,32,0.00,,---,0.00,VWS V14.01,2013-04-04 19:06:00,
2013-04-04 15:07:00,44.6,15.9,30.20,SE,132,4.0,9.0,31,0.00,,---,0.00,VWS V14.01,2013-04-04 19:07:00,
2013-04-04 15:08:00,44.6,16.6,30.20,SW,230,4.0,4.0,32,0.00,,---,0.00,VWS V14.01,2013-04-04 19:08:00,
2013-04-04 15:09:00,44.5,15.8,30.20,NNW,338,2.0,6.0,31,0.00,,---,0.00,VWS V14.01,2013-04-04 19:09:00,
2013-04-04 15:10:00,44.5,15.8,30.20,South,190,2.0,5.0,31,0.00,,---,0.00,VWS V14.01,2013-04-04 19:10:00,
2013-04-04 15:11:00,44.5,14.2,30.20,SSW,211,1.0,4.0,29,0.00,,---,0.00,VWS V14.01,2013-04-04 19:11:00,
2013-04-04 15:12:00,44.5,15.0,30.20,SE,132,4.0,5.0,30,0.00,,---,0.00,VWS V14.01,2013-04-04 19:12:00,
2013-04-04 15:13:00,44.5,14.2,30.20,SSW,212,2.0,4.0,29,0.00,,---,0.00,VWS V14.01,2013-04-04 19:13:00,
2013-04-04 15:14:00,44.6,15.9,30.20,West,265,4.0,4.0,31,0.00,,---,0.00,VWS V14.01,2013-04-04 19:14:00,
2013-04-04 15:15:00,44.6,14.3,30.20,SSE,150,5.0,8.0,29,0.00,,---,0.00,VWS V14.01,2013-04-04 19:15:00,
2013-04-04 15:16:00,44.6,15.1,30.20,South,173,3.0,7.0,30,0.00,,---,0.00,VWS V14.01,2013-04-04 19:16:00,
2013-04-04 15:17:00,44.6,15.1,30.20,ENE,70,0.0,5.0,30,0.00,,---,0.00,VWS V14.01,2013-04-04 19:17:00,
2013-04-04 15:18:00,44.6,14.3,30.20,SSE,167,5.0,7.0,29,0.00,,---,0.00,VWS V14.01,2013-04-04 19:18:00,
2013-04-04 15:19:00,44.6,14.3,30.20,SSE,148,5.0,5.0,29,0.00,,---,0.00,VWS V14.01,2013-04-04 19:19:00,
2013-04-04 15:20:00,44.6,13.5,30.20,ENE,74,1.0,6.0,28,0.00,,---,0.00,VWS V14.01,2013-04-04 19:20:00,
2013-04-04 15:21:00,44.6,15.1,30.20,SE,134,1.0,1.0,30,0.00,,---,0.00,VWS V14.01,2013-04-04 19:21:00,
2013-04-04 15:22:00,44.6,14.3,30.20,ESE,107,1.0,1.0,29,0.00,,---,0.00,VWS V14.01,2013-04-04 19:22:00,
2013-04-04 15:23:00,44.5,14.2,30.20,SSW,209,6.0,8.0,29,0.00,,---,0.00,VWS V14.01,2013-04-04 19:23:00,
2013-04-04 15:24:00,44.5,14.2,30.20,ESE,112,4.0,6.0,29,0.00,,---,0.00,VWS V14.01,2013-04-04 19:24:00,
2013-04-04 15:25:00,44.5,15.0,30.20,South,169,2.0,6.0,30,0.00,,---,0.00,VWS V14.01,2013-04-04 19:25:00,
2013-04-04 15:26:00,44.5,14.2,30.20,South,183,0.0,4.0,29,0.00,,---,0.00,VWS V14.01,2013-04-04 19:26:00,
2013-04-04 15:27:00,44.5,15.0,30.20,South,184,1.0,1.0,30,0.00,,---,0.00,VWS V14.01,2013-04-04 19:27:00,
2013-04-04 15:28:00,44.5,14.2,30.20,South,183,0.0,4.0,29,0.00,,---,0.00,VWS V14.01,2013-04-04 19:28:00,
2013-04-04 15:29:00,44.5,14.2,30.20,South,184,0.0,2.0,29,0.00,,---,0.00,VWS V14.01,2013-04-04 19:29:00,
2013-04-04 15:30:00,44.5,15.0,30.19,South,184,1.0,2.0,30,0.00,,---,0.00,VWS V14.01,2013-04-04 19:30:00,
2013-04-04 15:31:00,44.6,15.9,30.19,SE,129,2.0,6.0,31,0.00,,---,0.00,VWS V14.01,2013-04-04 19:31:00,
2013-04-04 15:32:00,44.6,15.1,30.19,SE,146,0.0,5.0,30,0.00,,---,0.00,VWS V14.01,2013-04-04 19:32:00,
2013-04-04 15:33:00,44.6,15.9,30.19,SE,140,5.0,6.0,31,0.00,,---,0.00,VWS V14.01,2013-04-04 19:33:00,
2013-04-04 15:34:00,44.6,15.1,30.19,SSE,148,1.0,1.0,30,0.00,,---,0.00,VWS V14.01,2013-04-04 19:34:00,
2013-04-04 15:35:00,44.6,15.1,30.19,SE,135,0.0,3.0,30,0.00,,---,0.00,VWS V14.01,2013-04-04 19:35:00,
2013-04-04 15:36:00,44.6,15.9,30.19,SE,134,4.0,6.0,31,0.00,,---,0.00,VWS V14.01,2013-04-04 19:36:00,
2013-04-04 15:37:00,44.6,15.9,30.19,ESE,121,4.0,6.0,31,0.00,,---,0.00,VWS V14.01,2013-04-04 19:37:00,
2013-04-04 15:38:00,44.6,14.3,30.19,SE,132,5.0,7.0,29,0.00,,---,0.00,VWS V14.01,2013-04-04 19:38:00,
2013-04-04 15:39:00,44.6,15.1,30.19,SE,134,3.0,5.0,30,0.00,,---,0.00,VWS V14.01,2013-04-04 19:39:00,
2013-04-04 15:40:00,44.8,15.3,30.19,SE,142,2.0,3.0,30,0.00,,---,0.00,VWS V14.01,2013-04-04 19:40:00,
2013-04-04 15:41:00,44.8,15.3,30.19,SE,145,6.0,6.0,30,0.00,,---,0.00,VWS V14.01,2013-04-04 19:41:00,
2013-04-04 15:42:00,44.8,15.3,30.19,SE,128,4.0,6.0,30,0.00,,---,0.00,VWS V14.01,2013-04-04 19:42:00,
2013-04-04 15:43:00,44.8,15.3,30.19,SSE,154,2.0,5.0,30,0.00,,---,0.00,VWS V14.01,2013-04-04 19:43:00,
2013-04-04 15:44:00,44.8,15.3,30.19,SSE,154,2.0,2.0,30,0.00,,---,0.00,VWS V14.01,2013-04-04 19:44:00,
2013-04-04 15:45:00,44.8,15.3,30.18,SSE,154,1.0,2.0,30,0.00,,---,0.00,VWS V14.01,2013-04-04 19:45:00,
2013-04-04 15:46:00,44.8,15.3,30.18,ESE,103,0.0,8.0,30,0.00,,---,0.00,VWS V14.01,2013-04-04 19:46:00,
2013-04-04 15:47:00,44.9,16.1,30.18,NE,56,5.0,5.0,31,0.00,,---,0.00,VWS V14.01,2013-04-04 19:47:00,
2013-04-04 15:48:00,44.8,15.3,30.18,ESE,103,3.0,8.0,30,0.00,,---,0.00,VWS V14.01,2013-04-04 19:48:00,
2013-04-04 15:49:00,44.9,15.4,30.18,ENE,71,2.0,4.0,30,0.00,,---,0.00,VWS V14.01,2013-04-04 19:49:00,
2013-04-04 15:50:00,44.9,16.1,30.18,ENE,73,1.0,2.0,31,0.00,,---,0.00,VWS V14.01,2013-04-04 19:50:00,
2013-04-04 15:51:00,44.9,15.4,30.18,SE,138,5.0,5.0,30,0.00,,---,0.00,VWS V14.01,2013-04-04 19:51:00,
2013-04-04 15:52:00,44.9,14.6,30.18,SE,134,2.0,5.0,29,0.00,,---,0.00,VWS V14.01,2013-04-04 19:52:00,
2013-04-04 15:53:00,44.9,16.1,30.18,SE,142,2.0,5.0,31,0.00,,---,0.00,VWS V14.01,2013-04-04 19:53:00,
2013-04-04 15:54:00,44.9,16.1,30.18,South,170,2.0,5.0,31,0.00,,---,0.00,VWS V14.01,2013-04-04 19:54:00,
2013-04-04 15:55:00,44.9,15.4,30.18,NW,306,2.0,6.0,30,0.00,,---,0.00,VWS V14.01,2013-04-04 19:55:00,
2013-04-04 15:56:00,44.9,16.8,30.18,SSE,158,2.0,4.0,32,0.00,,---,0.00,VWS V14.01,2013-04-04 19:56:00,
2013-04-04 15:57:00,44.9,15.4,30.18,SE,143,0.0,5.0,30,0.00,,---,0.00,VWS V14.01,2013-04-04 19:57:00,
2013-04-04 15:58:00,44.9,16.1,30.18,West,260,1.0,4.0,31,0.00,,---,0.00,VWS V14.01,2013-04-04 19:58:00,
2013-04-04 15:59:00,44.8,15.3,30.18,SE,128,5.0,5.0,30,0.00,,---,0.00,VWS V14.01,2013-04-04 19:59:00,
2013-04-04 16:00:00,44.8,15.3,30.17,ESE,112,1.0,5.0,30,0.00,,---,0.00,VWS V14.01,2013-04-04 20:00:00,
2013-04-04 16:01:00,44.8,15.3,30.17,East,94,0.0,4.0,30,0.00,,---,0.00,VWS V14.01,2013-04-04 20:01:00,
2013-04-04 16:02:00,44.8,16.0,30.17,SSE,159,5.0,5.0,31,0.00,,---,0.00,VWS V14.01,2013-04-04 20:02:00,
2013-04-04 16:03:00,44.8,15.3,30.17,East,94,0.0,4.0,30,0.00,,---,0.00,VWS V14.01,2013-04-04 20:03:00,
2013-04-04 16:04:00,44.9,16.1,30.17,SE,140,2.0,4.0,31,0.00,,---,0.00,VWS V14.01,2013-04-04 20:04:00,
2013-04-04 16:05:00,44.9,16.1,30.17,SE,138,6.0,6.0,31,0.00,,---,0.00,VWS V14.01,2013-04-04 20:05:00,
2013-04-04 16:06:00,44.9,16.1,30.17,SE,136,3.0,6.0,31,0.00,,---,0.00,VWS V14.01,2013-04-04 20:06:00,
2013-04-04 16:07:00,44.9,16.1,30.17,SE,140,4.0,6.0,31,0.00,,---,0.00,VWS V14.01,2013-04-04 20:07:00,
2013-04-04 16:08:00,44.9,16.1,30.17,SE,136,1.0,6.0,31,0.00,,---,0.00,VWS V14.01,2013-04-04 20:08:00,
2013-04-04 16:09:00,45.1,16.3,30.17,SE,132,0.0,6.0,31,0.00,,---,0.00,VWS V14.01,2013-04-04 20:09:00,
2013-04-04 16:10:00,45.1,17.0,30.17,SE,127,5.0,6.0,32,0.00,,---,0.00,VWS V14.01,2013-04-04 20:10:00,
2013-04-04 16:11:00,45.1,16.3,30.17,SE,142,3.0,6.0,31,0.00,,---,0.00,VWS V14.01,2013-04-04 20:11:00,
2013-04-04 16:12:00,45.1,15.5,30.17,SE,138,0.0,5.0,30,0.00,,---,0.00,VWS V14.01,2013-04-04 20:12:00,
2013-04-04 16:13:00,45.1,16.3,30.17,SE,142,5.0,6.0,31,0.00,,---,0.00,VWS V14.01,2013-04-04 20:13:00,
2013-04-04 16:14:00,45.1,16.3,30.17,SE,133,1.0,5.0,31,0.00,,---,0.00,VWS V14.01,2013-04-04 20:14:00,
2013-04-04 16:15:00,45.1,16.3,30.17,SE,125,0.0,5.0,31,0.00,,---,0.00,VWS V14.01,2013-04-04 20:15:00,
2013-04-04 16:16:00,45.1,16.3,30.17,SE,137,2.0,4.0,31,0.00,,---,0.00,VWS V14.01,2013-04-04 20:16:00,
2013-04-04 16:17:00,45.2,16.4,30.17,SE,144,1.0,5.0,31,0.00,,---,0.00,VWS V14.01,2013-04-04 20:17:00,
2013-04-04 16:18:00,45.1,16.3,30.17,SE,137,2.0,4.0,31,0.00,,---,0.00,VWS V14.01,2013-04-04 20:18:00,
2013-04-04 16:19:00,45.2,16.4,30.17,SE,142,3.0,5.0,31,0.00,,---,0.00,VWS V14.01,2013-04-04 20:19:00,
2013-04-04 16:20:00,45.2,17.1,30.17,SE,146,5.0,6.0,32,0.00,,---,0.00,VWS V14.01,2013-04-04 20:20:00,
2013-04-04 16:21:00,45.2,16.4,30.17,SE,137,1.0,6.0,31,0.00,,---,0.00,VWS V14.01,2013-04-04 20:21:00,
2013-04-04 16:22:00,45.2,17.1,30.17,SE,137,1.0,6.0,32,0.00,,---,0.00,VWS V14.01,2013-04-04 20:22:00,
2013-04-04 16:23:00,45.2,17.1,30.17,SE,134,5.0,5.0,32,0.00,,---,0.00,VWS V14.01,2013-04-04 20:23:00,
2013-04-04 16:24:00,45.2,17.1,30.17,SE,142,3.0,6.0,32,0.00,,---,0.00,VWS V14.01,2013-04-04 20:24:00,
2013-04-04 16:25:00,45.2,17.1,30.17,SE,142,5.0,6.0,32,0.00,,---,0.00,VWS V14.01,2013-04-04 20:25:00,
2013-04-04 16:26:00,45.2,17.1,30.17,SE,138,0.0,7.0,32,0.00,,---,0.00,VWS V14.01,2013-04-04 20:26:00,
2013-04-04 16:27:00,45.2,17.1,30.17,SE,138,4.0,7.0,32,0.00,,---,0.00,VWS V14.01,2013-04-04 20:27:00,
2013-04-04 16:28:00,45.2,17.1,30.17,SE,145,5.0,5.0,32,0.00,,---,0.00,VWS V14.01,2013-04-04 20:28:00,
2013-04-04 16:29:00,45.1,17.0,30.17,SSE,166,3.0,9.0,32,0.00,,---,0.00,VWS V14.01,2013-04-04 20:29:00,
2013-04-04 16:30:00,45.1,17.0,30.16,South,178,4.0,5.0,32,0.00,,---,0.00,VWS V14.01,2013-04-04 20:30:00,
2013-04-04 16:31:00,45.1,17.0,30.16,South,170,5.0,6.0,32,0.00,,---,0.00,VWS V14.01,2013-04-04 20:31:00,
2013-04-04 16:32:00,45.1,17.0,30.16,ESE,120,5.0,5.0,32,0.00,,---,0.00,VWS V14.01,2013-04-04 20:32:00,
2013-04-04 16:33:00,44.9,18.2,30.16,South,172,1.0,1.0,34,0.00,,---,0.00,VWS V14.01,2013-04-04 20:33:00,
2013-04-04 16:34:00,44.9,18.2,30.16,South,174,1.0,5.0,34,0.00,,---,0.00,VWS V14.01,2013-04-04 20:34:00,
2013-04-04 16:35:00,44.8,18.8,30.16,South,174,1.0,2.0,35,0.00,,---,0.00,VWS V14.01,2013-04-04 20:35:00,
2013-04-04 16:36:00,44.8,18.2,30.16,South,187,3.0,5.0,34,0.00,,---,0.00,VWS V14.01,2013-04-04 20:36:00,
2013-04-04 16:37:00,44.8,18.2,30.16,South,184,4.0,4.0,34,0.00,,---,0.00,VWS V14.01,2013-04-04 20:37:00,
2013-04-04 16:38:00,44.6,16.6,30.16,SSW,198,4.0,7.0,32,0.00,,---,0.00,VWS V14.01,2013-04-04 20:38:00,
2013-04-04 16:39:00,44.6,16.6,30.16,SSE,153,5.0,5.0,32,0.00,,---,0.00,VWS V14.01,2013-04-04 20:39:00,
2013-04-04 16:40:00,44.6,17.3,30.16,SE,136,4.0,5.0,33,0.00,,---,0.00,VWS V14.01,2013-04-04 20:40:00,
2013-04-04 16:41:00,44.6,16.6,30.16,SE,135,2.0,4.0,32,0.00,,---,0.00,VWS V14.01,2013-04-04 20:41:00,
2013-04-04 16:42:00,44.6,16.6,30.16,SE,134,0.0,4.0,32,0.00,,---,0.00,VWS V14.01,2013-04-04 20:42:00,
2013-04-04 16:43:00,44.6,16.6,30.16,SE,137,0.0,6.0,32,0.00,,---,0.00,VWS V14.01,2013-04-04 20:43:00,
2013-04-04 16:45:00,44.6,17.3,30.15,SE,139,0.0,5.0,33,0.00,,---,0.00,VWS V14.01,2013-04-04 20:45:00,
2013-04-04 16:46:00,44.6,18.0,30.15,SE,139,1.0,1.0,34,0.00,,---,0.00,VWS V14.01,2013-04-04 20:46:00,
2013-04-04 16:47:00,44.6,18.0,30.15,SE,139,0.0,1.0,34,0.00,,---,0.00,VWS V14.01,2013-04-04 20:47:00,
2013-04-04 16:48:00,44.6,18.0,30.15,SE,138,0.0,4.0,34,0.00,,---,0.00,VWS V14.01,2013-04-04 20:48:00,
2013-04-04 16:49:00,44.6,17.3,30.15,SE,138,1.0,3.0,33,0.00,,---,0.00,VWS V14.01,2013-04-04 20:49:00,
2013-04-04 16:50:00,44.6,17.3,30.15,SE,138,4.0,4.0,33,0.00,,---,0.00,VWS V14.01,2013-04-04 20:50:00,
2013-04-04 16:51:00,44.6,17.3,30.15,SSE,162,1.0,5.0,33,0.00,,---,0.00,VWS V14.01,2013-04-04 20:51:00,
2013-04-04 16:52:00,44.6,17.3,30.15,SSE,163,2.0,5.0,33,0.00,,---,0.00,VWS V14.01,2013-04-04 20:52:00,
2013-04-04 16:53:00,44.6,18.0,30.15,ESE,123,1.0,6.0,34,0.00,,---,0.00,VWS V14.01,2013-04-04 20:53:00,
2013-04-04 16:54:00,44.5,16.5,30.15,SE,132,0.0,4.0,32,0.00,,---,0.00,VWS V14.01,2013-04-04 20:54:00,
2013-04-04 16:55:00,44.5,17.2,30.15,SE,132,0.0,3.0,33,0.00,,---,0.00,VWS V14.01,2013-04-04 20:55:00,
2013-04-04 16:56:00,44.5,17.2,30.15,SE,136,2.0,6.0,33,0.00,,---,0.00,VWS V14.01,2013-04-04 20:56:00,
2013-04-04 16:57:00,44.6,17.3,30.15,SE,136,6.0,6.0,33,0.00,,---,0.00,VWS V14.01,2013-04-04 20:57:00,
2013-04-04 16:58:00,44.5,16.5,30.15,SE,143,0.0,3.0,32,0.00,,---,0.00,VWS V14.01,2013-04-04 20:58:00,
2013-04-04 16:59:00,44.5,16.5,30.15,SE,144,1.0,5.0,32,0.00,,---,0.00,VWS V14.01,2013-04-04 20:59:00,
2013-04-04 17:00:00,44.5,17.2,30.14,SE,144,0.0,4.0,33,0.00,,---,0.00,VWS V14.01,2013-04-04 21:00:00,
2013-04-04 17:01:00,44.5,17.9,30.14,SE,146,2.0,2.0,34,0.00,,---,0.00,VWS V14.01,2013-04-04 21:01:00,
2013-04-04 17:02:00,44.5,17.2,30.14,SE,144,0.0,1.0,33,0.00,,---,0.00,VWS V14.01,2013-04-04 21:02:00,
2013-04-04 17:03:00,44.5,17.9,30.14,SE,137,4.0,4.0,34,0.00,,---,0.00,VWS V14.01,2013-04-04 21:03:00,
2013-04-04 17:04:00,44.5,17.2,30.14,SSE,150,1.0,5.0,33,0.00,,---,0.00,VWS V14.01,2013-04-04 21:04:00,
2013-04-04 17:05:00,44.5,16.5,30.14,SE,135,0.0,2.0,32,0.00,,---,0.00,VWS V14.01,2013-04-04 21:05:00,
2013-04-04 17:06:00,44.3,16.3,30.14,SE,140,3.0,7.0,32,0.00,,---,0.00,VWS V14.01,2013-04-04 21:06:00,
2013-04-04 17:07:00,44.3,17.0,30.14,SE,136,4.0,7.0,33,0.00,,---,0.00,VWS V14.01,2013-04-04 21:07:00,
2013-04-04 17:08:00,44.3,17.0,30.14,SE,133,1.0,6.0,33,0.00,,---,0.00,VWS V14.01,2013-04-04 21:08:00,
2013-04-04 17:09:00,44.3,17.0,30.14,SSE,148,5.0,5.0,33,0.00,,---,0.00,VWS V14.01,2013-04-04 21:09:00,
2013-04-04 17:10:00,44.3,17.0,30.14,SE,127,1.0,5.0,33,0.00,,---,0.00,VWS V14.01,2013-04-04 21:10:00,
2013-04-04 17:11:00,44.2,16.9,30.14,South,172,3.0,6.0,33,0.00,,---,0.00,VWS V14.01,2013-04-04 21:11:00,
2013-04-04 17:12:00,44.3,17.0,30.14,ESE,121,4.0,6.0,33,0.00,,---,0.00,VWS V14.01,2013-04-04 21:12:00,
2013-04-04 17:13:00,44.2,16.2,30.14,SE,126,2.0,3.0,32,0.00,,---,0.00,VWS V14.01,2013-04-04 21:13:00,
2013-04-04 17:14:00,44.2,16.2,30.14,South,175,2.0,6.0,32,0.00,,---,0.00,VWS V14.01,2013-04-04 21:14:00,
2013-04-04 17:15:00,44.2,16.2,30.15,South,180,1.0,6.0,32,0.00,,---,0.00,VWS V14.01,2013-04-04 21:15:00,
2013-04-04 17:16:00,44.2,16.2,30.15,South,178,3.0,6.0,32,0.00,,---,0.00,VWS V14.01,2013-04-04 21:16:00,
2013-04-04 17:17:00,44.2,16.2,30.15,SE,146,5.0,5.0,32,0.00,,---,0.00,VWS V14.01,2013-04-04 21:17:00,
2013-04-04 17:18:00,44.1,16.1,30.15,South,176,4.0,4.0,32,0.00,,---,0.00,VWS V14.01,2013-04-04 21:18:00,
2013-04-04 17:19:00,44.1,16.9,30.15,South,176,0.0,4.0,33,0.00,,---,0.00,VWS V14.01,2013-04-04 21:19:00,
2013-04-04 17:20:00,44.1,16.9,30.15,SE,138,2.0,6.0,33,0.00,,---,0.00,VWS V14.01,2013-04-04 21:20:00,
2013-04-04 17:21:00,44.1,17.5,30.15,SSE,161,5.0,7.0,34,0.00,,---,0.00,VWS V14.01,2013-04-04 21:21:00,
2013-04-04 17:22:00,44.1,17.5,30.15,SE,141,3.0,3.0,34,0.00,,---,0.00,VWS V14.01,2013-04-04 21:22:00,
2013-04-04 17:23:00,44.1,17.5,30.15,SE,128,5.0,6.0,34,0.00,,---,0.00,VWS V14.01,2013-04-04 21:23:00,
2013-04-04 17:24:00,44.1,16.9,30.15,SE,146,7.0,8.0,33,0.00,,---,0.00,VWS V14.01,2013-04-04 21:24:00,
2013-04-04 17:25:00,44.1,16.9,30.15,SE,143,2.0,8.0,33,0.00,,---,0.00,VWS V14.01,2013-04-04 21:25:00,
2013-04-04 17:26:00,44.1,16.9,30.15,SE,134,1.0,6.0,33,0.00,,---,0.00,VWS V14.01,2013-04-04 21:26:00,
2013-04-04 17:27:00,44.1,16.9,30.15,SE,134,2.0,6.0,33,0.00,,---,0.00,VWS V14.01,2013-04-04 21:27:00,
2013-04-04 17:28:00,44.1,16.9,30.15,SE,134,0.0,1.0,33,0.00,,---,0.00,VWS V14.01,2013-04-04 21:28:00,
2013-04-04 17:29:00,44.1,18.2,30.15,East,101,4.0,6.0,35,0.00,,---,0.00,VWS V14.01,2013-04-04 21:29:00,
2013-04-04 17:30:00,44.1,17.5,30.14,ESE,115,0.0,4.0,34,0.00,,---,0.00,VWS V14.01,2013-04-04 21:30:00,
2013-04-04 17:31:00,43.9,16.7,30.14,SE,133,1.0,6.0,33,0.00,,---,0.00,VWS V14.01,2013-04-04 21:31:00,
2013-04-04 17:32:00,43.9,16.7,30.14,SE,133,4.0,6.0,33,0.00,,---,0.00,VWS V14.01,2013-04-04 21:32:00,
2013-04-04 17:33:00,43.9,16.7,30.14,SE,138,3.0,6.0,33,0.00,,---,0.00,VWS V14.01,2013-04-04 21:33:00,
2013-04-04 17:34:00,43.9,16.7,30.14,SE,137,1.0,5.0,33,0.00,,---,0.00,VWS V14.01,2013-04-04 21:34:00,
2013-04-04 17:35:00,43.9,16.7,30.14,SE,137,1.0,4.0,33,0.00,,---,0.00,VWS V14.01,2013-04-04 21:35:00,
2013-04-04 17:36:00,43.9,16.7,30.14,SE,138,5.0,6.0,33,0.00,,---,0.00,VWS V14.01,2013-04-04 21:36:00,
2013-04-04 17:37:00,43.9,16.7,30.14,SE,136,2.0,2.0,33,0.00,,---,0.00,VWS V14.01,2013-04-04 21:37:00,
2013-04-04 17:38:00,43.8,16.6,30.14,SE,127,1.0,2.0,33,0.00,,---,0.00,VWS V14.01,2013-04-04 21:38:00,
2013-04-04 17:39:00,43.8,16.6,30.14,SE,136,2.0,4.0,33,0.00,,---,0.00,VWS V14.01,2013-04-04 21:39:00,
2013-04-04 17:40:00,43.8,17.3,30.14,SE,136,7.0,7.0,34,0.00,,---,0.00,VWS V14.01,2013-04-04 21:40:00,
2013-04-04 17:41:00,43.8,16.6,30.14,SE,134,1.0,8.0,33,0.00,,---,0.00,VWS V14.01,2013-04-04 21:41:00,
2013-04-04 17:42:00,43.8,16.6,30.14,SE,138,5.0,8.0,33,0.00,,---,0.00,VWS V14.01,2013-04-04 21:42:00,
2013-04-04 17:43:00,43.6,16.4,30.14,SSE,159,5.0,8.0,33,0.00,,---,0.00,VWS V14.01,2013-04-04 21:43:00,
2013-04-04 17:44:00,43.6,16.4,30.14,SSE,157,5.0,6.0,33,0.00,,---,0.00,VWS V14.01,2013-04-04 21:44:00,
2013-04-04 17:45:00,43.6,16.4,30.12,SSE,168,4.0,5.0,33,0.00,,---,0.00,VWS V14.01,2013-04-04 21:45:00,
2013-04-04 17:46:00,43.5,15.6,30.12,East,90,4.0,7.0,32,0.00,,---,0.00,VWS V14.01,2013-04-04 21:46:00,
2013-04-04 17:47:00,43.5,15.6,30.12,SE,128,3.0,7.0,32,0.00,,---,0.00,VWS V14.01,2013-04-04 21:47:00,
2013-04-04 17:48:00,43.6,15.7,30.12,SE,144,5.0,7.0,32,0.00,,---,0.00,VWS V14.01,2013-04-04 21:48:00,
2013-04-04 17:49:00,43.5,15.6,30.12,SSE,148,4.0,5.0,32,0.00,,---,0.00,VWS V14.01,2013-04-04 21:49:00,
2013-04-04 17:50:00,43.5,16.3,30.12,ESE,123,4.0,6.0,33,0.00,,---,0.00,VWS V14.01,2013-04-04 21:50:00,
2013-04-04 17:51:00,43.5,15.6,30.12,ESE,123,1.0,5.0,32,0.00,,---,0.00,VWS V14.01,2013-04-04 21:51:00,
2013-04-04 17:52:00,43.3,16.1,30.12,ESE,123,0.0,5.0,33,0.00,,---,0.00,VWS V14.01,2013-04-04 21:52:00,
2013-04-04 17:53:00,43.5,15.6,30.12,ESE,123,1.0,5.0,32,0.00,,---,0.00,VWS V14.01,2013-04-04 21:53:00,
2013-04-04 17:54:00,43.3,15.4,30.12,SE,127,0.0,6.0,32,0.00,,---,0.00,VWS V14.01,2013-04-04 21:54:00,
2013-04-04 17:55:00,43.3,16.1,30.12,South,188,5.0,6.0,33,0.00,,---,0.00,VWS V14.01,2013-04-04 21:55:00,
2013-04-04 17:56:00,43.3,15.4,30.12,SE,144,8.0,8.0,32,0.00,,---,0.00,VWS V14.01,2013-04-04 21:56:00,
2013-04-04 17:57:00,43.2,15.4,30.12,SSE,159,2.0,8.0,32,0.00,,---,0.00,VWS V14.01,2013-04-04 21:57:00,
2013-04-04 17:58:00,43.3,15.4,30.12,SE,125,4.0,6.0,32,0.00,,---,0.00,VWS V14.01,2013-04-04 21:58:00,
2013-04-04 17:59:00,43.2,15.4,30.12,ESE,109,2.0,6.0,32,0.00,,---,0.00,VWS V14.01,2013-04-04 21:59:00,
2013-04-04 18:00:00,43.2,15.4,30.13,SSE,153,3.0,9.0,32,0.00,,---,0.00,VWS V14.01,2013-04-04 22:00:00,
2013-04-04 18:01:00,43.1,15.3,30.13,SE,132,7.0,7.0,32,0.00,,---,0.00,VWS V14.01,2013-04-04 22:01:00,
2013-04-04 18:02:00,43.1,15.3,30.13,SE,128,5.0,7.0,32,0.00,,---,0.00,VWS V14.01,2013-04-04 22:02:00,
2013-04-04 18:03:00,43.1,15.3,30.13,South,180,1.0,5.0,32,0.00,,---,0.00,VWS V14.01,2013-04-04 22:03:00,
2013-04-04 18:04:00,42.9,15.8,30.13,SE,130,2.0,8.0,33,0.00,,---,0.00,VWS V14.01,2013-04-04 22:04:00,
2013-04-04 18:05:00,42.9,16.5,30.13,SE,128,4.0,7.0,34,0.00,,---,0.00,VWS V14.01,2013-04-04 22:05:00,
2013-04-04 18:06:00,42.9,16.5,30.13,ESE,113,6.0,8.0,34,0.00,,---,0.00,VWS V14.01,2013-04-04 22:06:00,
2013-04-04 18:07:00,42.9,17.1,30.13,SSE,148,5.0,7.0,35,0.00,,---,0.00,VWS V14.01,2013-04-04 22:07:00,
2013-04-04 18:08:00,42.9,16.5,30.13,ESE,114,3.0,6.0,34,0.00,,---,0.00,VWS V14.01,2013-04-04 22:08:00,
2013-04-04 18:09:00,42.8,17.7,30.13,ESE,122,1.0,8.0,36,0.00,,---,0.00,VWS V14.01,2013-04-04 22:09:00,
2013-04-04 18:10:00,42.8,18.4,30.13,ESE,112,3.0,5.0,37,0.00,,---,0.00,VWS V14.01,2013-04-04 22:10:00,
2013-04-04 18:11:00,42.8,18.4,30.13,SSE,164,0.0,5.0,37,0.00,,---,0.00,VWS V14.01,2013-04-04 22:11:00,
2013-04-04 18:12:00,42.8,19.6,30.13,SE,146,4.0,7.0,39,0.00,,---,0.00,VWS V14.01,2013-04-04 22:12:00,
2013-04-04 18:13:00,42.8,18.4,30.13,SSE,164,1.0,5.0,37,0.00,,---,0.00,VWS V14.01,2013-04-04 22:13:00,
2013-04-04 18:14:00,42.6,20.0,30.13,South,186,5.0,6.0,40,0.00,,---,0.00,VWS V14.01,2013-04-04 22:14:00,
2013-04-04 18:15:00,42.5,19.9,30.14,South,173,3.0,7.0,40,0.00,,---,0.00,VWS V14.01,2013-04-04 22:15:00,
2013-04-04 18:16:00,42.3,20.9,30.14,SE,128,6.0,11.0,42,0.00,,---,0.00,VWS V14.01,2013-04-04 22:16:00,
2013-04-04 18:17:00,42.2,21.3,30.14,ESE,103,5.0,8.0,43,0.00,,---,0.00,VWS V14.01,2013-04-04 22:17:00,
2013-04-04 18:18:00,42.3,20.9,30.14,SSE,157,6.0,11.0,42,0.00,,---,0.00,VWS V14.01,2013-04-04 22:18:00,
2013-04-04 18:19:00,42.1,21.8,30.14,South,169,6.0,6.0,44,0.00,,---,0.00,VWS V14.01,2013-04-04 22:19:00,
2013-04-04 18:20:00,41.9,22.1,30.14,East,94,9.0,9.0,45,0.00,,---,0.00,VWS V14.01,2013-04-04 22:20:00,
2013-04-04 18:21:00,41.8,22.5,30.14,ESE,119,5.0,9.0,46,0.00,,---,0.00,VWS V14.01,2013-04-04 22:21:00,
2013-04-04 18:22:00,41.6,22.9,30.14,ESE,122,8.0,8.0,47,0.00,,---,0.00,VWS V14.01,2013-04-04 22:22:00,
2013-04-04 18:23:00,41.8,22.5,30.14,SE,130,6.0,9.0,46,0.00,,---,0.00,VWS V14.01,2013-04-04 22:23:00,
2013-04-04 18:24:00,41.2,23.5,30.14,SE,135,6.0,10.0,49,0.00,,---,0.00,VWS V14.01,2013-04-04 22:24:00,
2013-04-04 18:25:00,41.1,23.9,30.14,ESE,104,5.0,8.0,50,0.00,,---,0.00,VWS V14.01,2013-04-04 22:25:00,
2013-04-04 18:26:00,40.8,24.1,30.14,SE,141,4.0,8.0,51,0.00,,---,0.00,VWS V14.01,2013-04-04 22:26:00,
2013-04-04 18:27:00,40.6,23.9,30.14,SE,132,7.0,7.0,51,0.00,,---,0.00,VWS V14.01,2013-04-04 22:27:00,
2013-04-04 18:28:00,40.9,24.2,30.14,SSE,157,6.0,6.0,51,0.00,,---,0.00,VWS V14.01,2013-04-04 22:28:00,
2013-04-04 18:29:00,40.2,24.9,30.14,East,91,5.0,9.0,54,0.00,,---,0.00,VWS V14.01,2013-04-04 22:29:00,
2013-04-04 18:30:00,40.1,24.8,30.14,SE,129,5.0,8.0,54,0.00,,---,0.00,VWS V14.01,2013-04-04 22:30:00,
2013-04-04 18:31:00,39.9,25.1,30.14,SE,146,1.0,9.0,55,0.00,,---,0.00,VWS V14.01,2013-04-04 22:31:00,
2013-04-04 18:32:00,39.9,25.1,30.14,SE,138,5.0,9.0,55,0.00,,---,0.00,VWS V14.01,2013-04-04 22:32:00,
2013-04-04 18:33:00,39.6,25.2,30.14,ESE,123,7.0,7.0,56,0.00,,---,0.00,VWS V14.01,2013-04-04 22:33:00,
2013-04-04 18:34:00,39.5,26.0,30.14,SE,144,3.0,9.0,58,0.00,,---,0.00,VWS V14.01,2013-04-04 22:34:00,
2013-04-04 18:35:00,39.3,25.8,30.14,SE,138,6.0,8.0,58,0.00,,---,0.00,VWS V14.01,2013-04-04 22:35:00,
2013-04-04 18:36:00,39.2,26.1,30.14,SE,144,4.0,7.0,59,0.00,,---,0.00,VWS V14.01,2013-04-04 22:36:00,
2013-04-04 18:37:00,39.2,26.1,30.14,SSE,148,5.0,7.0,59,0.00,,---,0.00,VWS V14.01,2013-04-04 22:37:00,
2013-04-04 18:38:00,38.9,26.2,30.14,SSE,167,4.0,8.0,60,0.00,,---,0.00,VWS V14.01,2013-04-04 22:38:00,
2013-04-04 18:39:00,38.9,26.6,30.14,SE,127,2.0,6.0,61,0.00,,---,0.00,VWS V14.01,2013-04-04 22:39:00,
2013-04-04 18:40:00,38.6,26.7,30.14,ESE,122,5.0,7.0,62,0.00,,---,0.00,VWS V14.01,2013-04-04 22:40:00,
2013-04-04 18:41:00,38.5,27.0,30.14,ESE,118,1.0,7.0,63,0.00,,---,0.00,VWS V14.01,2013-04-04 22:41:00,
2013-04-04 18:42:00,38.3,26.8,30.14,ESE,119,3.0,5.0,63,0.00,,---,0.00,VWS V14.01,2013-04-04 22:42:00,
2013-04-04 18:43:00,38.6,26.7,30.14,ESE,118,1.0,7.0,62,0.00,,---,0.00,VWS V14.01,2013-04-04 22:43:00,
2013-04-04 18:44:00,38.2,27.1,30.14,SSE,150,2.0,6.0,64,0.00,,---,0.00,VWS V14.01,2013-04-04 22:44:00,
2013-04-04 18:45:00,38.0,27.3,30.15,SE,137,4.0,6.0,65,0.00,,---,0.00,VWS V14.01,2013-04-04 22:45:00,
2013-04-04 18:46:00,37.9,27.6,30.15,South,173,2.0,5.0,66,0.00,,---,0.00,VWS V14.01,2013-04-04 22:46:00,
2013-04-04 18:47:00,37.9,27.6,30.15,SSW,192,4.0,6.0,66,0.00,,---,0.00,VWS V14.01,2013-04-04 22:47:00,
2013-04-04 18:48:00,38.0,27.3,30.15,South,173,5.0,5.0,65,0.00,,---,0.00,VWS V14.01,2013-04-04 22:48:00,
2013-04-04 18:49:00,37.8,27.8,30.15,SE,132,1.0,5.0,67,0.00,,---,0.00,VWS V14.01,2013-04-04 22:49:00,
2013-04-04 18:50:00,37.8,27.8,30.15,SSE,159,3.0,6.0,67,0.00,,---,0.00,VWS V14.01,2013-04-04 22:50:00,
2013-04-04 18:51:00,37.6,28.0,30.15,SSE,164,4.0,4.0,68,0.00,,---,0.00,VWS V14.01,2013-04-04 22:51:00,
2013-04-04 18:52:00,37.6,28.4,30.15,SE,134,5.0,6.0,69,0.00,,---,0.00,VWS V14.01,2013-04-04 22:52:00,
2013-04-04 18:53:00,37.6,28.0,30.15,SSE,163,4.0,4.0,68,0.00,,---,0.00,VWS V14.01,2013-04-04 22:53:00,
2013-04-04 18:54:00,37.5,28.3,30.15,SSE,162,5.0,5.0,69,0.00,,---,0.00,VWS V14.01,2013-04-04 22:54:00,
2013-04-04 18:55:00,37.3,28.1,30.15,SSE,164,1.0,5.0,69,0.00,,---,0.00,VWS V14.01,2013-04-04 22:55:00,
2013-04-04 18:56:00,37.3,28.1,30.15,SSE,164,0.0,2.0,69,0.00,,---,0.00,VWS V14.01,2013-04-04 22:56:00,
2013-04-04 18:57:00,37.3,28.4,30.15,SSE,164,0.0,2.0,70,0.00,,---,0.00,VWS V14.01,2013-04-04 22:57:00,
2013-04-04 18:58:00,37.3,28.1,30.15,SSE,164,0.0,2.0,69,0.00,,---,0.00,VWS V14.01,2013-04-04 22:58:00,
2013-04-04 18:59:00,37.2,28.7,30.15,SSE,163,4.0,8.0,71,0.00,,---,0.00,VWS V14.01,2013-04-04 22:59:00,
2013-04-04 19:00:00,37.2,28.7,30.16,SSE,150,0.0,5.0,71,0.00,,---,0.00,VWS V14.01,2013-04-04 23:00:00,
2013-04-04 19:01:00,37.0,28.5,30.16,SSE,150,0.0,2.0,71,0.00,,---,0.00,VWS V14.01,2013-04-04 23:01:00,
2013-04-04 19:02:00,37.0,28.5,30.16,SSE,150,0.0,2.0,71,0.00,,---,0.00,VWS V14.01,2013-04-04 23:02:00,
2013-04-04 19:03:00,37.0,28.8,30.16,SSE,165,1.0,5.0,72,0.00,,---,0.00,VWS V14.01,2013-04-04 23:03:00,
2013-04-04 19:04:00,36.9,28.7,30.16,South,184,2.0,7.0,72,0.00,,---,0.00,VWS V14.01,2013-04-04 23:04:00,
2013-04-04 19:05:00,36.8,28.6,30.16,SSW,198,4.0,9.0,72,0.00,,---,0.00,VWS V14.01,2013-04-04 23:05:00,
2013-04-04 19:06:00,36.8,28.6,30.16,South,182,5.0,9.0,72,0.00,,---,0.00,VWS V14.01,2013-04-04 23:06:00,
2013-04-04 19:07:00,36.8,28.6,30.16,SSE,153,7.0,7.0,72,0.00,,---,0.00,VWS V14.01,2013-04-04 23:07:00,
2013-04-04 19:08:00,36.6,28.4,30.16,South,182,5.0,8.0,72,0.00,,---,0.00,VWS V14.01,2013-04-04 23:08:00,
2013-04-04 19:09:00,36.6,28.4,30.16,South,170,4.0,6.0,72,0.00,,---,0.00,VWS V14.01,2013-04-04 23:09:00,
2013-04-04 19:10:00,36.5,28.4,30.16,South,170,1.0,4.0,72,0.00,,---,0.00,VWS V14.01,2013-04-04 23:10:00,
2013-04-04 19:11:00,36.5,28.7,30.16,South,170,1.0,1.0,73,0.00,,---,0.00,VWS V14.01,2013-04-04 23:11:00,
2013-04-04 19:12:00,36.5,28.7,30.16,South,170,0.0,1.0,73,0.00,,---,0.00,VWS V14.01,2013-04-04 23:12:00,
2013-04-04 19:13:00,36.5,28.7,30.16,SE,136,0.0,6.0,73,0.00,,---,0.00,VWS V14.01,2013-04-04 23:13:00,
2013-04-04 19:14:00,36.3,28.5,30.16,SSE,168,5.0,6.0,73,0.00,,---,0.00,VWS V14.01,2013-04-04 23:14:00,
2013-04-04 19:15:00,36.3,28.8,30.15,SSE,168,2.0,5.0,74,0.00,,---,0.00,VWS V14.01,2013-04-04 23:15:00,
2013-04-04 19:16:00,36.2,29.0,30.15,SSE,167,4.0,4.0,75,0.00,,---,0.00,VWS V14.01,2013-04-04 23:16:00,
2013-04-04 19:17:00,36.2,28.7,30.15,SSE,168,1.0,2.0,74,0.00,,---,0.00,VWS V14.01,2013-04-04 23:17:00,
2013-04-04 19:18:00,36.0,28.9,30.15,South,186,0.0,1.0,75,0.00,,---,0.00,VWS V14.01,2013-04-04 23:18:00,
2013-04-04 19:19:00,36.0,29.2,30.15,South,186,1.0,1.0,76,0.00,,---,0.00,VWS V14.01,2013-04-04 23:19:00,
2013-04-04 19:20:00,35.9,29.1,30.15,South,186,1.0,2.0,76,0.00,,---,0.00,VWS V14.01,2013-04-04 23:20:00,
2013-04-04 19:21:00,35.9,29.4,30.15,South,186,0.0,1.0,77,0.00,,---,0.00,VWS V14.01,2013-04-04 23:21:00,
2013-04-04 19:22:00,35.9,29.1,30.15,South,186,0.0,1.0,76,0.00,,---,0.00,VWS V14.01,2013-04-04 23:22:00,
2013-04-04 19:23:00,35.8,29.3,30.15,South,186,0.0,1.0,77,0.00,,---,0.00,VWS V14.01,2013-04-04 23:23:00,
2013-04-04 19:24:00,35.8,29.3,30.15,South,186,0.0,1.0,77,0.00,,---,0.00,VWS V14.01,2013-04-04 23:24:00,
2013-04-04 19:25:00,35.8,29.3,30.15,South,186,0.0,1.0,77,0.00,,---,0.00,VWS V14.01,2013-04-04 23:25:00,
2013-04-04 19:26:00,35.8,29.6,30.15,South,186,0.0,0.0,78,0.00,,---,0.00,VWS V14.01,2013-04-04 23:26:00,
2013-04-04 19:27:00,35.8,29.6,30.15,South,186,0.0,0.0,78,0.00,,---,0.00,VWS V14.01,2013-04-04 23:27:00,
2013-04-04 19:28:00,35.6,29.4,30.15,South,186,0.0,1.0,78,0.00,,---,0.00,VWS V14.01,2013-04-04 23:28:00,
2013-04-04 19:29:00,35.6,29.4,30.15,South,186,0.0,0.0,78,0.00,,---,0.00,VWS V14.01,2013-04-04 23:29:00,
2013-04-04 19:30:00,35.6,29.4,30.14,South,186,0.0,1.0,78,0.00,,---,0.00,VWS V14.01,2013-04-04 23:30:00,
2013-04-04 19:31:00,35.5,29.3,30.14,South,186,1.0,2.0,78,0.00,,---,0.00,VWS V14.01,2013-04-04 23:31:00,
2013-04-04 19:32:00,35.6,29.4,30.14,South,186,0.0,1.0,78,0.00,,---,0.00,VWS V14.01,2013-04-04 23:32:00,
2013-04-04 19:33:00,35.5,29.6,30.14,South,186,1.0,2.0,79,0.00,,---,0.00,VWS V14.01,2013-04-04 23:33:00,
2013-04-04 19:34:00,35.5,29.6,30.14,South,186,0.0,3.0,79,0.00,,---,0.00,VWS V14.01,2013-04-04 23:34:00,
2013-04-04 19:35:00,35.5,29.6,30.14,South,186,0.0,2.0,79,0.00,,---,0.00,VWS V14.01,2013-04-04 23:35:00,
2013-04-04 19:36:00,35.5,29.6,30.14,South,173,1.0,4.0,79,0.00,,---,0.00,VWS V14.01,2013-04-04 23:36:00,
2013-04-04 19:37:00,35.5,29.6,30.14,South,173,0.0,4.0,79,0.00,,---,0.00,VWS V14.01,2013-04-04 23:37:00,
2013-04-04 19:38:00,35.3,29.8,30.14,SSE,167,1.0,5.0,80,0.00,,---,0.00,VWS V14.01,2013-04-04 23:38:00,
2013-04-04 19:39:00,35.3,29.8,30.14,SSE,167,0.0,2.0,80,0.00,,---,0.00,VWS V14.01,2013-04-04 23:39:00,
2013-04-04 19:40:00,35.3,29.8,30.14,SSE,167,0.0,1.0,80,0.00,,---,0.00,VWS V14.01,2013-04-04 23:40:00,
2013-04-04 19:41:00,35.3,29.8,30.14,SSE,167,2.0,2.0,80,0.00,,---,0.00,VWS V14.01,2013-04-04 23:41:00,
2013-04-04 19:42:00,35.3,29.8,30.14,SSE,167,0.0,0.0,80,0.00,,---,0.00,VWS V14.01,2013-04-04 23:42:00,
2013-04-04 19:43:00,35.2,30.0,30.14,SSE,167,0.0,1.0,81,0.00,,---,0.00,VWS V14.01,2013-04-04 23:43:00,
2013-04-04 19:44:00,35.2,30.0,30.14,SSE,167,0.0,0.0,81,0.00,,---,0.00,VWS V14.01,2013-04-04 23:44:00,
2013-04-04 19:45:00,35.2,30.0,30.14,SSE,167,0.0,0.0,81,0.00,,---,0.00,VWS V14.01,2013-04-04 23:45:00,
2013-04-04 19:46:00,35.2,30.0,30.14,SSE,167,1.0,1.0,81,0.00,,---,0.00,VWS V14.01,2013-04-04 23:46:00,
2013-04-04 19:47:00,35.2,30.0,30.14,SSE,167,0.0,1.0,81,0.00,,---,0.00,VWS V14.01,2013-04-04 23:47:00,
2013-04-04 19:48:00,35.2,30.0,30.14,SSE,167,0.0,1.0,81,0.00,,---,0.00,VWS V14.01,2013-04-04 23:48:00,
2013-04-04 19:49:00,35.2,30.0,30.14,SSE,167,0.0,1.0,81,0.00,,---,0.00,VWS V14.01,2013-04-04 23:49:00,
2013-04-04 19:50:00,35.0,30.1,30.14,SSE,167,0.0,1.0,82,0.00,,---,0.00,VWS V14.01,2013-04-04 23:50:00,
2013-04-04 19:51:00,35.0,30.1,30.14,SSE,167,0.0,1.0,82,0.00,,---,0.00,VWS V14.01,2013-04-04 23:51:00,
2013-04-04 19:52:00,35.0,30.1,30.14,SSE,167,0.0,1.0,82,0.00,,---,0.00,VWS V14.01,2013-04-04 23:52:00,
2013-04-04 19:53:00,35.0,30.1,30.14,SSE,167,0.0,0.0,82,0.00,,---,0.00,VWS V14.01,2013-04-04 23:53:00,
2013-04-04 19:54:00,35.0,30.1,30.14,SSE,167,0.0,0.0,82,0.00,,---,0.00,VWS V14.01,2013-04-04 23:54:00,
2013-04-04 19:55:00,35.0,30.1,30.14,SSE,167,0.0,1.0,82,0.00,,---,0.00,VWS V14.01,2013-04-04 23:55:00,
2013-04-04 19:56:00,35.0,30.4,30.14,SSE,167,0.0,0.0,83,0.00,,---,0.00,VWS V14.01,2013-04-04 23:56:00,
2013-04-04 19:57:00,35.0,30.4,30.14,SSE,167,0.0,0.0,83,0.00,,---,0.00,VWS V14.01,2013-04-04 23:57:00,
2013-04-04 19:58:00,34.9,30.3,30.14,SSE,167,0.0,0.0,83,0.00,,---,0.00,VWS V14.01,2013-04-04 23:58:00,
2013-04-04 19:59:00,34.9,30.3,30.14,SSE,167,0.0,0.0,83,0.00,,---,0.00,VWS V14.01,2013-04-04 23:59:00,
2013-04-04 20:00:00,34.9,30.3,30.13,SSE,167,0.0,0.0,83,0.00,,---,0.00,VWS V14.01,2013-04-05 00:00:00,
2013-04-04 20:01:00,34.9,30.3,30.13,SSE,167,0.0,0.0,83,0.00,,---,0.00,VWS V14.01,2013-04-05 00:01:00,
2013-04-04 20:02:00,34.9,30.3,30.13,SSE,167,0.0,0.0,83,0.00,,---,0.00,VWS V14.01,2013-04-05 00:02:00,
2013-04-04 20:03:00,34.9,30.6,30.13,SSE,167,0.0,1.0,84,0.00,,---,0.00,VWS V14.01,2013-04-05 00:03:00,
2013-04-04 20:04:00,34.9,30.6,30.13,SSE,167,0.0,0.0,84,0.00,,---,0.00,VWS V14.01,2013-04-05 00:04:00,
2013-04-04 20:05:00,34.9,30.6,30.13,SSE,167,0.0,1.0,84,0.00,,---,0.00,VWS V14.01,2013-04-05 00:05:00,
2013-04-04 20:06:00,34.9,30.6,30.13,SSE,167,0.0,0.0,84,0.00,,---,0.00,VWS V14.01,2013-04-05 00:06:00,
2013-04-04 20:07:00,34.9,30.6,30.13,SSE,167,0.0,0.0,84,0.00,,---,0.00,VWS V14.01,2013-04-05 00:07:00,
2013-04-04 20:08:00,34.9,30.6,30.13,SSE,167,0.0,0.0,84,0.00,,---,0.00,VWS V14.01,2013-04-05 00:08:00,
2013-04-04 20:09:00,34.7,30.4,30.13,SSE,167,0.0,0.0,84,0.00,,---,0.00,VWS V14.01,2013-04-05 00:09:00,
2013-04-04 20:10:00,34.7,30.4,30.13,SSE,167,0.0,1.0,84,0.00,,---,0.00,VWS V14.01,2013-04-05 00:10:00,
2013-04-04 20:11:00,34.7,30.4,30.13,SSE,167,0.0,1.0,84,0.00,,---,0.00,VWS V14.01,2013-04-05 00:11:00,
2013-04-04 20:12:00,34.7,30.4,30.13,SSE,167,0.0,0.0,84,0.00,,---,0.00,VWS V14.01,2013-04-05 00:12:00,
2013-04-04 20:13:00,34.7,30.7,30.13,SSE,167,0.0,0.0,85,0.00,,---,0.00,VWS V14.01,2013-04-05 00:13:00,
2013-04-04 20:14:00,34.7,30.7,30.13,SSE,167,0.0,0.0,85,0.00,,---,0.00,VWS V14.01,2013-04-05 00:14:00,
2013-04-04 20:15:00,34.7,30.7,30.12,SSE,167,0.0,0.0,85,0.00,,---,0.00,VWS V14.01,2013-04-05 00:15:00,
2013-04-04 20:16:00,34.7,30.7,30.12,SSE,167,0.0,0.0,85,0.00,,---,0.00,VWS V14.01,2013-04-05 00:16:00,
2013-04-04 20:17:00,34.7,30.7,30.12,SSE,167,0.0,0.0,85,0.00,,---,0.00,VWS V14.01,2013-04-05 00:17:00,
2013-04-04 20:18:00,34.7,30.7,30.12,SSE,167,0.0,0.0,85,0.01,,---,0.01,VWS V14.01,2013-04-05 00:18:00,
2013-04-04 20:19:00,34.7,30.7,30.12,SSE,167,0.0,0.0,85,0.01,,---,0.01,VWS V14.01,2013-04-05 00:19:00,
2013-04-04 20:20:00,34.6,30.6,30.12,SSE,167,0.0,0.0,85,0.01,,---,0.01,VWS V14.01,2013-04-05 00:20:00,
2013-04-04 20:21:00,34.6,30.6,30.12,SSE,167,0.0,0.0,85,0.01,,---,0.01,VWS V14.01,2013-04-05 00:21:00,
2013-04-04 20:22:00,34.6,30.6,30.12,SSE,167,0.0,0.0,85,0.01,,---,0.01,VWS V14.01,2013-04-05 00:22:00,
2013-04-04 20:23:00,34.6,30.9,30.12,SSE,167,0.0,0.0,86,0.01,,---,0.01,VWS V14.01,2013-04-05 00:23:00,
2013-04-04 20:24:00,34.6,30.9,30.12,SSE,167,0.0,0.0,86,0.02,,---,0.02,VWS V14.01,2013-04-05 00:24:00,
2013-04-04 20:25:00,34.6,30.9,30.12,SSE,167,0.0,0.0,86,0.02,,---,0.02,VWS V14.01,2013-04-05 00:25:00,
2013-04-04 20:26:00,34.6,30.9,30.12,SSE,167,0.0,0.0,86,0.02,,---,0.02,VWS V14.01,2013-04-05 00:26:00,
2013-04-04 20:27:00,34.6,30.9,30.12,SSE,167,0.0,0.0,86,0.02,,---,0.02,VWS V14.01,2013-04-05 00:27:00,
2013-04-04 20:28:00,34.4,30.6,30.12,SSE,167,0.0,0.0,86,0.02,,---,0.02,VWS V14.01,2013-04-05 00:28:00,
2013-04-04 20:29:00,34.4,30.6,30.12,SSE,167,0.0,0.0,86,0.02,,---,0.02,VWS V14.01,2013-04-05 00:29:00,
2013-04-04 20:30:00,34.4,30.9,30.11,SSE,167,0.0,0.0,87,0.02,,---,0.02,VWS V14.01,2013-04-05 00:30:00,
2013-04-04 20:31:00,34.6,31.1,30.11,SSE,167,0.0,0.0,87,0.02,,---,0.02,VWS V14.01,2013-04-05 00:31:00,
2013-04-04 20:32:00,34.4,30.9,30.11,SSE,167,0.0,0.0,87,0.02,,---,0.02,VWS V14.01,2013-04-05 00:32:00,
2013-04-04 20:33:00,34.6,31.1,30.11,SSE,167,0.0,1.0,87,0.02,,---,0.02,VWS V14.01,2013-04-05 00:33:00,
2013-04-04 20:34:00,34.6,31.1,30.11,SSE,167,0.0,1.0,87,0.02,,---,0.02,VWS V14.01,2013-04-05 00:34:00,
2013-04-04 20:35:00,34.6,31.1,30.11,SSE,167,0.0,0.0,87,0.02,,---,0.02,VWS V14.01,2013-04-05 00:35:00,
2013-04-04 20:36:00,34.6,31.1,30.11,SSE,167,1.0,1.0,87,0.03,,---,0.03,VWS V14.01,2013-04-05 00:36:00,
2013-04-04 20:37:00,34.6,31.1,30.11,SSE,167,0.0,0.0,87,0.03,,---,0.03,VWS V14.01,2013-04-05 00:37:00,
2013-04-04 20:38:00,34.6,31.1,30.11,SSE,167,0.0,0.0,87,0.03,,---,0.03,VWS V14.01,2013-04-05 00:38:00,
2013-04-04 20:40:00,34.6,31.4,30.11,SSE,167,0.0,0.0,88,0.03,,---,0.03,VWS V14.01,2013-04-05 00:40:00,
2013-04-04 20:41:00,34.6,31.4,30.11,SSE,167,0.0,0.0,88,0.03,,---,0.03,VWS V14.01,2013-04-05 00:41:00,
2013-04-04 20:42:00,34.6,31.4,30.11,SSE,167,0.0,0.0,88,0.03,,---,0.03,VWS V14.01,2013-04-05 00:42:00,
2013-04-04 20:43:00,34.6,31.4,30.11,SSE,167,0.0,0.0,88,0.03,,---,0.03,VWS V14.01,2013-04-05 00:43:00,
2013-04-04 20:44:00,34.4,31.2,30.11,SSE,167,0.0,0.0,88,0.03,,---,0.03,VWS V14.01,2013-04-05 00:44:00,
2013-04-04 20:45:00,34.4,31.2,30.11,SSE,167,0.0,0.0,88,0.04,,---,0.04,VWS V14.01,2013-04-05 00:45:00,
2013-04-04 20:46:00,34.4,31.2,30.11,SSE,167,0.0,0.0,88,0.04,,---,0.04,VWS V14.01,2013-04-05 00:46:00,
2013-04-04 20:47:00,34.4,31.2,30.11,SSE,167,0.0,0.0,88,0.04,,---,0.04,VWS V14.01,2013-04-05 00:47:00,
2013-04-04 20:48:00,34.4,31.2,30.11,SSE,167,1.0,2.0,88,0.04,,---,0.04,VWS V14.01,2013-04-05 00:48:00,
2013-04-04 20:49:00,34.4,31.2,30.11,SSE,167,0.0,1.0,88,0.04,,---,0.04,VWS V14.01,2013-04-05 00:49:00,
2013-04-04 20:50:00,34.4,31.5,30.11,SSE,167,0.0,2.0,89,0.04,,---,0.04,VWS V14.01,2013-04-05 00:50:00,
2013-04-04 20:51:00,34.3,31.4,30.11,SSE,167,0.0,0.0,89,0.04,,---,0.04,VWS V14.01,2013-04-05 00:51:00,
2013-04-04 20:52:00,34.3,31.4,30.11,SSE,167,0.0,0.0,89,0.04,,---,0.04,VWS V14.01,2013-04-05 00:52:00,
2013-04-04 20:53:00,34.3,31.4,30.11,SSE,167,0.0,1.0,89,0.04,,---,0.04,VWS V14.01,2013-04-05 00:53:00,
2013-04-04 20:54:00,34.3,31.4,30.11,SSE,167,0.0,0.0,89,0.04,,---,0.04,VWS V14.01,2013-04-05 00:54:00,
2013-04-04 20:55:00,34.3,31.4,30.11,SSE,167,0.0,0.0,89,0.04,,---,0.04,VWS V14.01,2013-04-05 00:55:00,
2013-04-04 20:56:00,34.3,31.4,30.11,SSE,167,0.0,0.0,89,0.04,,---,0.04,VWS V14.01,2013-04-05 00:56:00,
2013-04-04 20:57:00,34.3,31.4,30.11,SSE,167,0.0,0.0,89,0.04,,---,0.04,VWS V14.01,2013-04-05 00:57:00,
2013-04-04 20:58:00,34.1,31.2,30.11,SSE,167,0.0,0.0,89,0.04,,---,0.04,VWS V14.01,2013-04-05 00:58:00,
2013-04-04 20:59:00,34.1,31.2,30.11,SSE,167,0.0,0.0,89,0.04,,---,0.04,VWS V14.01,2013-04-05 00:59:00,
2013-04-04 21:00:00,34.1,31.2,30.11,SSE,167,0.0,0.0,89,0.05,,---,0.05,VWS V14.01,2013-04-05 01:00:00,
2013-04-04 21:01:00,34.1,31.2,30.11,SSE,167,0.0,0.0,89,0.05,,---,0.05,VWS V14.01,2013-04-05 01:01:00,
2013-04-04 21:02:00,34.1,31.2,30.11,SSE,167,0.0,0.0,89,0.05,,---,0.05,VWS V14.01,2013-04-05 01:02:00,
2013-04-04 21:03:00,34.1,31.2,30.11,SSE,167,0.0,0.0,89,0.05,,---,0.05,VWS V14.01,2013-04-05 01:03:00,
2013-04-04 21:04:00,34.1,31.2,30.11,SSE,167,0.0,0.0,89,0.05,,---,0.05,VWS V14.01,2013-04-05 01:04:00,
2013-04-04 21:05:00,34.1,31.5,30.11,SSE,167,0.0,0.0,90,0.05,,---,0.05,VWS V14.01,2013-04-05 01:05:00,
2013-04-04 21:06:00,34.1,31.5,30.11,SSE,167,0.0,0.0,90,0.05,,---,0.05,VWS V14.01,2013-04-05 01:06:00,
2013-04-04 21:07:00,34.1,31.5,30.11,SSE,167,0.0,0.0,90,0.05,,---,0.05,VWS V14.01,2013-04-05 01:07:00,
2013-04-04 21:08:00,34.0,31.4,30.11,SSE,167,0.0,0.0,90,0.06,,---,0.06,VWS V14.01,2013-04-05 01:08:00,
2013-04-04 21:09:00,34.0,31.4,30.11,SSE,167,0.0,0.0,90,0.06,,---,0.06,VWS V14.01,2013-04-05 01:09:00,
2013-04-04 21:10:00,34.0,31.4,30.11,SSE,167,0.0,0.0,90,0.06,,---,0.06,VWS V14.01,2013-04-05 01:10:00,
2013-04-04 21:11:00,34.0,31.4,30.11,SSE,167,0.0,0.0,90,0.06,,---,0.06,VWS V14.01,2013-04-05 01:11:00,
2013-04-04 21:12:00,34.0,31.4,30.11,SSE,167,0.0,0.0,90,0.06,,---,0.06,VWS V14.01,2013-04-05 01:12:00,
2013-04-04 21:13:00,34.0,31.4,30.11,SSE,167,0.0,0.0,90,0.06,,---,0.06,VWS V14.01,2013-04-05 01:13:00,
2013-04-04 21:14:00,34.0,31.4,30.11,SSE,167,0.0,0.0,90,0.06,,---,0.06,VWS V14.01,2013-04-05 01:14:00,
2013-04-04 21:15:00,33.8,31.2,30.09,SSE,167,0.0,0.0,90,0.06,,---,0.06,VWS V14.01,2013-04-05 01:15:00,
2013-04-04 21:16:00,33.8,31.2,30.09,SSE,167,0.0,0.0,90,0.06,,---,0.06,VWS V14.01,2013-04-05 01:16:00,
2013-04-04 21:17:00,33.8,31.2,30.09,SSE,167,0.0,0.0,90,0.06,,---,0.06,VWS V14.01,2013-04-05 01:17:00,
2013-04-04 21:18:00,33.8,31.2,30.09,SSE,167,0.0,0.0,90,0.05,,---,0.06,VWS V14.01,2013-04-05 01:18:00,
2013-04-04 21:19:00,33.8,31.2,30.09,SSE,167,0.0,0.0,90,0.05,,---,0.06,VWS V14.01,2013-04-05 01:19:00,
2013-04-04 21:20:00,33.8,31.2,30.09,SSE,167,0.0,0.0,90,0.05,,---,0.06,VWS V14.01,2013-04-05 01:20:00,
2013-04-04 21:21:00,33.8,31.2,30.09,SSE,167,0.0,0.0,90,0.05,,---,0.06,VWS V14.01,2013-04-05 01:21:00,
2013-04-04 21:22:00,33.8,31.2,30.09,SSE,167,0.0,0.0,90,0.05,,---,0.06,VWS V14.01,2013-04-05 01:22:00,
2013-04-04 21:23:00,33.8,31.2,30.09,SSE,167,0.0,0.0,90,0.05,,---,0.06,VWS V14.01,2013-04-05 01:23:00,
2013-04-04 21:24:00,33.8,31.2,30.09,SSE,167,0.0,0.0,90,0.06,,---,0.07,VWS V14.01,2013-04-05 01:24:00,
2013-04-04 21:25:00,33.8,31.2,30.09,SSE,167,0.0,0.0,90,0.05,,---,0.07,VWS V14.01,2013-04-05 01:25:00,
2013-04-04 21:26:00,33.8,31.5,30.09,SSE,167,0.0,0.0,91,0.05,,---,0.07,VWS V14.01,2013-04-05 01:26:00,
2013-04-04 21:27:00,33.8,31.2,30.09,SSE,167,0.0,0.0,90,0.05,,---,0.07,VWS V14.01,2013-04-05 01:27:00,
2013-04-04 21:28:00,33.8,31.5,30.09,SSE,167,0.0,0.0,91,0.05,,---,0.07,VWS V14.01,2013-04-05 01:28:00,
2013-04-04 21:29:00,33.8,31.5,30.09,SSE,167,0.0,0.0,91,0.05,,---,0.07,VWS V14.01,2013-04-05 01:29:00,
2013-04-04 21:30:00,33.8,31.5,30.10,SSE,167,0.0,0.0,91,0.05,,---,0.07,VWS V14.01,2013-04-05 01:30:00,
2013-04-04 21:31:00,33.8,31.5,30.10,SSE,167,0.0,0.0,91,0.05,,---,0.07,VWS V14.01,2013-04-05 01:31:00,
2013-04-04 21:32:00,33.8,31.5,30.10,SSE,167,0.0,0.0,91,0.05,,---,0.07,VWS V14.01,2013-04-05 01:32:00,
2013-04-04 21:33:00,33.8,31.5,30.10,SSE,167,0.0,0.0,91,0.05,,---,0.07,VWS V14.01,2013-04-05 01:33:00,
2013-04-04 21:34:00,33.8,31.5,30.10,SSE,167,0.0,0.0,91,0.05,,---,0.07,VWS V14.01,2013-04-05 01:34:00,
2013-04-04 21:35:00,33.8,31.5,30.10,SSE,167,0.0,0.0,91,0.05,,---,0.07,VWS V14.01,2013-04-05 01:35:00,
2013-04-04 21:36:00,33.8,31.5,30.10,SSE,167,0.0,0.0,91,0.05,,---,0.07,VWS V14.01,2013-04-05 01:36:00,
2013-04-04 21:37:00,33.8,31.5,30.10,SSE,167,0.0,0.0,91,0.05,,---,0.07,VWS V14.01,2013-04-05 01:37:00,
2013-04-04 21:38:00,33.8,31.5,30.10,SSE,167,0.0,0.0,91,0.05,,---,0.08,VWS V14.01,2013-04-05 01:38:00,
2013-04-04 21:39:00,33.8,31.5,30.10,SSE,167,0.0,0.0,91,0.05,,---,0.08,VWS V14.01,2013-04-05 01:39:00,
2013-04-04 21:40:00,33.8,31.5,30.10,SSE,167,0.0,0.0,91,0.05,,---,0.08,VWS V14.01,2013-04-05 01:40:00,
2013-04-04 21:41:00,33.8,31.5,30.10,SSE,167,0.0,0.0,91,0.05,,---,0.08,VWS V14.01,2013-04-05 01:41:00,
2013-04-04 21:42:00,33.8,31.5,30.10,SSE,167,0.0,0.0,91,0.05,,---,0.08,VWS V14.01,2013-04-05 01:42:00,
2013-04-04 21:43:00,33.8,31.5,30.10,SSE,167,0.0,0.0,91,0.05,,---,0.08,VWS V14.01,2013-04-05 01:43:00,
2013-04-04 21:44:00,33.8,31.5,30.10,SSE,167,0.0,0.0,91,0.05,,---,0.08,VWS V14.01,2013-04-05 01:44:00,
2013-04-04 21:45:00,33.7,31.4,30.08,SSE,167,0.0,0.0,91,0.05,,---,0.08,VWS V14.01,2013-04-05 01:45:00,
2013-04-04 21:46:00,33.7,31.4,30.08,SSE,167,0.0,0.0,91,0.04,,---,0.08,VWS V14.01,2013-04-05 01:46:00,
2013-04-04 21:47:00,33.7,31.4,30.08,SSE,167,0.0,0.0,91,0.04,,---,0.08,VWS V14.01,2013-04-05 01:47:00,
2013-04-04 21:48:00,33.7,31.4,30.08,SSE,167,0.0,0.0,91,0.04,,---,0.08,VWS V14.01,2013-04-05 01:48:00,
2013-04-04 21:49:00,33.7,31.6,30.08,SSE,167,0.0,0.0,92,0.04,,---,0.08,VWS V14.01,2013-04-05 01:49:00,
2013-04-04 21:50:00,33.7,31.6,30.08,SSE,167,0.0,0.0,92,0.04,,---,0.08,VWS V14.01,2013-04-05 01:50:00,
2013-04-04 21:51:00,33.7,31.6,30.08,SSE,167,0.0,0.0,92,0.04,,---,0.08,VWS V14.01,2013-04-05 01:51:00,
2013-04-04 21:52:00,33.7,31.6,30.08,SSE,167,0.0,0.0,92,0.04,,---,0.08,VWS V14.01,2013-04-05 01:52:00,
2013-04-04 21:53:00,33.7,31.6,30.08,SSE,167,0.0,0.0,92,0.04,,---,0.08,VWS V14.01,2013-04-05 01:53:00,
2013-04-04 21:54:00,33.7,31.6,30.08,SSE,167,0.0,0.0,92,0.04,,---,0.08,VWS V14.01,2013-04-05 01:54:00,
2013-04-04 21:55:00,33.7,31.6,30.08,SSE,167,0.0,0.0,92,0.04,,---,0.08,VWS V14.01,2013-04-05 01:55:00,
2013-04-04 21:56:00,33.7,31.6,30.08,SSE,167,0.0,0.0,92,0.04,,---,0.08,VWS V14.01,2013-04-05 01:56:00,
2013-04-04 21:57:00,33.7,31.6,30.08,SSE,167,0.0,0.0,92,0.04,,---,0.08,VWS V14.01,2013-04-05 01:57:00,
2013-04-04 21:58:00,33.7,31.6,30.08,SSE,167,0.0,0.0,92,0.04,,---,0.08,VWS V14.01,2013-04-05 01:58:00,
2013-04-04 21:59:00,33.7,31.6,30.08,SSE,167,0.0,0.0,92,0.04,,---,0.08,VWS V14.01,2013-04-05 01:59:00,
2013-04-04 22:00:00,33.7,31.6,30.08,SSE,167,0.0,0.0,92,0.05,,---,0.09,VWS V14.01,2013-04-05 02:00:00,
2013-04-04 22:01:00,33.7,31.6,30.08,SSE,167,0.0,0.0,92,0.04,,---,0.09,VWS V14.01,2013-04-05 02:01:00,
2013-04-04 22:02:00,33.7,31.6,30.08,SSE,167,0.0,0.0,92,0.04,,---,0.09,VWS V14.01,2013-04-05 02:02:00,
2013-04-04 22:03:00,33.7,31.6,30.08,SSE,167,0.0,0.0,92,0.04,,---,0.09,VWS V14.01,2013-04-05 02:03:00,
2013-04-04 22:04:00,33.7,31.6,30.08,SSE,167,0.0,0.0,92,0.04,,---,0.09,VWS V14.01,2013-04-05 02:04:00,
2013-04-04 22:05:00,33.7,31.6,30.08,SSE,167,0.0,0.0,92,0.04,,---,0.09,VWS V14.01,2013-04-05 02:05:00,
2013-04-04 22:06:00,33.7,31.6,30.08,SSE,167,0.0,0.0,92,0.04,,---,0.09,VWS V14.01,2013-04-05 02:06:00,
2013-04-04 22:07:00,33.7,31.6,30.08,SSE,167,0.0,0.0,92,0.04,,---,0.09,VWS V14.01,2013-04-05 02:07:00,
2013-04-04 22:08:00,33.7,31.6,30.08,SSE,167,0.0,0.0,92,0.04,,---,0.09,VWS V14.01,2013-04-05 02:08:00,
2013-04-04 22:09:00,33.7,31.6,30.08,SSE,167,0.0,0.0,92,0.03,,---,0.09,VWS V14.01,2013-04-05 02:09:00,
2013-04-04 22:10:00,33.7,31.6,30.08,SSE,167,0.0,0.0,92,0.03,,---,0.09,VWS V14.01,2013-04-05 02:10:00,
2013-04-04 22:11:00,33.7,31.6,30.08,SSE,167,0.0,0.0,92,0.04,,---,0.10,VWS V14.01,2013-04-05 02:11:00,
2013-04-04 22:12:00,33.7,31.6,30.08,SSE,167,0.0,0.0,92,0.04,,---,0.10,VWS V14.01,2013-04-05 02:12:00,
2013-04-04 22:13:00,33.7,31.6,30.08,SSE,167,0.0,0.0,92,0.04,,---,0.10,VWS V14.01,2013-04-05 02:13:00,
2013-04-04 22:14:00,33.7,31.6,30.08,North,0,0.0,0.0,92,0.04,,---,0.10,VWS V14.01,2013-04-05 02:14:00,
2013-04-04 22:15:00,33.7,31.9,30.07,North,0,0.0,0.0,93,0.04,,---,0.10,VWS V14.01,2013-04-05 02:15:00,
2013-04-04 22:16:00,33.7,31.9,30.07,North,0,0.0,0.0,93,0.04,,---,0.10,VWS V14.01,2013-04-05 02:16:00,
2013-04-04 22:17:00,33.7,31.9,30.07,North,0,0.0,0.0,93,0.04,,---,0.10,VWS V14.01,2013-04-05 02:17:00,
2013-04-04 22:25:00,33.7,31.9,30.07,SSE,167,0.0,0.0,93,0.04,,---,0.10,VWS V14.01,2013-04-05 02:25:00,
2013-04-04 22:26:00,33.7,31.9,30.07,SSE,167,0.0,0.0,93,0.03,,---,0.10,VWS V14.01,2013-04-05 02:26:00,
2013-04-04 22:27:00,33.7,31.9,30.07,North,0,0.0,0.0,93,0.04,,---,0.10,VWS V14.01,2013-04-05 02:27:00,
2013-04-04 22:28:00,33.8,32.0,30.07,SSE,167,0.0,0.0,93,0.03,,---,0.10,VWS V14.01,2013-04-05 02:28:00,
2013-04-04 22:29:00,33.7,31.9,30.07,SSE,167,0.0,0.0,93,0.04,,---,0.11,VWS V14.01,2013-04-05 02:29:00,
2013-04-04 22:30:00,33.7,31.9,30.07,SSE,167,0.0,0.0,93,0.04,,---,0.11,VWS V14.01,2013-04-05 02:30:00,
2013-04-04 22:31:00,33.7,31.9,30.07,SSE,167,0.0,0.0,93,0.04,,---,0.11,VWS V14.01,2013-04-05 02:31:00,
2013-04-04 22:32:00,33.7,31.9,30.07,SSE,167,0.0,0.0,93,0.04,,---,0.11,VWS V14.01,2013-04-05 02:32:00,
2013-04-04 22:33:00,33.7,31.9,30.07,SSE,167,0.0,0.0,93,0.04,,---,0.11,VWS V14.01,2013-04-05 02:33:00,
2013-04-04 22:34:00,33.7,31.9,30.07,SSE,167,0.0,0.0,93,0.04,,---,0.11,VWS V14.01,2013-04-05 02:34:00,
2013-04-04 22:37:00,33.7,31.9,30.07,SSE,167,0.0,0.0,93,0.04,,---,0.11,VWS V14.01,2013-04-05 02:37:00,
2013-04-04 22:42:00,33.7,31.9,30.07,SSE,167,0.0,0.0,93,0.03,,---,0.11,VWS V14.01,2013-04-05 02:42:00,
2013-04-04 22:47:00,33.7,31.9,30.05,SSE,167,0.0,0.0,93,0.04,,---,0.12,VWS V14.01,2013-04-05 02:47:00,
2013-04-04 22:52:00,33.7,31.9,30.05,SSE,167,0.0,0.0,93,0.04,,---,0.12,VWS V14.01,2013-04-05 02:52:00,
2013-04-04 22:57:00,33.7,31.9,30.05,SSE,167,0.0,0.0,93,0.04,,---,0.12,VWS V14.01,2013-04-05 02:57:00,
2013-04-04 23:02:00,33.7,31.9,30.04,SSE,167,0.0,0.0,93,0.03,,---,0.12,VWS V14.01,2013-04-05 03:02:00,
2013-04-04 23:07:00,33.7,32.2,30.04,SSE,167,0.0,0.0,94,0.04,,---,0.13,VWS V14.01,2013-04-05 03:07:00,
2013-04-04 23:12:00,33.7,32.2,30.04,SSE,167,1.0,1.0,94,0.04,,---,0.13,VWS V14.01,2013-04-05 03:12:00,
2013-04-04 23:17:00,33.7,32.2,30.03,SSE,167,0.0,0.0,94,0.03,,---,0.13,VWS V14.01,2013-04-05 03:17:00,
2013-04-04 23:22:00,33.7,32.2,30.03,SSE,167,0.0,0.0,94,0.03,,---,0.13,VWS V14.01,2013-04-05 03:22:00,
2013-04-04 23:27:00,33.7,32.2,30.03,SSE,167,0.0,0.0,94,0.03,,---,0.13,VWS V14.01,2013-04-05 03:27:00,
2013-04-04 23:32:00,33.7,32.2,30.01,SSE,167,0.0,0.0,94,0.03,,---,0.14,VWS V14.01,2013-04-05 03:32:00,
2013-04-04 23:37:00,33.7,32.2,30.01,SSE,167,0.0,0.0,94,0.03,,---,0.14,VWS V14.01,2013-04-05 03:37:00,
2013-04-04 23:42:00,33.7,32.2,30.01,SSE,167,0.0,0.0,94,0.03,,---,0.14,VWS V14.01,2013-04-05 03:42:00,
2013-04-04 23:47:00,33.7,32.2,30.01,SSE,167,0.0,0.0,94,0.02,,---,0.14,VWS V14.01,2013-04-05 03:47:00,
2013-04-04 23:52:00,33.7,32.2,30.01,SSE,167,0.0,0.0,94,0.02,,---,0.14,VWS V14.01,2013-04-05 03:52:00,
2013-04-04 23:57:00,33.7,32.2,30.01,SSE,167,0.0,0.0,94,0.02,,---,0.14,VWS V14.01,2013-04-05 03:57:00,